[[{"header":{"parameterUnit":"m.s-1","parameterCategory":1,"la1":30.6,"la2":28.766,"lo1":-90.7593,"lo2":-88.6598,"dy":0.0162,"dx":0.0183,"nx":116,"ny":114,"refTime":"2023-08-23T18:00:00:Z","depth":0,"parameterNumber":2,"parameterNumberName":"U-component_of_WINDS"},"data":[0.0,0.0,0.0,0.0,0.0,0.0,0.0,0.0,0.0,0.0,0.0,0.0,0.0,0.0,0.0,0.0,0.0,0.0,0.0,0.0,0.0,0.0,0.0,0.0,0.0,0.0,0.0,0.0,0.0,0.0,0.0,0.0,0.0,0.0,0.0,0.0,0.0,0.0,0.0,0.0,0.0,0.0,0.0,0.0,0.0,0.0,0.0,0.0,0.0,0.0,0.0,0.0,0.0,0.0,0.0,0.0,0.0,0.0,0.0,0.0,0.0,0.0,0.0,0.0,0.0,0.0,0.0,0.0,0.0,0.0,0.0,0.0,0.0,0.0,0.0,0.0,0.0,0.0,0.0,0.0,0.0,0.0,0.0,0.0,0.0,0.0,0.0,0.0,0.0,0.0,0.0,0.0,0.0,0.0,0.0,0.0,0.0,0.0,0.0,0.0,0.0,0.0,0.0,0.0,0.0,0.0,0.0,0.0,0.0,0.0,0.0,0.0,0.0,0.0,0.0,0.0,0.0,0.0,0.0,0.0,0.0,0.0,0.0,0.0,0.0,0.0,0.0,0.0,0.0,0.0,0.0,0.0,0.0,0.0,0.0,0.0,0.0,0.0,0.0,0.0,0.0,0.0,0.0,0.0,0.0,0.0,0.0,0.0,0.0,0.0,0.0,0.0,0.0,0.0,0.0,0.0,0.0,0.0,0.0,0.0,0.0,0.0,0.0,0.0,0.0,0.0,0.0,0.0,0.0,0.0,0.0,0.0,0.0,0.0,0.0,0.0,0.0,0.0,0.0,0.0,0.0,0.0,0.0,0.0,0.0,0.0,0.0,0.0,0.0,0.0,0.0,0.0,0.0,0.0,0.0,0.0,0.0,0.0,0.0,0.0,0.0,0.0,0.0,0.0,0.0,0.0,0.0,0.0,0.0,0.0,0.0,0.0,0.0,0.0,0.0,0.0,0.0,0.0,0.0,0.0,0.0,0.0,0.0,0.0,0.0,0.0,0.0,0.0,0.0,0.0,0.0,0.0,0.0,0.0,0.0,0.0,0.0,0.0,0.0,0.0,0.0,0.0,0.0,0.0,0.0,0.0,0.0,0.0,0.0,0.0,0.0,0.0,0.0,0.0,0.0,0.0,0.0,0.0,0.0,0.0,0.0,0.0,0.0,0.0,0.0,0.0,0.0,0.0,0.0,0.0,0.0,0.0,0.0,0.0,0.0,0.0,0.0,0.0,0.0,0.0,0.0,0.0,0.0,0.0,0.0,0.0,0.0,0.0,0.0,0.0,0.0,0.0,0.0,0.0,0.0,0.0,0.0,0.0,0.0,0.0,0.0,0.0,0.0,0.0,0.0,0.0,0.0,0.0,0.0,0.0,0.0,0.0,0.0,0.0,0.0,0.0,0.0,0.0,0.0,0.0,0.0,0.0,0.0,0.0,0.0,0.0,0.0,0.0,0.0,0.0,0.0,0.0,0.0,0.0,0.0,0.0,0.0,0.0,0.0,0.0,0.0,0.0,0.0,0.0,0.0,0.0,0.0,0.0,0.0,0.0,0.0,0.0,0.0,0.0,0.0,0.0,0.0,0.0,0.0,0.0,0.0,0.0,0.0,0.0,0.0,0.0,0.0,0.0,0.0,0.0,0.0,0.0,0.0,0.0,0.0,0.0,0.0,0.0,0.0,0.0,0.0,0.0,0.0,0.0,0.0,0.0,0.0,0.0,0.0,0.0,0.0,0.0,0.0,0.0,0.0,0.0,0.0,0.0,0.0,0.0,0.0,0.0,0.0,0.0,0.0,0.0,0.0,0.0,0.0,0.0,0.0,0.0,0.0,0.0,0.0,0.0,0.0,0.0,0.0,0.0,0.0,0.0,0.0,0.0,0.0,0.0,0.0,0.0,0.0,0.0,0.0,0.0,0.0,0.0,0.0,0.0,0.0,0.0,0.0,0.0,0.0,0.0,0.0,0.0,0.0,0.0,0.0,0.0,0.0,0.0,0.0,0.0,0.0,0.0,0.0,0.0,0.0,0.0,0.0,0.0,0.0,0.0,0.0,0.0,0.0,0.0,0.0,0.0,0.0,0.0,0.0,0.0,0.0,0.0,0.0,0.0,0.0,0.0,0.0,0.0,0.0,0.0,0.0,0.0,0.0,0.0,0.0,0.0,0.0,0.0,0.0,0.0,0.0,0.0,0.0,0.0,0.0,0.0,0.0,0.0,0.0,0.0,0.0,0.0,0.0,0.0,0.0,0.0,0.0,0.0,0.0,0.0,0.0,0.0,0.0,0.0,0.0,0.0,0.0,0.0,0.0,0.0,0.0,0.0,0.0,0.0,0.0,0.0,0.0,0.0,0.0,0.0,0.0,0.0,0.0,0.0,0.0,0.0,0.0,0.0,0.0,0.0,0.0,0.0,0.0,0.0,0.0,0.0,0.0,0.0,0.0,0.0,0.0,0.0,0.0,0.0,0.0,0.0,0.0,0.0,0.0,0.0,0.0,0.0,0.0,0.0,0.0,0.0,0.0,0.0,0.0,0.0,0.0,0.0,0.0,0.0,0.0,0.0,0.0,0.0,0.0,0.0,0.0,0.0,0.0,0.0,0.0,0.0,0.0,0.0,0.0,0.0,0.0,0.0,0.0,0.0,0.0,0.0,0.0,0.0,0.0,0.0,0.0,0.0,0.0,0.0,0.0,0.0,0.0,0.0,0.0,0.0,0.0,0.0,0.0,0.0,0.0,0.0,0.0,0.0,0.0,0.0,0.0,0.0,0.0,0.0,0.0,0.0,0.0,0.0,0.0,0.0,0.0,0.0,0.0,0.0,0.0,0.0,0.0,0.0,0.0,0.0,0.0,0.0,0.0,0.0,0.0,0.0,0.0,0.0,0.0,0.0,0.0,0.0,0.0,0.0,0.0,0.0,0.0,0.0,0.0,0.0,0.0,0.0,0.0,0.0,0.0,0.0,0.0,0.0,0.0,0.0,0.0,0.0,0.0,0.0,0.0,0.0,0.0,0.0,0.0,0.0,0.0,0.0,0.0,0.0,0.0,0.0,0.0,0.0,0.0,0.0,0.0,0.0,0.0,0.0,0.0,0.0,0.0,0.0,0.0,0.0,0.0,0.0,0.0,0.0,0.0,0.0,0.0,0.0,0.0,0.0,0.0,0.0,0.0,0.0,0.0,0.0,0.0,0.0,0.0,0.0,0.0,0.0,0.0,0.0,0.0,0.0,0.0,0.0,0.0,0.0,0.0,0.0,0.0,0.0,0.0,0.0,0.0,0.0,0.0,0.0,0.0,0.0,0.0,0.0,0.0,0.0,0.0,0.0,0.0,0.0,0.0,0.0,0.0,0.0,0.0,0.0,0.0,0.0,0.0,0.0,0.0,0.0,0.0,0.0,0.0,0.0,0.0,0.0,0.0,0.0,0.0,0.0,0.0,0.0,0.0,0.0,0.0,0.0,0.0,0.0,0.0,0.0,0.0,0.0,0.0,0.0,0.0,0.0,0.0,0.0,0.0,0.0,0.0,0.0,0.0,0.0,0.0,0.0,0.0,0.0,0.0,0.0,0.0,0.0,0.0,0.0,0.0,0.0,0.0,0.0,0.0,0.0,0.0,0.0,0.0,0.0,0.0,0.0,0.0,0.0,0.0,0.0,0.0,0.0,0.0,0.0,0.0,0.0,0.0,0.0,0.0,0.0,0.0,0.0,0.0,0.0,0.0,0.0,0.0,0.0,0.0,0.0,0.0,0.0,0.0,0.0,0.0,0.0,0.0,0.0,0.0,0.0,0.0,0.0,0.0,0.0,0.0,0.0,0.0,0.0,0.0,0.0,0.0,0.0,0.0,0.0,0.0,0.0,0.0,0.0,0.0,0.0,0.0,0.0,0.0,0.0,0.0,0.0,0.0,0.0,0.0,0.0,0.0,0.0,0.0,0.0,0.0,0.0,0.0,0.0,0.0,0.0,0.0,0.0,0.0,0.0,0.0,0.0,0.0,0.0,0.0,0.0,0.0,0.0,0.0,0.0,0.0,0.0,0.0,0.0,0.0,0.0,0.0,0.0,0.0,0.0,0.0,0.0,0.0,0.0,0.0,0.0,0.0,0.0,0.0,0.0,0.0,0.0,0.0,0.0,0.0,0.0,0.0,0.0,0.0,0.0,0.0,0.0,0.0,0.0,0.0,0.0,0.0,0.0,0.0,0.0,0.0,0.0,0.0,0.0,0.0,0.0,0.0,0.0,0.0,0.0,0.0,0.0,0.0,0.0,0.0,0.0,0.0,0.0,0.0,0.0,0.0,0.0,0.0,0.0,0.0,0.0,0.0,0.0,0.0,0.0,0.0,0.0,0.0,0.0,0.0,0.0,0.0,0.0,0.0,0.0,0.0,0.0,0.0,0.0,0.0,0.0,0.0,0.0,0.0,0.0,0.0,0.0,0.0,0.0,0.0,0.0,0.0,0.0,0.0,0.0,0.0,0.0,0.0,0.0,0.0,0.0,0.0,0.0,0.0,0.0,0.0,0.0,0.0,0.0,0.0,0.0,0.0,0.0,0.0,0.0,0.0,0.0,0.0,0.0,0.0,0.0,0.0,0.0,0.0,0.0,0.0,0.0,0.0,0.0,0.0,0.0,0.0,0.0,0.0,0.0,0.0,0.0,0.0,0.0,0.0,0.0,0.0,0.0,0.0,0.0,0.0,0.0,0.0,0.0,0.0,0.0,0.0,0.0,0.0,0.0,0.0,0.0,0.0,0.0,0.0,0.0,0.0,0.0,0.0,0.0,0.0,0.0,0.0,0.0,0.0,0.0,0.0,0.0,0.0,0.0,0.0,0.0,0.0,0.0,0.0,0.0,0.0,0.0,0.0,0.0,0.0,0.0,0.0,0.0,0.0,0.0,0.0,0.0,0.0,0.0,0.0,0.0,0.0,0.0,0.0,0.0,0.0,0.0,0.0,0.0,0.0,0.0,0.0,0.0,0.0,0.0,0.0,0.0,0.0,0.0,0.0,0.0,0.0,0.0,0.0,0.0,0.0,0.0,0.0,0.0,0.0,0.0,0.0,0.0,0.0,0.0,0.0,0.0,0.0,0.0,0.0,0.0,0.0,0.0,0.0,0.0,0.0,0.0,0.0,0.0,0.0,0.0,0.0,0.0,0.0,0.0,0.0,0.0,0.0,0.0,0.0,0.0,0.0,0.0,0.0,0.0,0.0,0.0,0.0,0.0,0.0,0.0,0.0,0.0,0.0,0.0,0.0,0.0,0.0,0.0,0.0,0.0,0.0,0.0,0.0,0.0,0.0,0.0,0.0,0.0,0.0,0.0,0.0,0.0,0.0,0.0,0.0,0.0,0.0,0.0,0.0,0.0,0.0,0.0,0.0,0.0,0.0,0.0,0.0,0.0,0.0,0.0,0.0,0.0,0.0,0.0,0.0,0.0,0.0,0.0,0.0,0.0,0.0,0.0,0.0,0.0,0.0,0.0,0.0,0.0,0.0,0.0,0.0,0.0,0.0,0.0,0.0,0.0,0.0,0.0,0.0,0.0,0.0,0.0,0.0,0.0,0.0,0.0,0.0,0.0,0.0,0.0,0.0,0.0,0.0,0.0,0.0,0.0,0.0,0.0,0.0,0.0,0.0,0.0,0.0,0.0,0.0,0.0,0.0,0.0,0.0,0.0,0.0,0.0,0.0,0.0,0.0,0.0,0.0,0.0,0.0,0.0,0.0,0.0,0.0,0.0,0.0,0.0,0.0,0.0,0.0,0.0,0.0,0.0,0.0,0.0,0.0,0.0,0.0,0.0,0.0,0.0,0.0,0.0,0.0,0.0,0.0,0.0,0.0,0.0,0.0,0.0,0.0,0.0,0.0,0.0,0.0,0.0,0.0,0.0,0.0,0.0,0.0,0.0,0.0,0.0,0.0,0.0,0.0,0.0,0.0,0.0,0.0,0.0,0.0,0.0,0.0,0.0,0.0,0.0,0.0,0.0,0.0,0.0,0.0,0.0,0.0,0.0,0.0,0.0,0.0,0.0,0.0,0.0,0.0,0.0,0.0,0.0,0.0,0.0,0.0,0.0,0.0,0.0,0.0,0.0,0.0,0.0,0.0,0.0,0.0,0.0,-0.6566,-0.6076,0.0,0.0,0.0,0.0,0.0,0.0,0.0,0.0,0.0,0.0,0.0,0.0,0.0,0.0,0.0,0.0,0.0,0.0,0.0,0.0,0.0,0.0,0.0,0.0,0.0,0.0,0.0,0.0,0.0,0.0,0.0,0.0,0.0,0.0,0.0,0.0,0.0,0.0,-0.3332,-0.3877,-0.4991,-0.5283,-0.556,-0.5811,0.0,0.0,0.0,0.0,0.0,0.0,0.0,0.0,0.0,0.0,0.0,0.0,0.0,0.0,0.0,0.0,0.0,0.0,0.0,0.0,0.0,0.0,0.0,0.0,0.0,0.0,0.0,0.0,0.0,0.0,0.0,0.0,0.0,0.0,0.0,0.0,0.0,0.0,0.0,0.0,0.0,0.0,0.0,0.0,0.0,0.0,0.0,0.0,0.0,0.0,0.0,0.0,0.0,0.0,0.0,0.0,0.0,0.0,0.0,0.0,0.0,0.0,0.0,0.0,0.0,0.0,0.0,0.0,0.0,0.0,-0.7616,-0.7285,0.0,0.0,0.0,0.0,0.0,0.0,0.0,0.0,0.0,0.0,0.0,0.0,0.0,0.0,0.0,0.0,0.0,0.0,0.0,0.0,0.0,0.0,0.0,-0.3671,-0.3694,-0.3947,-0.3648,-0.3533,0.0,0.0,0.0,0.0,0.0,0.0,0.0,-0.3377,-0.3475,-0.4096,-0.415,-0.5098,-0.6871,-0.799,-0.8557,-0.8569,-0.7691,0.0,0.0,0.0,0.0,0.0,0.0,0.0,0.0,0.0,0.0,0.0,0.0,0.0,0.0,0.0,0.0,0.0,0.0,0.0,0.0,0.0,0.0,0.0,0.0,0.0,0.0,0.0,0.0,0.0,0.0,0.0,0.0,0.0,0.0,0.0,0.0,0.0,0.0,0.0,0.0,0.0,0.0,0.0,0.0,0.0,0.0,0.0,0.0,0.0,0.0,0.0,0.0,0.0,0.0,0.0,0.0,0.0,0.0,0.0,0.0,0.0,0.0,0.0,-0.8528,-0.8442,-0.8198,-0.8594,-0.8858,-0.893,-0.8648,-0.8475,-0.8322,-0.7423,0.0,0.0,0.0,0.0,0.0,0.0,0.0,0.0,0.0,0.0,0.0,0.0,0.0,0.0,0.0,0.0,0.0,0.0,0.0,0.0,0.0,-0.4067,-0.3965,-0.3831,-0.3729,-0.3742,-0.3938,0.0,0.0,0.0,0.0,0.0,-0.4031,-0.3445,-0.354,-0.4438,-0.6088,-0.7471,-0.8622,-1.0215,-1.099,-1.103,-0.8662,-0.7693,-0.7744,0.0,0.0,0.0,0.0,0.0,0.0,0.0,0.0,0.0,0.0,0.0,0.0,0.0,0.0,0.0,0.0,0.0,0.0,0.0,0.0,0.0,0.0,0.0,0.0,0.0,0.0,0.0,0.0,0.0,0.0,0.0,0.0,0.0,0.0,0.0,0.0,0.0,0.0,0.0,0.0,0.0,-0.4268,-0.4709,0.0,0.0,0.0,0.0,0.0,0.0,0.0,0.0,0.0,0.0,0.0,0.0,0.0,-0.8234,-0.9014,-0.98,-1.0219,-1.0329,-1.0736,-1.1096,-1.1283,-1.1207,-1.1236,-1.1394,-1.0895,0.0,-0.8791,-0.8541,0.0,0.0,0.0,0.0,0.0,0.0,0.0,0.0,0.0,0.0,0.0,0.0,0.0,0.0,0.0,0.0,0.0,0.0,0.0,0.0,0.0,-0.5549,-0.5768,-0.6124,-0.6367,-0.618,-0.539,-0.5233,0.0,0.0,0.0,-0.3516,-0.415,-0.3942,-0.4589,-0.6146,-0.808,-0.9527,-1.0429,-1.1188,-1.1801,-1.2134,-1.0605,-0.9606,-0.91,-0.8436,0.0,0.0,0.0,0.0,0.0,0.0,0.0,0.0,0.0,0.0,0.0,0.0,0.0,0.0,0.0,0.0,0.0,0.0,0.0,0.0,0.0,0.0,0.0,0.0,0.0,0.0,0.0,0.0,0.0,0.0,0.0,0.0,0.0,0.0,0.0,0.0,0.0,0.0,0.0,-0.4249,-0.4654,-0.4998,-0.5145,-0.5239,0.0,0.0,0.0,0.0,0.0,0.0,0.0,0.0,0.0,-0.883,-0.9223,-0.9702,-1.0322,-1.0986,-1.1332,-1.1322,-1.1638,-1.1824,-1.1844,-1.1747,-1.179,-1.192,-1.1719,-1.1224,-1.0577,-0.9545,-0.9151,-0.9085,0.0,0.0,0.0,0.0,-0.7702,-0.7156,0.0,0.0,0.0,0.0,0.0,0.0,0.0,0.0,0.0,0.0,0.0,0.0,-0.659,-0.6881,-0.7328,-0.8038,-0.8365,-0.8033,-0.6827,-0.6313,-0.5704,0.0,0.0,-0.3611,-0.4273,-0.4752,-0.5875,-0.7722,-0.9466,-1.0748,-1.1528,-1.1869,-1.227,-1.2657,-1.2212,-1.145,-1.0447,-0.9743,-0.8799,-0.7689,0.0,0.0,0.0,0.0,0.0,0.0,0.0,0.0,0.0,0.0,0.0,0.0,0.0,0.0,0.0,0.0,0.0,0.0,0.0,0.0,0.0,0.0,0.0,0.0,0.0,0.0,0.0,0.0,0.0,0.0,0.0,0.0,0.0,0.0,0.0,0.0,0.0,-0.464,-0.5119,-0.5497,-0.578,-0.6058,0.0,0.0,0.0,0.0,0.0,0.0,-0.891,-0.9457,-0.9963,-1.0463,-1.0766,-1.1137,-1.1588,-1.2091,-1.2252,-1.2163,-1.2375,-1.243,-1.2252,-1.2252,-1.2341,-1.243,-1.2274,-1.224,-1.2226,-1.0656,-1.0206,-1.0413,-0.967,-0.9044,-0.8677,-0.941,-0.9154,-0.8609,0.0,0.0,0.0,0.0,0.0,0.0,0.0,0.0,0.0,0.0,0.0,-0.6274,-0.732,-0.7559,-0.7854,-0.8344,-0.8154,-0.7948,-0.7739,-0.6772,-0.6046,-0.5755,-0.471,-0.4248,-0.4466,-0.5862,-0.7249,-0.8636,-0.9806,-1.07,-1.1338,-1.2384,-1.2811,-1.2695,-1.3041,-1.2635,-1.1546,-1.0298,-0.963,-0.9226,-0.7449,0.0,0.0,0.0,0.0,0.0,0.0,0.0,0.0,0.0,0.0,0.0,0.0,0.0,0.0,0.0,0.0,0.0,0.0,0.0,0.0,0.0,0.0,0.0,0.0,0.0,0.0,0.0,0.0,0.0,0.0,0.0,0.0,0.0,0.0,0.0,0.0,0.0,0.0,-0.6363,-0.6568,0.0,0.0,0.0,0.0,-0.8152,-0.884,-0.9461,-1.0062,-1.0668,-1.129,-1.1962,-1.2073,-1.2371,-1.2908,-1.3052,-1.3148,-1.3148,-1.3396,-1.3501,-1.3501,-1.3501,-1.3595,-1.3669,-1.3057,-1.2971,-1.3229,-1.198,-1.1417,-1.1305,-1.0997,-1.0827,-1.0746,-1.0668,-1.0615,-1.0535,0.0,0.0,0.0,0.0,0.0,0.0,0.0,0.0,-0.3905,-0.3858,-0.5722,-0.7297,-0.7955,-0.933,-1.0457,-1.105,-1.096,-1.0424,-0.9288,-0.8079,-0.7087,-0.6331,-0.536,-0.5315,-0.633,-0.7512,-0.8701,-0.9855,-1.0789,-1.1799,-1.2821,-1.2847,-1.3146,-1.3727,-1.3613,-1.3385,-1.3014,-1.1704,-1.0935,-1.047,-0.9111,-0.7941,0.0,0.0,0.0,0.0,0.0,0.0,0.0,0.0,0.0,0.0,0.0,0.0,0.0,0.0,0.0,0.0,0.0,0.0,0.0,0.0,0.0,0.0,0.0,0.0,0.0,0.0,0.0,0.0,0.0,0.0,0.0,0.0,0.0,0.0,0.0,0.0,0.0,-0.7042,-0.7485,0.0,-0.787,-0.8335,-0.9025,-1.0094,-1.0329,-1.0889,-1.2024,-1.2035,-1.2196,-1.2665,-1.2797,-1.2962,-1.3228,-1.3573,-1.3621,-1.3467,-1.3716,-1.3978,-1.4153,-1.3851,-1.393,-1.4241,-1.3779,-1.357,-1.3494,-1.3073,-1.2579,-1.2073,-1.1893,-1.1433,-1.0944,-1.125,-1.1045,-1.0595,0.0,0.0,0.0,0.0,0.0,0.0,0.0,0.0,-0.3904,-0.3983,-0.6227,-0.8117,-0.8849,-1.0704,-1.2002,-1.2349,-1.231,-1.1659,-1.0257,-0.8885,-0.7757,-0.6957,-0.6059,-0.6239,-0.7668,-0.8505,-0.9591,-1.0857,-1.1361,-1.2292,-1.353,-1.3023,-1.3327,-1.4336,-1.391,-1.3981,-1.4318,-1.3138,-1.233,-1.1733,-1.0478,-0.9533,-0.8703,0.0,0.0,0.0,0.0,0.0,0.0,0.0,0.0,0.0,0.0,0.0,0.0,0.0,0.0,0.0,0.0,0.0,0.0,0.0,0.0,0.0,0.0,0.0,0.0,0.0,0.0,0.0,0.0,0.0,0.0,0.0,0.0,0.0,0.0,-0.6855,-0.762,-0.8066,-0.8539,-0.9055,-0.9449,-0.9723,-1.0335,-1.1549,-1.15,-1.1902,-1.296,-1.286,-1.292,-1.3361,-1.3498,-1.3716,-1.4016,-1.4331,-1.4429,-1.4272,-1.4318,-1.451,-1.4701,-1.4222,-1.418,-1.4505,-1.4185,-1.3952,-1.38,-1.3763,-1.3334,-1.2706,-1.2471,-1.1902,-1.1257,-1.163,-1.1402,-1.0899,0.0,0.0,0.0,0.0,0.0,0.0,0.0,-0.3443,-0.4355,-0.4895,-0.6811,-0.863,-1.0021,-1.1532,-1.2329,-1.207,-1.1837,-1.1371,-1.057,-0.9006,-0.7965,-0.7638,-0.6844,-0.7015,-0.8334,-0.883,-0.9912,-1.163,-1.1564,-1.2131,-1.3232,-1.2883,-1.3355,-1.4364,-1.3948,-1.4361,-1.5303,-1.4486,-1.3787,-1.3039,-1.1556,-1.0965,-1.0728,0.0,0.0,0.0,0.0,0.0,0.0,0.0,0.0,0.0,0.0,0.0,0.0,0.0,0.0,0.0,0.0,0.0,0.0,0.0,0.0,0.0,0.0,0.0,0.0,0.0,0.0,0.0,0.0,0.0,0.0,0.0,0.0,0.0,-0.7054,-0.7741,-0.8556,-0.9434,-0.9685,-1.0262,-1.1411,-1.1292,-1.1541,-1.2446,-1.2415,-1.2508,-1.292,-1.3113,-1.3547,-1.4154,-1.4264,-1.4622,-1.5226,-1.5309,-1.5464,-1.5588,-1.5263,-1.5094,-1.5083,-1.4602,-1.4488,-1.4603,-1.4337,-1.4222,-1.4176,-1.4057,-1.3668,-1.317,-1.2706,-1.2274,-1.1927,-1.1927,-1.1828,-1.1616,0.0,0.0,0.0,0.0,0.0,0.0,0.0,-0.2977,-0.3598,-0.4327,-0.6774,-0.8785,-0.9661,-1.1807,-1.3145,-1.2955,-1.2382,-1.157,-1.0588,-0.8958,-0.7991,-0.7877,-0.8598,-0.9318,-1.002,-1.0565,-1.1132,-1.1746,-1.2095,-1.2652,-1.3474,-1.3412,-1.3761,-1.4468,-1.4812,-1.5027,-1.5147,-1.5273,-1.5061,-1.4543,-1.3576,-1.2669,-1.1844,0.0,0.0,0.0,0.0,0.0,0.0,0.0,0.0,0.0,0.0,0.0,0.0,0.0,0.0,0.0,0.0,0.0,0.0,0.0,0.0,0.0,0.0,0.0,0.0,0.0,0.0,0.0,0.0,0.0,0.0,0.0,-0.8439,-0.8875,-0.8518,-0.8702,-0.9211,-0.9978,-1.0179,-1.0581,-1.1419,-1.1782,-1.2298,-1.3004,-1.3039,-1.3416,-1.4245,-1.4093,-1.4364,-1.5231,-1.4921,-1.5074,-1.5701,-1.5127,-1.4952,-1.5241,-1.5023,-1.4968,-1.5094,-1.4708,-1.4675,-1.4934,-1.4526,-1.4233,-1.4057,-1.4244,-1.3905,-1.3314,-1.3334,-1.29,-1.2332,-1.2431,-1.2126,-1.1616,0.0,0.0,0.0,0.0,0.0,0.0,0.0,-0.2942,-0.3572,-0.4463,-0.6865,-0.8859,-0.9795,-1.1738,-1.292,-1.2772,-1.1845,-1.0904,-1.0132,-0.8744,-0.8139,-0.8571,-0.927,-1.0016,-1.0758,-1.1177,-1.161,-1.2061,-1.2398,-1.3059,-1.3898,-1.3841,-1.4243,-1.5004,-1.5421,-1.5609,-1.5754,-1.6056,-1.6027,-1.5696,-1.5323,-1.4487,-1.3513,-1.2887,-1.236,-1.1886,-1.1454,-1.1157,-1.0967,-1.0781,0.0,0.0,0.0,0.0,0.0,0.0,0.0,0.0,0.0,0.0,0.0,0.0,0.0,0.0,0.0,0.0,0.0,0.0,0.0,0.0,0.0,0.0,0.0,0.0,-0.9391,-0.9891,-1.0015,-1.012,-1.0363,-1.0864,-1.1064,-1.1457,-1.2324,-1.2494,-1.2755,-1.3365,-1.3304,-1.3581,-1.4246,-1.4169,-1.4479,-1.5336,-1.5038,-1.5224,-1.5968,-1.5466,-1.5322,-1.5549,-1.5255,-1.5166,-1.5229,-1.4849,-1.4782,-1.4942,-1.4702,-1.4441,-1.4255,-1.443,-1.4186,-1.3695,0.0,0.0,0.0,0.0,-1.226,-1.1716,0.0,0.0,0.0,0.0,0.0,0.0,0.0,-0.3138,-0.393,-0.4972,-0.6966,-0.879,-1.0028,-1.1299,-1.2034,-1.1897,-1.0814,-0.9985,-0.9482,-0.8589,-0.8488,-0.9453,-0.9447,-0.9962,-1.1021,-1.1267,-1.18,-1.2536,-1.2684,-1.3341,-1.4318,-1.4246,-1.4693,-1.552,-1.575,-1.6104,-1.6597,-1.6709,-1.6728,-1.6602,-1.6728,-1.6254,-1.5293,-1.4308,-1.4345,-1.489,-1.4026,-1.3493,-1.3087,-1.2697,0.0,0.0,0.0,0.0,0.0,0.0,0.0,0.0,0.0,0.0,0.0,0.0,0.0,0.0,0.0,0.0,0.0,0.0,0.0,0.0,0.0,0.0,0.0,0.0,-1.0043,-1.0553,-1.1503,-1.1736,-1.1825,-1.1792,-1.2022,-1.2539,-1.3507,-1.3175,-1.3176,-1.3643,-1.3481,-1.3463,-1.3765,-1.3868,0.0,0.0,0.0,-1.5345,-1.6136,-1.5981,-1.6009,-1.6221,-1.571,-1.544,-1.5429,-1.5013,-1.4822,-1.4822,-1.4776,-1.473,-1.4581,-1.4581,-1.4477,-1.4176,-1.3658,-1.3314,-1.3016,-1.2647,-1.2368,-1.2051,0.0,0.0,0.0,0.0,0.0,0.0,0.0,-0.2996,-0.3774,-0.4952,-0.6599,-0.8096,-0.9205,-1.0479,-1.1224,-1.1182,-1.0826,-1.0202,-0.931,-0.9056,-0.9248,-0.9924,-1.0676,-1.138,-1.2031,-1.2067,-1.2512,-1.3284,-1.332,-1.3765,-1.4656,-1.4768,-1.4932,-1.5162,-1.5727,-1.5991,-1.6036,-1.6947,-1.7159,-1.6908,-1.7232,-1.6921,-1.6258,-1.5866,-1.5999,-1.6334,-1.5518,-1.5722,-1.6367,-1.5743,-1.5174,-1.467,-1.4071,-1.2698,0.0,0.0,0.0,0.0,0.0,0.0,0.0,0.0,0.0,0.0,0.0,0.0,0.0,0.0,0.0,0.0,0.0,0.0,0.0,-1.1509,-1.2269,-1.2772,-1.2719,-1.3024,-1.2902,-1.1993,-1.2078,-1.2529,-1.3259,-1.3389,-1.3737,-1.4656,-1.4368,-1.4424,-1.5004,-1.4924,-1.5181,-1.5925,-1.546,-1.5781,-1.6983,-1.5714,-1.5511,-1.635,-1.5552,0.0,-1.5154,-1.496,-1.4869,-1.4869,-1.4708,-1.4627,-1.4581,-1.4581,-1.4523,-1.4326,-1.3905,-1.3668,-1.3621,-1.317,-1.3072,-1.304,0.0,0.0,0.0,0.0,0.0,0.0,0.0,-0.3068,-0.3794,-0.4733,-0.6049,-0.732,-0.8378,-0.907,-0.9521,-0.9692,-0.9566,-0.9211,-0.8542,-0.8902,-0.956,-1.044,-1.0939,-1.1584,-1.2363,-1.2382,-1.2836,-1.3711,-1.3702,-1.4174,-1.5059,-1.5254,-1.5439,-1.5652,-1.6323,-1.67,-1.6738,-1.7759,-1.8015,-1.7755,-1.8015,-1.8015,-1.7695,-1.7002,-1.6909,-1.7101,-1.6615,-1.6658,-1.6891,-1.6455,-1.6078,-1.5716,-1.5263,-1.4236,-1.3034,0.0,0.0,0.0,0.0,0.0,0.0,0.0,0.0,0.0,0.0,0.0,0.0,0.0,0.0,-1.0004,0.0,0.0,-1.1404,-1.2269,-1.272,-1.2968,-1.3061,-1.3416,-1.3393,-1.2763,-1.2908,-1.325,-1.383,-1.4105,-1.4506,-1.5039,-1.4687,-1.4697,-1.5322,-1.5176,-1.541,-1.6037,-1.5901,-1.6124,-1.6635,-1.6107,-1.598,-1.6233,-1.6147,-1.6114,-1.6114,-1.602,-1.5822,-1.5591,-1.5405,-1.5175,-1.4846,-1.4719,-1.4673,-1.4581,-1.4291,-1.4057,-1.3868,-1.3621,-1.3381,-1.314,0.0,0.0,0.0,0.0,0.0,0.0,0.0,-0.3088,-0.3773,-0.4524,-0.54,-0.6377,-0.7417,-0.7537,-0.7719,-0.8198,-0.833,-0.8354,-0.821,-0.8912,-0.9833,-1.1019,-1.103,-1.1463,-1.2461,-1.2556,-1.3065,-1.397,-1.4057,-1.4538,-1.5478,-1.5662,-1.5909,-1.6258,-1.687,-1.7252,-1.769,-1.8298,-1.8588,-1.8542,-1.8649,-1.8806,-1.8788,-1.7655,-1.7486,-1.7795,-1.7345,-1.6931,-1.6678,-1.6558,-1.6305,-1.6053,-1.6011,-1.5556,-1.4738,-1.3454,-1.2592,0.0,0.0,0.0,0.0,0.0,0.0,0.0,0.0,0.0,-1.0028,-1.1135,-1.141,-1.1626,-1.2113,-1.2107,-1.2261,-1.2961,-1.2949,-1.309,-1.3602,-1.3744,-1.3862,-1.392,-1.3974,-1.41,-1.4542,-1.4864,-1.5182,-1.5458,-1.4972,-1.4935,-1.5554,-1.535,-1.543,-1.6003,-1.6306,-1.6425,-1.6369,-1.6709,-1.6709,-1.6454,-1.6891,-1.7105,-1.7142,-1.7036,-1.6716,-1.6315,-1.6057,-1.5684,-1.5108,-1.4994,-1.4914,-1.4868,-1.4765,-1.4488,-1.4104,-1.3962,-1.3626,-1.3219,0.0,0.0,0.0,0.0,0.0,0.0,0.0,0.0,-0.3524,-0.4543,-0.4741,-0.5143,-0.6108,-0.6266,-0.665,-0.7523,-0.8293,-0.8989,-0.9544,-0.996,-1.0603,-1.1575,-1.1509,-1.1722,-1.2314,-1.278,-1.3413,-1.416,-1.4531,-1.5074,-1.5856,-1.5884,-1.5961,-1.6128,-1.6477,-1.7033,-1.7678,-1.7832,-1.8161,-1.8562,-1.8458,-1.8371,-1.8267,-1.7677,-1.7943,-1.8501,-1.7419,-1.7207,-1.7343,-1.7214,-1.69,-1.6633,-1.728,-1.6666,-1.5594,-1.4665,0.0,-1.213,-1.1509,-1.1129,-1.1125,-1.2059,-1.158,-1.1546,0.0,0.0,-1.2734,-1.3339,-1.3632,-1.3611,-1.3156,-1.3575,-1.4078,-1.4273,-1.4526,-1.4852,-1.5266,-1.4974,-1.4897,-1.5479,-1.479,-1.4392,-1.4729,-1.5019,-1.552,-1.636,-1.5653,-1.5648,-1.6561,-1.5875,-1.5733,-1.631,-1.6562,-1.6892,-1.7426,-1.7193,-1.7331,-1.7799,-1.7331,-1.7191,-1.7351,-1.6729,-1.6432,-1.6349,-1.5796,-1.5437,-1.5312,-1.539,-1.5345,-1.5222,-1.5119,-1.488,-1.4569,-1.4269,-1.4201,-1.4204,0.0,0.0,0.0,0.0,0.0,0.0,0.0,0.0,0.0,-0.3715,-0.4015,-0.4344,-0.4733,-0.5076,-0.5663,-0.6614,-0.781,-0.865,-0.9034,-1.0319,-1.1234,-1.1637,-1.2034,-1.2412,-1.2677,-1.3018,-1.3421,-1.4029,-1.4198,-1.4687,-1.5468,-1.5403,-1.578,-1.6524,-1.657,-1.7084,-1.7934,-1.824,-1.844,-1.858,-1.8653,-1.8463,-1.8099,-1.7507,-1.7456,-1.7489,-1.6648,-1.6129,0.0,-1.5928,-1.587,-1.5816,-1.6235,-1.5924,-1.5311,-1.4682,-1.4131,0.0,-1.4003,-1.3481,-1.3114,0.0,-1.3939,-1.3893,-1.4697,-1.4594,-1.4473,-1.4623,-1.4834,-1.4889,-1.4481,-1.4614,-1.4906,0.0,-1.5122,-1.5231,-1.5894,-1.5537,-1.5341,-1.5822,-1.5487,-1.5271,-1.5405,-1.5776,-1.6155,-1.6392,-1.6295,-1.6269,-1.6575,-1.6616,-1.6791,-1.719,-1.7669,-1.7953,-1.795,-1.8187,-1.8289,-1.8307,-1.8403,-1.8491,-1.8529,-1.8248,-1.7751,-1.7062,-1.6061,-1.557,-1.5537,-1.5525,-1.5468,-1.5379,-1.5255,-1.5119,-1.488,-1.4466,-1.4326,-1.4233,0.0,0.0,0.0,0.0,0.0,0.0,0.0,0.0,0.0,0.0,-0.3347,-0.3668,-0.4011,-0.4312,-0.4906,-0.5899,-0.7258,-0.8199,-0.8549,-1.0297,-1.1491,-1.1841,-1.2403,-1.2822,-1.3054,-1.328,-1.356,-1.3942,-1.4013,-1.4461,-1.5164,-1.506,-1.5572,-1.6616,-1.6616,-1.7194,-1.8119,-1.8206,-1.8416,-1.8555,-1.8298,-1.8056,-1.7812,-1.6994,-1.6519,-1.6162,-1.5763,-1.5201,-1.4682,-1.4713,-1.4712,-1.4799,-1.507,-1.5083,-1.4927,-1.4576,-1.454,-1.4669,-1.5184,0.0,0.0,-1.543,-1.5686,-1.5742,-1.5527,-1.5597,-1.5723,-1.5773,-1.5815,-1.5824,-1.5486,-1.5411,-1.5487,-1.5788,-1.5457,-1.5468,-1.6307,-1.5989,-1.5808,-1.6161,-1.6185,-1.6114,-1.6077,-1.641,-1.6613,-1.6558,-1.673,-1.6871,-1.6883,-1.7243,-1.7647,-1.8059,-1.8543,-1.866,-1.8422,-1.8952,-1.9068,-1.8741,-1.9184,-1.942,-1.946,-1.9312,-1.8671,-1.7629,-1.6541,-1.602,-1.5996,-1.5751,-1.5647,-1.5635,-1.548,-1.5345,-1.5153,-1.4686,-1.4419,-1.4222,0.0,0.0,0.0,0.0,0.0,0.0,0.0,0.0,0.0,0.0,0.0,0.0,0.0,-0.4159,-0.4482,-0.5609,-0.6764,-0.7776,-0.8654,-0.9904,-1.1227,-1.2494,-1.2463,-1.2672,-1.316,-1.364,-1.3922,-1.4093,-1.4335,-1.4661,-1.4997,-1.4997,-1.5405,-1.6126,-1.6461,-1.7214,-1.8165,-1.7431,-1.7741,-1.8498,-1.7062,-1.6797,-1.7185,-1.5919,-1.5305,-1.5016,-1.4974,-1.4773,-1.4556,-1.4157,-1.3939,-1.3939,-1.447,-1.4649,-1.473,-1.4708,-1.4477,-1.4161,-1.3989,-1.4534,-1.531,-1.6012,-1.6333,-1.6647,-1.7184,-1.6864,-1.6507,-1.6807,-1.6615,-1.6258,-1.5846,-1.5901,-1.5887,-1.5761,-1.5682,-1.5948,-1.6666,-1.6537,-1.6539,-1.6915,-1.6864,-1.6694,-1.6581,-1.6694,-1.692,-1.7256,-1.7079,-1.7322,-1.8015,-1.778,-1.7955,-1.8762,-1.8786,-1.8839,-1.8963,-1.9105,-1.9263,-1.9396,-1.9408,-1.9473,-1.9592,-1.907,-1.8511,-1.7952,-1.7254,-1.6883,-1.673,-1.6207,-1.5988,-1.5957,-1.5836,-1.5647,-1.5424,-1.504,-1.4686,-1.4373,0.0,0.0,0.0,0.0,0.0,0.0,0.0,0.0,0.0,0.0,0.0,0.0,0.0,0.0,0.0,0.0,-0.6573,-0.7473,-0.8127,-0.9734,-1.0962,-1.165,-1.2678,-1.3281,-1.3328,-1.3356,-1.3393,-1.344,-1.3119,-1.3351,-1.3973,-1.3926,-1.4435,-1.5434,-1.5625,-1.6369,-1.7366,-1.7019,-1.7278,-1.7848,-1.6749,-1.6266,-1.6127,-1.5672,-1.4801,-1.3709,0.0,-1.3249,-1.2865,-1.3172,-1.294,-1.2653,-1.3426,-1.3544,-1.3576,-1.4147,-1.472,-1.5363,-1.6044,-1.6375,-1.6749,-1.7761,-1.7947,-1.7893,-1.8063,-1.7931,-1.7724,-1.7224,-1.6816,-1.636,-1.59,-1.5822,-1.5948,-1.6192,-1.6181,-1.6632,-1.786,-1.7573,-1.7339,-1.7722,-1.7604,-1.7388,-1.7222,-1.6852,-1.6613,-1.6623,-1.6955,-1.7262,-1.7486,-1.8007,-1.849,-1.8946,-1.9105,-1.9263,-1.9408,-1.9512,-1.9604,-1.9656,-1.9656,-1.972,-1.985,-1.8771,-1.8495,-1.8862,-1.7579,-1.7288,-1.7654,-1.688,-1.6523,-1.6487,-1.6013,-1.5614,-1.5392,-1.5672,-1.5508,-1.5048,0.0,0.0,0.0,0.0,0.0,0.0,0.0,0.0,0.0,0.0,0.0,0.0,0.0,0.0,0.0,0.0,0.0,-0.6893,-0.7431,-0.8981,-1.0121,-1.0695,-1.1729,-1.2427,-1.2751,-1.2222,-1.213,-1.2542,-1.188,-1.1983,-1.2731,-1.2808,-1.3486,-1.4639,-1.4769,-1.5594,-1.6791,-1.6284,-1.6512,-1.7138,-1.5806,-1.5231,-1.5095,-1.4429,-1.3548,0.0,-1.2269,-1.178,-1.1377,-1.1992,-1.1941,-1.1852,-1.2704,-1.3275,-1.3735,-1.4245,-1.506,-1.6042,-1.707,-1.732,-1.7571,-1.8646,-1.8902,-1.8835,-1.876,-1.8736,-1.8471,-1.7678,-1.7076,-1.6566,-1.6024,-1.5689,-1.5685,-1.6231,-1.6409,-1.6911,-1.8208,-1.7986,-1.7915,-1.8441,-1.8203,-1.8049,-1.8124,-1.7446,-1.6938,-1.6906,-1.7337,-1.7668,-1.7774,-1.8384,-1.8881,-1.9198,-1.9263,-1.942,-1.9656,-1.9708,-1.9759,-1.9798,-1.9914,-1.9978,-1.9965,-1.9145,-1.9105,-1.9594,-1.8282,-1.7999,-1.8405,-1.7585,-1.7113,-1.6812,-1.6336,-1.587,-1.5506,-1.587,-1.577,-1.546,0.0,0.0,0.0,0.0,0.0,0.0,0.0,0.0,0.0,0.0,0.0,0.0,0.0,0.0,0.0,0.0,0.0,0.0,-0.6603,-0.7671,-0.8701,-0.9659,-0.969,-1.0248,-1.1487,-1.0403,-1.0347,-1.1472,-1.0798,-1.0784,-1.1394,-1.1882,-1.265,-1.374,-1.3893,-1.4869,-1.6371,-1.5178,-1.5381,-1.6236,-1.4185,-1.3722,-1.4104,-1.2306,-1.1711,-1.1736,-1.1066,-1.0569,-1.0279,-1.0788,-1.1216,-1.1617,-1.2449,-1.3834,-1.5142,-1.504,-1.553,-1.6284,-1.7049,-1.7456,-1.7824,-1.8731,-1.9124,-1.9341,-1.932,-1.9156,-1.8858,-1.8158,-1.741,-1.6688,0.0,0.0,-1.5206,-1.5827,-1.6311,-1.692,-1.7781,-1.801,-1.8291,0.0,0.0,0.0,0.0,0.0,-1.7954,-1.8032,-1.8247,-1.8506,-1.8798,-1.8946,-1.9198,-1.9617,-1.9368,-1.942,-1.9811,-1.9656,-1.9668,-1.9849,-2.0118,-2.0182,-2.0041,-2.0144,-2.0182,-2.0144,-1.9321,-1.8995,-1.8982,-1.8346,-1.7656,-1.7036,-1.6849,-1.6351,-1.5721,-1.5669,-1.5623,-1.5628,0.0,0.0,0.0,0.0,0.0,0.0,0.0,0.0,0.0,0.0,0.0,0.0,0.0,0.0,0.0,0.0,0.0,0.0,-0.5855,-0.6478,-0.7317,-0.8415,-0.9071,-0.9776,-1.0543,-1.0223,-1.0354,-1.1061,-1.0485,-1.053,-1.1107,-1.1616,-1.2207,-1.2825,-1.3026,-1.3527,-1.425,-1.347,-1.3507,-1.3982,-1.2878,-1.2555,-1.2731,-1.2324,-1.1671,-1.0964,-1.1155,-1.0804,0.0,0.0,0.0,0.0,0.0,-1.5203,-1.6183,-1.6079,-1.6895,-1.7859,-1.7852,-1.8585,-1.9326,-1.9394,-1.9576,-1.9651,-1.9233,-1.8765,-1.8059,-1.689,-1.5802,-1.4924,0.0,0.0,0.0,-1.5769,-1.6472,0.0,-1.8795,-1.8966,0.0,-1.9584,0.0,-2.012,-1.9936,-1.924,-1.902,-1.9597,-1.8503,-1.8078,-1.8774,-1.8946,-1.9198,-1.9617,-1.9512,-1.9617,-1.9926,-1.9939,-2.0089,-2.0492,-2.0557,-2.0623,-2.0676,-2.0116,-2.0016,-2.0156,-1.9346,-1.9296,-1.9674,-1.8921,-1.8178,-1.7482,-1.6914,-1.6441,-1.6033,-1.6244,-1.6407,-1.6584,0.0,0.0,0.0,0.0,0.0,0.0,0.0,0.0,0.0,0.0,0.0,0.0,0.0,0.0,0.0,0.0,0.0,0.0,0.0,-0.5276,-0.5941,-0.6992,-0.725,-0.7885,-0.8996,-0.8496,-0.8629,-0.9444,-0.8867,-0.9046,-0.9909,-1.0142,-1.0695,-1.1434,-1.1572,-1.1943,-1.2457,-1.2161,-1.2179,0.0,0.0,-1.1449,-1.1474,-1.134,-1.0865,-1.0299,-1.0634,0.0,0.0,0.0,0.0,-1.5531,-1.6034,-1.6869,-1.7712,-1.7967,0.0,-1.8893,-1.878,-1.902,-1.9302,-1.9282,-1.9361,-1.9258,-1.8561,-1.8094,-1.7331,-1.5635,-1.4765,-1.4068,-1.3125,-1.3811,-1.4747,0.0,0.0,0.0,-1.8939,-1.9317,-1.9723,0.0,-2.0404,0.0,-2.1045,-2.0452,-2.0251,-2.0747,-1.9195,-1.8531,-1.9282,-1.9238,-1.9356,-1.9656,-1.9604,-1.9833,-2.0305,-2.0663,-2.0889,-2.1029,-2.1192,-2.1132,-2.0904,-2.0654,-2.0412,-2.0156,-1.9799,-1.975,-1.985,-1.9383,-1.8684,-1.7971,-1.746,-1.693,-1.6511,-1.6784,-1.687,-1.6953,0.0,0.0,0.0,0.0,0.0,0.0,0.0,0.0,0.0,0.0,0.0,0.0,0.0,0.0,0.0,0.0,0.0,0.0,0.0,0.0,0.0,-0.5598,-0.5164,-0.5625,-0.7166,-0.6276,-0.6405,-0.76,-0.7076,-0.7439,-0.8616,-0.8562,-0.9127,-1.0137,-1.0137,-1.0516,-1.1089,-1.1003,-1.1109,-1.1236,-1.0663,-1.0476,-1.0516,0.0,-0.9905,-0.9905,0.0,0.0,0.0,0.0,-1.5799,-1.6692,-1.7661,-1.857,-1.9364,-1.9878,-1.9763,-1.9518,-1.9541,-1.9195,-1.8896,-1.8988,-1.9015,-1.8744,-1.7812,-1.7335,-1.6535,-1.4471,0.0,-1.3604,-1.2499,-1.3269,-1.4291,-1.5055,0.0,-1.8351,-1.8725,-1.9379,-2.0123,-2.0877,-2.0488,-2.0772,-2.2151,-2.1632,-2.1391,-2.1775,-2.0292,-1.9546,-2.0055,-1.9748,-1.9676,-1.9963,-1.9947,-2.0223,-2.0819,-2.153,-2.1809,-2.1662,-2.1898,-2.1661,-2.1072,-2.1509,-2.1121,-2.0233,-2.0398,-2.0233,-1.9811,-1.9656,-1.9128,-1.8396,-1.813,-1.7654,-1.7123,-1.718,-1.7111,-1.7042,0.0,0.0,0.0,0.0,0.0,0.0,0.0,0.0,0.0,0.0,-0.3653,-0.2957,0.0,0.0,0.0,0.0,0.0,0.0,0.0,0.0,0.0,0.0,-0.4844,-0.5111,-0.5591,-0.5781,-0.6445,-0.76,-0.7541,-0.811,-0.925,-0.9607,-1.0016,-1.0424,-1.0379,-1.0456,-1.0567,-0.9684,-0.9652,-1.0118,-0.9629,-0.9816,-1.0341,-1.0263,0.0,0.0,0.0,0.0,0.0,0.0,-1.7409,-1.8715,-1.8879,-1.9571,-2.0196,-1.9812,-1.9863,-1.9928,-1.939,-1.9817,-2.0163,-1.9535,-1.9495,-1.9367,-1.8258,-1.7062,0.0,0.0,-1.2949,-1.2287,-1.1337,-1.2355,-1.3828,-1.5423,-1.631,-1.744,-1.9414,-1.9552,-1.991,0.0,-2.0852,-2.1241,-2.2628,-2.1885,-2.1733,-2.2745,-2.1768,-2.0889,-2.0432,-2.0374,-2.042,-2.0714,-2.1212,-2.1504,-2.1551,-2.175,-2.2043,-2.2426,-2.2483,-2.2278,-2.1879,-2.2382,-2.1776,-2.0398,-2.0668,-2.0512,-1.9926,-1.972,-1.914,-1.8458,-1.8256,-1.7942,-1.7615,-1.7306,-1.7337,-1.7478,0.0,0.0,0.0,0.0,0.0,0.0,0.0,-0.4764,-0.4873,-0.6496,-0.6132,-0.5252,-0.4064,-0.362,-0.3299,0.0,0.0,0.0,0.0,0.0,0.0,0.0,0.0,0.0,-0.4931,-0.5412,-0.5889,-0.6414,0.0,-0.7688,-0.8573,-0.8834,-0.9199,-0.9609,-0.9647,-0.9404,-0.9016,-0.9366,-0.94,-0.9254,-0.9633,-0.9978,-1.0299,0.0,0.0,0.0,0.0,0.0,0.0,0.0,-1.6814,-1.8988,-1.9924,-2.0625,-2.1096,-2.0765,-2.0715,-2.0711,-2.0318,-2.0043,-1.9897,-1.9713,-1.9211,-1.8452,-1.7004,0.0,0.0,0.0,-1.1667,-1.1389,-1.0496,-1.1864,0.0,-1.4621,-1.5951,-1.7393,-1.879,-1.9166,0.0,-2.1083,-2.0787,-2.1153,-2.2832,-2.2293,-2.2088,-2.272,-2.2394,-2.1989,-2.1612,-2.1378,-2.131,-2.1297,-2.201,-2.236,-2.226,-2.2598,-2.2738,-2.2623,-2.2974,-2.27,-2.1924,-2.2683,-2.2321,-2.1117,-2.1386,-2.0967,-2.0104,-2.0051,-1.9584,-1.8846,-1.8626,-1.8458,-1.8353,-1.7836,-1.7673,-1.7656,0.0,0.0,0.0,0.0,0.0,0.0,0.0,-0.601,-0.6201,-0.8332,-0.8447,-0.7608,-0.567,-0.4594,-0.3774,0.0,0.0,0.0,0.0,0.0,0.0,0.0,0.0,0.0,0.0,0.0,0.0,-0.562,-0.6401,0.0,0.0,0.0,0.0,0.0,-0.9229,-0.8844,-0.8242,-0.9452,-0.959,0.0,0.0,-1.0245,0.0,0.0,0.0,0.0,0.0,0.0,0.0,0.0,-1.5522,-1.7731,-1.9703,-2.0849,-2.1431,-2.1317,-2.1205,-2.1112,-2.1101,-2.0296,-1.9608,-2.0068,-1.9112,-1.7733,-1.6208,-1.4984,0.0,-1.1058,-1.0831,-1.0829,-1.0006,-1.1372,-1.2906,0.0,-1.5473,-1.7051,-1.8061,-1.883,-1.9773,0.0,-2.0674,0.0,-2.2871,-2.2576,-2.2452,-2.2853,-2.2961,-2.2845,-2.2445,-2.2125,-2.1988,-2.198,-2.2667,-2.3032,-2.3032,-2.3341,-2.3282,-2.2872,-2.3295,-2.2975,-2.2116,-2.2976,-2.2739,-2.169,-2.197,-2.1352,-2.0209,-2.0329,-1.992,-1.9275,-1.9011,-1.8946,-1.8922,-1.8228,-1.7884,-1.7689,0.0,0.0,0.0,0.0,0.0,0.0,0.0,-0.5952,-0.6833,-0.9557,-0.9451,-0.8715,-0.7717,-0.6816,-0.556,0.0,0.0,0.0,0.0,0.0,0.0,0.0,0.0,0.0,0.0,0.0,0.0,-0.6661,-0.6702,0.0,0.0,0.0,0.0,0.0,0.0,-1.0045,-0.9953,-0.9687,0.0,0.0,0.0,0.0,0.0,0.0,0.0,0.0,0.0,0.0,0.0,0.0,0.0,-1.4245,-1.697,-1.916,-2.0563,-1.9959,0.0,0.0,-2.1002,-2.0759,-2.0515,-2.1197,-2.0095,-1.8598,-1.7545,0.0,-1.3517,-1.1734,-1.0941,-1.047,-1.0126,-1.0652,-1.1685,-1.3422,-1.4352,-1.566,-1.7956,-1.9013,-1.992,-2.0908,0.0,0.0,-2.2687,-2.2558,-2.2871,-2.4076,-2.3808,-2.3113,-2.2014,-2.1937,-2.221,-2.285,-2.3502,-2.3813,-2.3813,-2.3321,-2.3321,-2.3741,-2.3321,-2.3124,-2.3257,-2.3759,-2.3076,-2.1564,-2.1882,-2.1322,-2.0207,-1.9938,-1.9758,-1.9565,-1.942,-1.921,-1.8886,-1.8002,-1.7802,-1.7907,0.0,0.0,0.0,0.0,0.0,0.0,-0.7185,-0.6923,-0.7546,-1.0434,-1.0495,-0.9954,-0.9076,-0.7979,-0.6281,-0.3711,0.0,0.0,0.0,0.0,0.0,0.0,0.0,0.0,0.0,0.0,-0.5873,-0.6133,-0.7124,0.0,0.0,0.0,0.0,0.0,0.0,-0.9931,-0.9624,-0.9873,0.0,0.0,0.0,0.0,0.0,0.0,0.0,0.0,0.0,0.0,0.0,0.0,0.0,0.0,-1.4191,-1.5694,0.0,0.0,-1.9687,-2.0489,-2.1322,-2.1478,-2.148,-2.1699,-2.046,-1.8767,-1.7235,0.0,-1.3335,-1.155,-1.0763,-1.0244,-0.9809,-1.0274,-1.1088,-1.2197,-1.3134,0.0,-1.6088,-1.714,-1.8332,-1.9836,-2.0204,0.0,0.0,-2.2395,-2.2666,-2.336,-2.2897,-2.2711,-2.2968,-2.2871,-2.2864,-2.2998,-2.3288,-2.3363,-2.3149,-2.2776,-2.2607,-2.2447,-2.2607,-2.2518,-2.2258,-2.2971,-2.2852,-2.2061,-2.1904,-2.1367,-2.055,-2.0117,-1.9772,-1.9617,-1.9473,-1.9303,-1.9056,-1.8443,-1.8116,-1.7841,0.0,0.0,0.0,0.0,0.0,-0.5337,-0.7211,-0.732,-0.8095,-1.0596,-1.0922,-1.0681,-1.0018,-0.8575,-0.6595,-0.3987,-0.4159,0.0,0.0,0.0,0.0,0.0,0.0,0.0,0.0,0.0,-0.6104,-0.6054,-0.7231,-0.7718,0.0,0.0,-0.9495,-0.929,0.0,0.0,0.0,0.0,0.0,0.0,0.0,0.0,0.0,0.0,0.0,0.0,0.0,0.0,0.0,0.0,0.0,0.0,0.0,0.0,0.0,0.0,-1.8662,-1.9832,-2.0965,-2.1456,-2.1676,-2.1889,-2.0412,-1.8533,0.0,0.0,-1.2847,-1.114,-1.0408,-0.9956,-0.961,-0.999,-1.0588,-1.1269,-1.2197,-1.3369,-1.4891,-1.6023,-1.7295,0.0,0.0,-2.0412,-2.1601,-2.2272,-2.2817,-2.3219,-2.2721,-2.2829,-2.3795,-2.3725,-2.3503,-2.3237,-2.328,-2.3073,-2.267,-2.2365,-2.2048,-2.1826,-2.2115,-2.218,-2.2088,-2.2605,-2.2697,-2.2484,-2.1957,-2.1342,-2.0784,-2.0348,-1.9978,-1.972,-1.9565,-1.9356,-1.9069,-1.849,-1.8109,-1.7775,0.0,0.0,0.0,0.0,0.0,0.0,-0.5021,-0.6694,-0.8402,-0.9826,-1.047,-1.0718,-1.0507,-0.8589,-0.6573,-0.4749,-0.4358,0.0,0.0,0.0,0.0,0.0,0.0,0.0,0.0,0.0,-0.6744,-0.6894,-0.6908,-0.7296,-0.8,-0.8492,-0.9068,-0.9716,0.0,0.0,0.0,0.0,0.0,0.0,0.0,0.0,0.0,0.0,0.0,0.0,0.0,0.0,0.0,0.0,0.0,0.0,0.0,0.0,0.0,0.0,-1.6795,-1.8464,-1.9525,-2.0244,-2.0949,-2.1885,-2.0083,-1.787,0.0,-1.4425,-1.202,-1.0592,-0.9869,-0.955,-0.9658,-0.9762,-1.0094,-1.0976,-1.1629,-1.2784,-1.4987,-1.6374,0.0,0.0,0.0,-1.9995,-2.0769,-2.2266,-2.3485,-2.4231,-2.3779,-2.3697,-2.4245,-2.4177,-2.3959,-2.3697,-2.3586,-2.3252,-2.2777,-2.2075,-2.2009,-2.2603,-2.2101,-2.2485,-2.3434,-2.303,-2.2711,-2.2591,-2.1957,-2.1261,-2.0623,-2.061,-2.0372,-1.999,-1.9862,-1.9448,-1.8874,-1.7955,-1.7714,-1.7775,0.0,0.0,0.0,0.0,0.0,0.0,0.0,-0.5884,-0.6941,-0.7712,-0.7643,-0.7671,-0.8065,-0.6766,-0.5682,-0.5197,-0.4652,0.0,0.0,0.0,0.0,0.0,0.0,0.0,0.0,0.0,-0.7474,-0.7803,-0.8522,-0.9022,-0.9308,-1.0144,-1.0394,-1.0184,-1.0221,-1.0148,0.0,0.0,0.0,0.0,0.0,0.0,-1.0908,0.0,0.0,0.0,0.0,0.0,0.0,0.0,0.0,0.0,0.0,0.0,0.0,-1.2588,0.0,0.0,-1.735,-1.8271,-1.8948,-1.8438,-1.7319,-1.6062,-1.4982,-1.3428,-1.1838,-1.0569,-1.0083,-0.978,-0.9428,-0.9667,-1.0212,-1.1043,-1.1714,-1.2565,0.0,0.0,0.0,-1.7829,-1.9973,-2.1629,-2.2385,-2.2997,-2.3414,-2.3552,-2.32,-2.3118,-2.3538,-2.321,-2.3065,-2.3219,-2.3084,-2.2618,-2.172,-2.1332,-2.1295,-2.1504,-2.1332,-2.1226,-2.1249,-2.1649,-2.135,-2.0502,-2.0716,-2.051,-2.0061,-1.9963,-1.9949,-1.999,-1.9862,-1.954,-1.9069,-1.8608,-1.8282,-1.7961,0.0,0.0,0.0,0.0,0.0,0.0,0.0,-0.5088,-0.5733,-0.5675,-0.5826,-0.6174,-0.6808,-0.5479,-0.4805,-0.5528,-0.4297,0.0,0.0,0.0,0.0,0.0,0.0,0.0,-0.6972,-0.721,-0.7724,-0.8495,-0.9361,-0.9891,-1.0136,-1.1154,-1.1275,-1.067,-1.0724,-1.0571,0.0,0.0,0.0,0.0,0.0,0.0,-1.1144,0.0,0.0,0.0,0.0,0.0,0.0,0.0,0.0,0.0,0.0,0.0,0.0,0.0,-1.2811,-1.4446,0.0,-1.644,-1.7156,-1.6426,-1.5546,-1.4633,-1.3762,-1.2624,-1.1411,-1.0282,-0.9923,-0.971,-0.9339,-0.957,-1.0057,-1.0795,-1.1282,-1.199,0.0,0.0,0.0,-1.7827,-2.0105,-2.1821,-2.2546,-2.2752,-2.2899,-2.3016,-2.2926,-2.292,-2.3067,-2.3096,-2.3018,-2.2951,-2.2667,-2.2159,-2.1388,-2.1207,-2.1109,-2.1131,-2.1158,-2.1126,-2.1062,-2.1307,-2.1138,-2.071,-2.0765,-2.0596,0.0,-2.0113,-2.0075,-2.0016,-1.9585,-1.9366,-1.9202,-1.8398,-1.8008,-1.7752,0.0,0.0,0.0,0.0,0.0,0.0,0.0,-0.4253,-0.4634,-0.3696,-0.462,-0.5604,-0.6166,-0.4433,-0.3848,-0.5395,0.0,0.0,0.0,0.0,0.0,0.0,0.0,0.0,-0.7549,-0.7227,-0.7734,-0.9135,-0.9674,-1.0241,-1.0852,-1.1856,-1.1992,-1.1414,-1.1566,-1.1327,-1.0825,-1.0777,-1.0798,-1.0889,-1.1098,-1.1207,0.0,0.0,0.0,0.0,0.0,0.0,0.0,0.0,0.0,0.0,0.0,0.0,0.0,0.0,0.0,0.0,0.0,-1.4646,-1.5379,-1.5316,-1.4427,-1.346,-1.2958,-1.1911,0.0,-0.9754,-0.9461,-0.9393,-0.9393,-0.9419,-0.9665,-1.0385,-1.0601,0.0,0.0,-1.4011,0.0,0.0,-1.9962,-2.1021,-2.1678,-2.1971,-2.2289,-2.2713,-2.2958,-2.2979,-2.2881,-2.3504,-2.356,-2.2846,-2.2337,-2.193,-2.1616,-2.1471,-2.1423,-2.1423,-2.1568,-2.1876,-2.2319,-2.1703,-2.1814,-2.2435,-2.171,-2.1299,-2.1113,-2.0894,-2.0573,-2.0131,-1.9196,-1.9068,-1.9233,-1.7645,-1.7221,-1.7369,0.0,0.0,0.0,0.0,0.0,0.0,0.0,0.0,0.0,0.0,-0.1278,-0.1387,-0.1621,-0.1511,-0.1544,0.0,0.0,0.0,0.0,0.0,0.0,0.0,0.0,0.0,-0.7433,-0.8093,-0.9068,-1.0383,-1.1674,-1.2893,-1.4029,-1.4987,-1.5038,-1.4269,-1.3308,-1.2242,-1.1196,-1.1219,-1.0985,-1.0613,-1.0768,-1.0436,0.0,0.0,0.0,0.0,-0.8897,-0.9494,0.0,0.0,0.0,0.0,0.0,0.0,0.0,0.0,-1.0456,-0.9917,-1.128,0.0,-1.2536,-1.2157,-1.1749,-1.1414,0.0,-1.0821,-1.0117,-0.9377,0.0,0.0,-0.9295,-0.9124,-0.9493,-1.1139,0.0,-1.2019,-1.3452,0.0,0.0,-1.9978,-2.1467,-2.2519,-2.2853,-2.2977,-2.2985,-2.3028,-2.2819,-2.2583,-2.2395,-2.2536,-2.255,-2.2348,-2.2062,-2.1849,-2.1746,-2.1616,-2.152,-2.1423,-2.1568,-2.1356,-2.0907,-2.1479,-2.1178,-2.0278,-2.0941,-2.0925,-2.0454,-2.0515,-2.0485,-2.0308,-1.9762,-1.9544,-1.9426,-1.819,-1.7729,-1.7583,0.0,0.0,0.0,0.0,0.0,0.0,0.0,0.0,0.0,0.0,0.0,-0.0005,0.0324,-0.0031,0.0,0.0,0.0,0.0,0.0,0.0,0.0,0.0,0.0,-0.6524,-0.7964,-0.8686,-0.9887,-1.163,-1.2802,-1.4186,-1.5801,-1.6483,-1.6218,-1.5102,-1.3456,-1.2226,-1.1371,-1.1227,-1.0946,-1.0622,-1.0411,0.0,0.0,0.0,0.0,0.0,-0.8702,-0.9327,0.0,-0.9997,-1.0692,-1.1703,0.0,0.0,0.0,0.0,-1.0171,-0.9227,-1.0278,-1.0924,-1.1305,-1.1339,-1.1225,-1.1125,-1.1314,0.0,0.0,0.0,0.0,0.0,0.0,0.0,0.0,0.0,-1.1978,0.0,0.0,0.0,-1.8537,-2.0246,-2.136,-2.2205,-2.2724,-2.2546,-2.2489,-2.2785,-2.2392,-2.2164,-2.231,-2.237,-2.237,-2.2278,-2.2091,-2.1949,-2.1793,-2.1746,-2.1664,-2.1568,-2.1664,-2.1547,-2.1258,-2.1608,-2.1401,-2.0763,-2.1186,-2.1185,-2.0819,-2.0703,-2.0692,-2.072,-1.9775,-1.9697,-1.9918,-1.8396,-1.7927,-1.7954,0.0,0.0,0.0,0.0,0.0,0.0,0.0,0.0,0.0,0.0,0.0,0.0,0.0,0.0,0.0,0.0,0.0,0.0,0.0,0.0,0.0,0.0,-0.5563,-0.5922,-0.8333,-0.9048,-1.0443,-1.256,-1.3486,-1.4867,-1.6696,-1.7228,-1.6659,-1.5095,-1.3107,-1.2003,-1.16,-1.1042,-1.078,-1.0662,-1.0055,0.0,0.0,0.0,0.0,0.0,0.0,0.0,0.0,-1.0307,-1.1154,-1.2236,-1.2094,0.0,0.0,0.0,0.0,0.0,-1.0052,-1.0578,-1.0983,-1.1449,-1.1556,-1.1599,-1.1802,0.0,0.0,0.0,0.0,0.0,0.0,-0.9757,0.0,0.0,0.0,0.0,-1.5835,-1.6888,-1.8093,-1.995,-2.0659,-2.1244,-2.1953,-2.1699,-2.1688,-2.215,-2.1869,-2.1869,-2.2292,-2.2426,-2.2469,-2.2477,-2.2324,-2.2091,-2.1841,-2.1841,-2.1793,-2.1793,-2.171,-2.1805,-2.2091,-2.1805,-2.1805,-2.2044,-2.1698,-2.1568,-2.152,-2.1063,-2.104,-2.1082,-1.9826,-1.9863,-2.0404,-1.8499,-1.8007,-1.822,0.0,0.0,0.0,0.0,0.0,0.0,0.0,0.0,0.0,0.0,0.0,0.0,0.0,0.0,0.0,0.0,0.0,0.0,0.0,0.0,0.0,-0.5015,-0.5519,-0.6113,-0.699,-0.9173,-1.1,-1.2434,-1.4145,-1.5682,-1.7059,-1.855,-1.8081,-1.5929,-1.4031,-1.2847,-1.2169,-1.0929,-1.0349,-1.0233,-0.9639,0.0,0.0,0.0,0.0,0.0,0.0,0.0,0.0,-0.9003,-1.0033,-1.1424,-1.0305,0.0,0.0,0.0,0.0,0.0,-1.0333,-1.1038,-1.1033,-1.0632,-1.1192,-1.1721,-1.1256,0.0,0.0,0.0,0.0,0.0,0.0,-1.0053,-1.0927,0.0,0.0,-1.5427,-1.7383,-1.7835,-1.8518,-1.9955,-2.0926,-2.1367,-2.1112,-2.1972,-2.2189,-2.1183,-2.1614,-2.199,-2.2047,-2.196,-2.2175,-2.2735,-2.2477,-2.2231,-2.1996,-2.1996,-2.1902,-2.1793,-2.1282,-2.1217,-2.1492,-2.1175,-2.123,-2.152,-2.1471,-2.1375,-2.1269,-2.1376,-2.1171,-2.0867,-2.0785,-2.0565,-2.0169,-1.9108,-1.8598,-1.8236,0.0,0.0,0.0,0.0,0.0,0.0,0.0,0.0,0.0,0.0,0.0,0.0,0.0,0.0,0.0,0.0,0.0,0.0,0.0,0.0,-0.0364,-0.353,-0.503,-0.6854,-0.9128,-1.0516,-1.2136,-1.4023,-1.4839,-1.6365,-1.8517,-1.8103,-1.7007,-1.5258,-1.3171,-1.1932,-1.13,-1.0383,-0.9936,-0.9827,0.0,0.0,0.0,0.0,0.0,0.0,0.0,0.0,0.0,0.0,-1.0032,-1.1497,-1.0535,0.0,0.0,0.0,0.0,0.0,-0.9232,-1.0158,-1.0669,-1.0413,-1.1712,-1.3119,-1.3244,-1.257,0.0,0.0,0.0,0.0,0.0,0.0,-1.2535,-1.4443,-1.5354,-1.6372,-1.8045,-1.825,-1.8717,-2.0007,-2.0419,-2.0668,-2.0907,-2.1011,-2.1054,-2.0949,-2.0891,-2.1048,-2.1438,-2.1672,-2.196,-2.2262,-2.2443,-2.22,-2.1647,-2.1541,-2.1569,-2.1698,-2.1093,-2.0909,-2.1109,-2.0974,-2.1001,-2.1217,-2.1076,-2.1172,-2.1402,-2.1276,-2.122,-2.1144,-2.0901,-2.0759,-2.0591,-1.9609,-1.8988,-1.8362,0.0,0.0,0.0,0.0,0.0,0.0,0.0,0.0,0.0,0.0,0.0,0.0,0.0,0.0,0.0,0.0,0.0,0.0,0.0,0.1746,0.0293,-0.2233,-0.396,-0.6931,-1.1335,-1.2067,-1.3441,-1.5586,-1.5658,-1.6875,-1.9118,-1.7316,-1.571,-1.4257,-1.21,-1.087,-1.0383,-0.9701,-0.9451,-0.9491,0.0,0.0,0.0,0.0,0.0,0.0,0.0,0.0,0.0,0.0,0.0,0.0,0.0,0.0,0.0,-1.0441,-0.9216,-0.7947,-0.8671,-0.9599,-1.0385,-1.0606,-1.2162,-1.3912,-1.4774,-1.4097,0.0,0.0,0.0,0.0,0.0,-1.2956,0.0,-1.6059,-1.6524,-1.7122,-1.8499,-1.8564,-1.8838,-1.985,-1.9879,-2.0016,-2.0553,-2.0206,-2.0122,-2.0578,-2.0233,-2.0295,-2.1015,-2.1309,-2.1542,-2.1845,-2.2118,-2.1928,-2.1223,-2.095,-2.0966,-2.1178,-2.0543,-2.0452,-2.085,-2.0712,-2.0886,-2.13,-2.1116,-2.1225,-2.1582,-2.1439,-2.1382,-2.1379,-2.0925,-2.0836,-2.0887,-1.9849,-1.916,-1.8606,0.0,0.0,0.0,0.0,0.0,0.0,0.0,0.0,0.0,0.0,0.0,0.0,0.0,0.0,0.0,0.0,0.0,0.0,0.0,0.2913,0.1297,-0.1206,-0.1978,-0.534,-1.1713,-1.3346,-1.4782,-1.6139,-1.6654,-1.7105,-1.7545,-1.6779,-1.5403,-1.3505,-1.1535,-1.0494,-1.0153,-0.8986,-0.885,-0.9363,-0.8812,0.0,0.0,0.0,0.0,0.0,0.0,0.0,0.0,0.0,0.0,0.0,0.0,0.0,-1.0788,-1.0139,-0.9329,-0.885,-0.9965,-1.0368,-1.0626,-1.1182,-1.188,-1.2747,-1.3982,-1.3861,0.0,-1.3394,0.0,0.0,0.0,-1.4341,-1.5921,-1.7187,-1.7361,-1.7802,-1.9163,-1.8909,-1.8791,-1.9288,-1.985,-1.9958,-1.9455,-2.0396,-2.0586,-1.9597,-1.9947,-2.0469,-2.114,-2.0629,-2.0863,-2.2046,-2.1507,-2.1119,-2.0936,-2.0306,-1.9964,-1.9901,-1.9257,-1.9557,-2.0699,-2.0137,-2.0629,-2.1927,-2.1927,-2.1813,-2.1657,-2.2196,-2.1916,-2.1251,-2.1506,-2.1235,-2.051,-1.9421,-1.907,-1.892,0.0,0.0,0.0,0.0,0.0,0.0,0.0,0.0,0.0,0.0,0.0,0.0,0.0,0.0,0.0,0.0,0.0,0.0,0.0,0.2905,0.1203,-0.1578,-0.2317,-0.4858,-0.9555,-1.1034,-1.3584,-1.7318,-1.8083,-1.7825,-1.6702,-1.6547,-1.5084,-1.2512,-1.1238,-1.0136,-0.9223,-0.865,-0.8582,-0.8821,-0.8524,-0.8441,0.0,0.0,0.0,0.0,0.0,0.0,0.0,0.0,-0.9866,-1.1026,-1.0191,-1.0499,-1.1023,-1.0241,-0.947,-0.8963,-0.9366,-1.0068,-1.074,-1.0912,-1.2085,0.0,0.0,-1.4667,-1.5134,-1.5921,-1.6128,0.0,0.0,0.0,-1.571,-1.7317,-1.7599,-1.8045,-1.9403,-1.9101,-1.8922,-1.9543,-1.9411,-1.9367,-1.9603,-1.9901,-1.9952,-1.9611,-1.9768,-1.9983,-2.0249,-2.0398,-2.0655,-2.1144,-2.1321,-2.1123,-2.0462,-2.0215,-1.9789,-1.9178,-1.921,-1.9475,-1.9963,-2.016,-2.0626,-2.1339,-2.1394,-2.1602,-2.1821,-2.1716,-2.1444,-2.1109,-2.1236,-2.0919,-2.0446,-2.0039,-1.9446,-1.871,0.0,0.0,0.0,0.0,0.0,0.0,0.0,0.0,0.0,0.0,0.0,0.0,0.0,0.0,0.0,0.0,0.0,0.0,0.3768,0.3102,0.1721,-0.0521,-0.1308,-0.339,-0.6997,-0.7814,-1.0591,-1.5464,-1.6853,-1.6994,-1.5996,-1.5761,-1.4397,-1.2115,-1.1209,-1.0128,-0.8956,-0.8876,-0.8721,-0.8501,-0.8425,-0.8438,0.0,0.0,0.0,0.0,0.0,0.0,0.0,0.0,-0.9468,-1.0562,-1.0027,-1.0525,-1.1181,-1.0591,-0.989,-0.9244,-0.8934,-0.9645,-1.043,0.0,0.0,0.0,-1.4008,-1.5126,-1.6383,-1.7252,-1.7106,-1.672,-1.6317,0.0,-1.6135,-1.7541,-1.796,-1.8534,-1.9667,-1.9441,-1.926,-1.9466,-1.909,-1.9,-1.9486,-1.9411,-1.9375,-1.9446,-1.9606,-1.969,-1.9705,-2.0072,-2.04,-2.0662,-2.094,-2.0774,-2.0062,-2.0062,-1.9727,-1.9064,-1.9382,-1.9566,-1.962,-2.0114,-2.0525,-2.095,-2.1224,-2.151,-2.1811,-2.1582,-2.1326,-2.1033,-2.1033,-2.0835,-2.056,-2.0265,-1.9506,-1.8584,0.0,0.0,0.0,0.0,0.0,0.0,0.0,0.0,0.0,0.0,0.0,0.0,0.0,0.0,0.0,0.0,0.0,0.0,0.4127,0.3659,0.3091,0.2436,0.1564,-0.061,-0.4275,-0.4061,-0.5901,-1.0,-1.2499,-1.4244,-1.5257,-1.4273,-1.334,-1.2456,-1.1517,-1.0519,-0.9519,-0.9702,-0.9297,-0.8508,-0.8579,-0.8554,-0.8508,0.0,0.0,0.0,0.0,0.0,0.0,0.0,-0.9444,-0.9713,-1.0923,-1.129,-1.1275,-1.1124,-1.059,-0.9816,-0.8954,-0.9285,-0.9713,0.0,0.0,0.0,-1.3204,-1.5095,-1.6834,-1.691,-1.6725,-1.6709,-1.7304,-1.7413,-1.757,-1.813,-1.8646,-1.9265,-2.0008,-2.0045,-1.9697,-1.8895,-1.8921,-1.8988,-1.8988,-1.9004,-1.9019,-1.9004,-1.9436,-1.9705,-1.9698,-1.9705,-2.0025,-2.076,-2.0267,-1.9919,-1.9797,-1.9797,-1.9741,-1.9611,-1.9611,-1.9692,-1.989,-1.9886,-2.0287,-2.1034,-2.1585,-2.1626,-2.1462,-2.1978,-2.1793,-2.1166,-2.1033,-2.0983,-2.0855,-1.9934,-1.9266,-1.8786,0.0,0.0,0.0,0.0,0.0,0.0,0.0,0.0,0.0,0.0,0.0,0.0,0.0,0.0,0.0,0.0,0.0,0.0,0.3989,0.3264,0.2571,0.1995,0.128,0.0263,-0.1061,-0.2574,-0.5733,-1.0622,-1.3444,-1.4356,-1.3476,-1.389,-1.3254,-1.1781,-1.1516,-1.086,-0.9944,-0.9205,-0.88,-0.8627,-0.8504,-0.847,-0.8508,0.0,0.0,0.0,0.0,0.0,0.0,0.0,0.0,0.0,-0.9937,-1.07,-1.1381,-1.0784,-1.0487,-1.0174,-0.9343,-0.9993,0.0,-1.0006,0.0,0.0,0.0,-1.5765,0.0,0.0,-1.8434,-1.8098,-1.8214,-1.7883,-1.7916,-1.8889,-1.91,-1.9354,-2.0008,-1.9305,-1.8816,-1.8976,-1.8661,-1.8451,-1.8451,-1.9241,-1.9626,-1.9234,-1.9817,-2.0166,-2.0131,-2.0166,-2.0257,-2.0457,-2.0343,-2.0181,-1.9919,-1.9975,-1.9904,-1.9654,-1.9741,-1.9737,-1.97,-2.0233,-2.0779,-2.1374,-2.1427,-2.1801,-2.2314,-2.2146,-2.1592,-2.0934,-2.1212,-2.0877,-2.0316,-2.0483,-2.0035,-1.9305,0.0,0.0,0.0,0.0,0.0,0.0,0.0,0.0,0.0,0.0,0.0,0.0,0.0,0.0,0.0,0.0,0.0,0.0,0.0,0.275,0.2138,0.1655,0.1146,0.064,0.0117,-0.2398,-0.515,-0.8117,-1.1309,-1.2734,-1.249,-1.3308,-1.3288,-1.2565,-1.252,-1.2002,-1.1122,-1.0149,-0.9523,-0.9203,-0.9029,-0.9143,-0.9368,0.0,0.0,0.0,0.0,0.0,0.0,0.0,0.0,0.0,-0.8944,-0.969,-1.0319,-1.0113,-1.0034,-0.9859,-0.9149,-0.9939,0.0,-1.0841,-1.3102,-1.5463,-1.5927,0.0,0.0,0.0,-1.9496,-1.8965,-1.9102,-1.8847,-1.8817,-1.9468,-1.9634,-1.9862,-2.0261,-1.9628,-1.9057,-1.8886,-1.8516,-1.8285,-1.8285,-1.8977,-1.9375,-1.9236,-1.9657,-1.9888,-1.9836,-1.9854,-2.0027,-2.0339,-2.0388,-2.0285,-2.0025,-2.0115,-2.001,-1.969,-1.9797,-1.9812,-1.9683,-2.0124,-2.0639,-2.1203,-2.1383,-2.1917,-2.2603,-2.2009,-2.1411,-2.0845,-2.1062,-2.0806,-2.0328,-2.0846,-2.0382,-1.9488,0.0,0.0,0.0,0.0,0.0,0.0,0.0,0.0,0.0,0.0,0.0,0.0,0.0,0.0,0.0,0.0,0.0,0.0,0.0,0.2185,0.1765,0.1396,0.1063,0.051,-0.0275,-0.3064,-0.4337,-0.393,-0.7469,-1.0047,-1.1727,-1.253,-1.329,-1.399,-1.3939,-1.3431,-1.2568,-1.1736,-1.0837,-0.9923,-0.9794,-1.0087,-1.0542,-0.9742,0.0,0.0,0.0,0.0,0.0,0.0,0.0,0.0,-0.8036,-0.8473,-0.8611,-0.9145,-0.9331,-0.9209,-0.8586,0.0,0.0,-1.1558,-1.3485,0.0,-1.7905,-1.8182,-1.8475,-2.0289,-1.9994,-1.9524,-1.9872,-1.9969,-1.997,-1.9909,-2.0236,-2.0561,-2.066,-2.0514,-1.995,-1.864,-1.8439,-1.8362,-1.833,-1.8408,-1.8655,-1.9094,-1.9236,-1.9282,-1.9198,-1.9232,-1.959,-2.0373,-2.0423,-2.0304,-2.01,-2.0235,-2.0115,-1.9726,-1.9884,-1.9919,-1.9797,-1.9797,-2.0107,-2.0654,-2.1493,-2.2017,-2.2359,-2.1622,-2.11,-2.0789,-2.0753,-2.0607,-2.0502,-2.0988,-2.0375,-1.9431,0.0,0.0,0.0,0.0,0.0,0.0,0.0,0.0,0.0,0.0,0.0,0.0,0.0,0.0,0.0,0.0,0.0,0.0,0.0,0.1678,0.1383,0.124,0.0388,-0.0379,-0.0973,-0.2937,-0.4027,-0.4141,-0.7482,-0.8981,-0.8778,-1.1691,-1.2818,-1.2415,-1.2902,-1.2729,-1.1963,-1.0435,-0.9663,-0.9434,-0.9247,-0.9235,-0.9277,-0.9095,-0.8985,0.0,0.0,0.0,0.0,0.0,0.0,0.0,-0.7596,-0.8237,-0.8549,-0.8003,-0.8724,-0.9509,-0.8702,-1.0033,0.0,0.0,-1.4496,-1.6592,-1.807,-1.8416,-1.8696,-1.9523,-2.0009,-2.0225,-2.0148,-2.0106,-2.0207,-2.0526,-2.0616,-2.0644,-2.0561,-2.0075,-1.9388,-1.8501,-1.8316,-1.8099,-1.7735,-1.8517,-1.9102,-1.9319,-1.988,-2.0159,-2.0054,-2.0141,-2.0252,-2.0304,-2.0525,-2.0475,-2.01,-2.0304,-2.0235,-1.9919,-1.9884,-1.9884,-1.9955,-1.9955,-1.9959,-2.0055,-2.1372,-2.1538,-2.0874,-2.0881,-2.0472,-1.988,-2.0085,-1.9469,-1.8685,-2.0252,-2.027,-1.9705,0.0,0.0,0.0,0.0,0.0,0.0,0.0,0.0,0.0,0.0,0.0,0.0,0.0,0.0,0.0,0.0,0.0,0.0,0.0,0.0,0.0913,0.0686,-0.0021,-0.0636,-0.1137,-0.21,-0.2831,-0.328,-0.607,-0.7768,-0.8487,-1.1335,-1.3071,-1.3753,-1.3636,-1.3377,-1.2957,-1.0892,-0.9968,-0.9852,-0.9615,-0.9743,-0.9986,-0.9484,-0.9059,-0.8665,-0.7948,0.0,0.0,0.0,0.0,0.0,0.0,0.0,-0.7199,-0.7099,-0.7636,-0.8331,-0.8622,0.0,0.0,-1.371,0.0,-1.6852,-1.7876,-1.8466,-1.8766,-1.8684,-1.9694,-2.055,-2.0372,-2.03,-2.0423,-2.0927,-2.04,-2.0004,-2.0241,-1.9626,-1.8918,-1.8212,-1.8251,-1.8129,-1.759,-1.8315,-1.8996,-1.9384,-1.9463,-1.9603,-1.9844,-1.9568,-1.9555,-1.9947,-2.0077,-2.0167,-2.0273,-2.0475,-2.0373,-2.0061,-2.0061,-2.0025,-1.9935,-2.0252,-2.0352,-2.0354,-2.127,-2.1354,-2.0803,-2.0553,-2.0189,-1.9795,-1.9878,-1.9487,-1.9025,-2.0128,-2.0318,-2.0094,0.0,0.0,0.0,0.0,0.0,0.0,0.0,0.0,0.0,0.0,0.0,0.0,0.0,0.0,0.0,0.0,0.0,0.0,0.0,0.0,0.0,0.0,-0.0336,-0.0777,-0.1343,-0.1348,-0.1712,-0.245,-0.448,-0.6761,-0.9238,-1.1131,-1.3129,-1.5082,-1.3996,-1.3438,-1.3161,-1.1024,-1.0084,-1.0042,-0.9687,-1.0026,-1.0645,-0.9601,-0.8852,-0.826,-0.7581,-0.6546,-0.5506,-0.5371,0.0,0.0,0.0,0.0,-0.5688,-0.6144,-0.6453,-0.6899,-0.8151,0.0,-1.1085,-1.4662,-1.6055,0.0,-1.763,-1.8251,-1.8518,-1.8029,-1.9437,-2.0671,-2.0409,-2.0521,-2.0701,-2.0972,-2.018,-1.9583,-1.9819,-1.9393,-1.8773,-1.7944,-1.82,-1.8239,-1.7773,-1.8132,-1.8639,-1.9295,-1.8796,-1.8718,-1.9263,-1.864,-1.8641,-1.9437,-1.9547,-1.986,-2.0407,-2.0538,-2.0423,-2.007,-2.0221,-2.0147,-1.9919,-2.0515,-2.0684,-2.058,-2.0966,-2.1028,-2.0881,-2.0157,-1.9861,-1.9831,-1.9598,-1.9555,-1.9734,-2.0131,-2.0316,-2.0345,0.0,0.0,0.0,0.0,0.0,0.0,0.0,0.0,0.0,0.0,0.0,0.0,0.0,0.0,0.0,0.0,0.0,0.0,0.0481,0.0,0.0,-0.0498,-0.0779,-0.1378,-0.2375,-0.1847,-0.2056,-0.3084,-0.4367,-0.658,-0.9644,-1.074,-1.1677,-1.2365,-1.0945,-0.9765,-0.8787,-0.7769,-0.773,-0.8273,-0.7528,-0.7787,-0.8523,-0.7622,-0.714,-0.6876,-0.6137,-0.5756,-0.5487,-0.4845,-0.4544,0.0,0.0,0.0,-0.5463,-0.4813,-0.5645,-0.6774,0.0,0.0,-1.2579,0.0,-1.5874,-1.6338,0.0,0.0,-1.7425,-1.7971,-1.9612,-2.0726,-1.9947,-2.0763,-2.1275,-2.0467,-2.0817,-2.0717,-1.9389,-1.9725,-1.9605,-1.8216,-1.8108,-1.8168,-1.8209,-1.8264,-1.8513,-1.901,-1.8903,-1.8815,-1.8792,-1.8682,-1.8726,-1.891,-1.9633,-2.0031,-2.0082,-2.0128,-2.0128,-2.0019,-1.9909,-2.0049,-2.0426,-2.0556,-2.0257,-1.9627,-2.0147,-2.0026,-1.9507,-1.879,-1.876,-1.9174,-1.8512,-1.8332,-1.8586,-1.9705,-1.999,-1.9916,0.0,0.0,0.0,0.0,0.0,0.0,0.0,0.0,0.0,0.0,0.0,0.0,0.0,0.0,0.0,0.0687,0.0781,0.0718,0.0424,-0.0117,-0.0488,-0.0652,-0.0991,-0.1502,-0.2192,-0.1802,-0.2,-0.2809,-0.3683,-0.5624,0.0,-0.856,-1.051,-1.3868,-1.1522,-1.0109,-0.9366,-0.7835,-0.7586,-0.814,-0.7148,-0.7825,-0.9239,-0.7499,-0.7046,-0.7173,-0.6018,-0.5327,-0.4998,-0.5038,-0.5062,-0.5076,-0.5076,0.0,0.0,0.0,-0.4984,-0.5838,-0.7012,-0.9256,-1.1788,0.0,-1.4674,-1.5211,-1.703,-1.728,-1.7305,-1.8007,-1.919,-1.9938,-1.9453,-1.9755,-2.0046,-1.9937,-1.958,-1.9194,-1.8805,-1.869,-1.8379,-1.7781,-1.7941,-1.8013,-1.7815,-1.8016,-1.8216,-1.843,-1.8391,-1.8307,-1.8241,-1.8181,-1.8222,-1.8395,-1.8671,-1.9185,-2.0,-2.0076,-2.0299,-2.0654,-2.0512,-2.0495,-2.0662,-2.0597,-2.0379,-2.008,-2.0119,-2.0002,-1.9752,-1.9212,-1.9126,-1.9347,-1.8907,-1.8804,-1.887,-1.8852,-1.9204,-1.9715,0.0,0.0,0.0,0.0,0.0,0.0,0.0,0.0,0.0,0.0,0.0,0.0,0.0,0.0,0.0,0.0,0.0523,0.051,0.0237,-0.0389,-0.0778,-0.0857,-0.1148,-0.1537,-0.2012,-0.1645,-0.1798,-0.2534,-0.3238,0.0,-0.7593,-0.6939,-0.9376,-1.4154,-1.1197,-0.9608,-0.9001,-0.7435,-0.7156,-0.7745,-0.7212,-0.8259,-0.9941,-0.8338,-0.8151,-0.8516,-0.665,-0.5838,-0.5644,-0.5647,-0.5565,-0.5471,-0.5578,-0.5442,0.0,0.0,0.0,0.0,0.0,0.0,-1.0278,-1.2328,-1.3028,-1.3776,0.0,-1.6443,-1.6654,-1.7765,-1.8419,-1.8841,-1.8876,-1.9032,-1.9218,-1.941,-1.8743,-1.8232,-1.8277,-1.7954,-1.7679,-1.7542,-1.7823,-1.7914,-1.7552,-1.7741,-1.7873,-1.7864,-1.7753,-1.7706,-1.769,-1.7588,-1.7642,-1.785,-1.7888,-1.8443,-1.953,-1.978,-2.0261,-2.0941,-2.0861,-2.0895,-2.0958,-2.0828,-2.0795,-2.0844,-2.0308,-2.0085,-2.007,-1.9652,-1.9555,-1.9669,-1.9403,-1.9432,-1.9489,-1.8409,-1.8857,-1.9827,0.0,0.0,0.0,0.0,0.0,0.0,0.0,0.0,0.0,0.0,0.0,0.0,0.0868,0.0575,0.0312,0.0045,0.0089,0.0028,-0.0248,-0.0836,-0.1202,-0.1267,-0.1286,0.0,-0.2358,-0.1492,-0.1548,-0.2592,-0.3385,0.0,-0.759,-0.704,-0.8166,-1.0552,-0.7829,-0.6026,-0.4984,-0.4821,-0.5282,-0.623,-0.738,-0.8454,-0.941,-0.9994,-1.0712,-1.1032,-0.8076,-0.7769,-0.8502,-0.6682,-0.561,-0.5097,-0.5481,-0.4899,-0.4148,0.0,0.0,0.0,0.0,-0.6989,0.0,-1.0071,-1.1058,-1.2205,0.0,-1.4477,-1.4695,-1.6886,-1.7282,-1.7428,-1.8118,-1.927,-1.9847,-1.8884,-1.9378,-1.9369,-1.7939,-1.8437,-1.8636,-1.7946,-1.7895,-1.7912,-1.7878,-1.7715,-1.7569,-1.7451,-1.7248,-1.7158,-1.7131,-1.7147,-1.7173,-1.7239,-1.785,-1.8225,-1.829,-1.9045,-1.9707,-2.0259,-2.0566,-2.0927,-2.1386,-2.1481,-2.1542,-2.1481,-2.0512,-1.998,-1.9778,-1.9314,-1.9451,-1.9929,-1.9546,-1.9703,-1.9991,-1.8745,-1.9369,-2.0548,0.0,0.0,0.0,0.0,0.0,0.0,0.0,0.0,0.0,0.0,0.0,0.0,0.0,0.0378,0.0183,-0.0044,-0.0556,-0.0737,-0.0448,-0.1158,-0.1583,-0.1548,-0.1512,-0.1678,-0.2068,-0.1741,-0.181,-0.2274,-0.2569,-0.3487,-0.4973,-0.5125,-0.5702,-0.6609,-0.6447,-0.62,-0.5883,-0.5293,-0.5532,-0.6231,-0.6096,-0.7167,-0.8726,-0.7572,-0.8667,-1.0506,-0.7947,-0.8164,-0.939,-0.7695,-0.7351,-0.7348,-0.5776,-0.5545,-0.5684,0.0,0.0,0.0,0.0,0.0,0.0,-0.8629,-0.9557,-1.0577,-1.2389,-1.3377,-1.4272,-1.5571,-1.6203,-1.6727,-1.7435,-1.8194,-1.8614,-1.8251,-1.8443,-1.8449,-1.7924,-1.8099,-1.8211,-1.7978,-1.7878,-1.7833,-1.7833,-1.7766,-1.7658,-1.7479,-1.7462,-1.7432,-1.7305,-1.7329,-1.737,-1.7386,-1.7544,-1.7863,-1.8332,-1.9421,-2.0185,-2.0591,-2.1097,-2.1474,-2.1705,-2.1464,-2.1402,-2.1433,-2.0761,-2.0561,-2.0665,-2.0198,-2.0144,-2.0345,-2.0011,-1.9677,-1.9317,-1.8288,-1.8254,-1.8572,0.0,0.0,0.0,0.0,0.0,0.0,0.0,0.0,0.0,0.0881,0.0,0.0,0.0,0.0,-0.053,-0.0665,-0.1071,-0.1183,-0.0852,-0.138,-0.1722,-0.1793,-0.1669,-0.1714,-0.1968,-0.1754,-0.1718,-0.1902,-0.1947,-0.2417,-0.3278,-0.3822,-0.4331,-0.4822,-0.5378,-0.5832,-0.6156,-0.5591,-0.5579,-0.597,-0.6167,-0.7203,-0.8543,-0.7676,-0.8956,-1.0963,-0.9054,-0.914,-0.9991,-0.8835,-0.8353,-0.7906,-0.5909,-0.5566,0.0,0.0,0.0,0.0,-0.5232,0.0,0.0,0.0,-0.8184,-0.9037,-1.084,-1.1834,-1.2811,-1.4355,-1.4741,-1.522,-1.6588,-1.6747,-1.6975,-1.7847,-1.7992,-1.7992,-1.7988,-1.7988,-1.8027,-1.8065,-1.7939,-1.7856,-1.7833,-1.7749,-1.7618,-1.7479,-1.7526,-1.7502,-1.7377,-1.7432,-1.7472,-1.7417,-1.7338,-1.7592,-1.8297,-1.9165,-1.9956,-2.0603,-2.0719,-2.0924,-2.1191,-2.0466,-2.0415,-2.0879,-2.0509,-2.0659,-2.1118,-2.0213,-2.0063,-2.032,-1.9545,-1.9111,-1.8785,-1.7631,-1.7478,-1.7699,0.0,0.0,0.0,0.0,0.0,0.0,0.0,0.0,0.0,0.0141,0.0,0.0,0.0,0.0,0.0,-0.1838,-0.1481,-0.133,-0.1527,-0.152,-0.1669,-0.1997,-0.1755,-0.1758,-0.2078,-0.1448,-0.1238,-0.1489,-0.1637,-0.2083,-0.2803,-0.333,-0.4217,-0.5292,-0.4452,-0.4557,-0.5358,-0.5369,-0.5273,-0.5316,-0.7648,-0.8597,-0.8806,-1.0583,-1.1834,-1.2529,-1.1408,-1.0794,-1.0449,-0.9984,-0.8411,-0.6526,-0.5836,0.0,0.0,0.0,0.0,0.0,0.0,0.0,0.0,0.0,-0.6871,-0.7612,-0.9784,-0.9746,-1.0119,-1.3223,-1.289,-1.2875,-1.5506,-1.508,-1.5163,-1.7718,-1.8166,-1.817,-1.8159,-1.8194,-1.8211,-1.8211,-1.8087,-1.7961,-1.79,-1.7664,-1.7479,-1.7408,-1.7353,-1.7305,-1.7305,-1.7377,-1.7377,-1.7306,-1.7248,-1.7499,-1.8076,-1.8235,-1.8936,-2.0189,-1.9319,-1.9257,-1.9862,-1.857,-1.8666,-1.9836,-1.9613,-2.0135,-2.097,-1.9248,-1.9119,-1.9842,-1.8144,-1.8003,-1.8535,-1.6846,-1.715,-1.8114,0.0,0.0,0.0,0.0,0.0,0.0,-0.1598,-0.1522,-0.1183,0.0,0.0,0.0,-0.1449,-0.1878,-0.229,-0.2632,-0.2613,-0.2497,-0.23,-0.2154,-0.2139,-0.2289,-0.1938,-0.1698,-0.1599,-0.1509,-0.1396,-0.1279,-0.1652,-0.2097,-0.2594,-0.2826,-0.3329,-0.4014,-0.3925,-0.4184,-0.4677,-0.467,-0.493,-0.5369,-0.5985,-0.6277,-0.6407,-0.7198,-0.8477,-0.9754,-0.909,-0.9632,-1.0377,-0.8667,-0.7972,-0.7605,-0.63,0.0,0.0,0.0,0.0,0.0,-0.3715,0.0,0.0,0.0,0.0,0.0,-0.7227,-0.7725,-0.844,-1.022,-1.0947,-1.1715,-1.3279,-1.4373,-1.541,-1.6554,-1.7122,-1.7394,-1.7394,-1.7858,-1.818,-1.8134,-1.7961,-1.7772,-1.7641,-1.7595,-1.7549,-1.7479,-1.7589,-1.7635,-1.7595,-1.7595,-1.7595,-1.7589,-1.7566,-1.7619,-1.7739,-1.8203,-1.8956,-1.9913,-1.9139,-1.9163,-1.9858,-1.8282,-1.7893,-1.8426,-1.7981,-1.8242,-1.8968,-1.9097,-1.9524,-1.9897,-1.8125,-1.7399,-1.7304,-1.687,-1.6635,-1.6507,0.0,0.0,0.0,0.0,0.0,-0.0917,-0.1796,-0.1848,-0.1865,0.0,0.0,0.0,-0.2351,-0.2918,-0.3379,-0.3494,-0.3387,-0.3169,-0.2867,-0.2608,-0.248,-0.2534,-0.2245,-0.2039,-0.1911,-0.1706,-0.153,-0.1368,-0.167,-0.1858,-0.1969,-0.2407,-0.2823,-0.316,-0.318,0.0,-0.4195,-0.3805,-0.4205,-0.5107,-0.5258,-0.5392,-0.5613,-0.598,-0.6788,-0.7772,-0.8448,-0.8765,-0.8786,-0.8294,-0.7515,-0.658,-0.5313,-0.4198,0.0,0.0,0.0,0.0,0.0,0.0,0.0,0.0,0.0,0.0,-0.6008,-0.623,-0.6613,-0.8144,-0.8622,-0.9194,-1.0589,-1.1497,-1.2329,-1.3142,-1.3928,-1.4794,-1.5863,-1.6261,-1.6501,-1.662,-1.6447,-1.6606,-1.7432,-1.7546,-1.7662,-1.7907,-1.8048,-1.7743,-1.6838,-1.7448,-1.7429,-1.6561,-1.7243,-1.7612,-1.7612,-1.7448,-1.7753,-1.8497,-1.7275,-1.7131,-1.7859,-1.6571,-1.6353,-1.6968,-1.6709,-1.7137,-1.8015,-1.7951,-1.8247,-1.8551,-1.6765,-1.6188,-1.6349,-1.6186,-1.5992,-1.58,0.0,0.0,-0.0405,-0.0266,-0.1264,-0.2152,-0.2311,-0.2215,-0.2428,0.0,-0.3554,-0.3687,-0.3844,-0.4452,-0.4724,-0.4471,-0.4011,-0.3635,-0.3345,-0.2939,-0.2722,-0.2691,-0.2555,-0.2485,-0.2531,-0.1942,-0.1604,-0.1551,-0.1674,-0.1586,-0.1302,-0.2129,-0.2568,-0.267,-0.2444,0.0,0.0,-0.3012,-0.3441,-0.4646,-0.5052,-0.5416,-0.5739,-0.6147,-0.6276,-0.6543,-0.8557,-0.802,-0.6622,-0.8227,-0.7013,-0.4665,-0.3805,-0.3614,-0.3603,-0.3097,-0.3099,0.0,0.0,0.0,0.0,0.0,-0.4038,0.0,-0.5585,-0.5105,-0.485,-0.663,-0.631,-0.6188,-0.7818,-0.7862,-0.7981,-0.9012,-0.9956,-1.1388,-1.3747,-1.4051,-1.4141,-1.4462,-1.4301,-1.4942,-1.6914,-1.6971,-1.7128,-1.7736,-1.7804,-1.7145,-1.5599,-1.668,-1.6512,-1.4673,-1.6153,-1.6986,-1.7028,-1.5935,-1.5735,-1.6387,-1.4579,-1.4183,-1.5027,-1.4196,-1.4433,-1.5462,-1.5551,-1.6285,-1.7348,-1.6157,-1.6089,-1.6583,-1.4873,-1.4783,-1.5555,-1.5136,-1.5255,-1.5588,0.0,0.0,-0.0991,-0.1583,-0.1578,-0.2023,-0.3636,-0.3974,-0.4115,-0.4309,-0.4323,-0.4636,-0.5523,-0.5278,-0.5273,-0.5851,-0.5192,-0.4566,-0.4186,-0.334,-0.2778,-0.2636,-0.2446,-0.2241,-0.2047,-0.1913,-0.166,-0.1285,-0.1729,-0.1903,-0.1852,-0.2342,-0.2574,-0.2546,-0.2533,-0.2606,0.0,-0.3153,-0.3574,-0.4019,-0.4595,-0.4919,-0.5157,-0.5916,-0.6233,-0.6276,-0.6907,-0.7018,-0.6821,-0.6666,-0.6154,-0.5465,-0.4677,-0.4125,-0.3725,-0.3405,-0.3195,0.0,0.0,0.0,0.0,-0.3184,-0.3424,0.0,-0.4708,-0.41,-0.3705,-0.4876,-0.5049,-0.5284,-0.6212,-0.7577,-0.8662,-0.8979,-0.9425,-1.0137,-1.1285,-1.3066,-1.4174,-1.3981,-1.4019,-1.4211,-1.4641,-1.3657,-1.3072,-1.3249,-1.3086,-1.3728,-1.5497,-1.4099,-1.3147,-1.2909,-1.3324,-1.3506,-1.3425,-1.3059,-1.3476,-1.4596,-1.3257,-1.3313,-1.4576,-1.3408,-1.3292,-1.4003,-1.3817,-1.4055,-1.4578,-1.4329,-1.509,-1.6332,-1.4819,-1.4321,-1.4536,-1.4801,-1.488,-1.4834,0.0,0.0,-0.2151,-0.2841,-0.2958,-0.3499,-0.5112,-0.5227,-0.5209,-0.5441,-0.5552,-0.5688,-0.5977,-0.5987,-0.6008,-0.6049,-0.5482,-0.4935,-0.4377,-0.3678,-0.3213,-0.3008,-0.2808,-0.2608,-0.24,-0.2308,-0.2035,-0.1597,-0.1969,-0.198,-0.166,-0.2096,-0.227,-0.2202,-0.2347,-0.2525,0.0,-0.2963,-0.3437,-0.4082,-0.4488,-0.4827,-0.5165,-0.565,-0.5887,-0.6013,-0.6331,-0.6479,-0.6416,-0.5494,-0.5284,-0.5198,-0.4407,-0.4163,-0.4044,-0.3585,-0.3472,-0.3435,-0.3177,-0.3206,-0.3269,-0.3123,-0.3205,0.0,0.0,-0.3385,-0.2996,-0.3707,-0.3955,-0.4123,-0.4362,-0.5558,-0.6489,-0.646,-0.6789,-0.7196,-0.7595,-0.945,-1.0831,-1.0995,-1.1576,-1.2431,-1.3621,-1.3203,-1.2693,-1.2324,-1.2162,-1.2152,-1.2298,-1.211,-1.1657,-1.0881,-1.1833,-1.2436,-1.2603,-1.1836,-1.1759,-1.239,-1.1448,-1.1388,-1.2129,-1.2224,-1.2407,-1.2634,-1.308,-1.3314,-1.3409,-1.3573,-1.4103,-1.4751,-1.4194,-1.3988,-1.4025,-1.4165,-1.4165,-1.4025,-0.2151,0.0,-0.3008,-0.3526,-0.4191,-0.4999,-0.6011,-0.5936,-0.5885,-0.6278,-0.6518,-0.6514,-0.6143,-0.6482,-0.658,-0.6133,-0.565,-0.5124,-0.4577,-0.403,-0.3672,-0.3472,-0.3261,-0.3122,-0.3018,-0.2816,-0.2487,-0.2035,-0.2208,-0.1989,-0.1387,-0.18,-0.1998,-0.1981,-0.2174,-0.2532,0.0,-0.2876,-0.3353,-0.4205,-0.4526,-0.4849,-0.5162,-0.5382,-0.5576,-0.5785,-0.6271,-0.6357,-0.6052,-0.5052,-0.4886,-0.4952,-0.4077,-0.417,-0.445,-0.3718,-0.3715,-0.3862,-0.3572,-0.3455,-0.3377,-0.3363,-0.3194,-0.3081,0.0,0.0,0.0,-0.2967,-0.3083,-0.3072,-0.2975,-0.3524,-0.3927,-0.3775,-0.4205,-0.4518,-0.4505,-0.5753,-0.6987,-0.7856,-0.8888,-1.0285,-1.2197,-1.2262,-1.2122,-1.1909,-1.1464,-1.0557,-0.911,-1.0175,-1.016,-0.8736,-1.0261,-1.127,-1.1612,-1.0527,-1.0028,-1.0149,-0.9687,-0.952,-0.9743,-1.1036,-1.1536,-1.1556,-1.2624,-1.2944,-1.2801,-1.3188,-1.3266,-1.317,-1.3423,-1.3523,-1.3455,-1.3277,-1.3168,-1.306,-0.2032,-0.2122,0.0,-0.2845,-0.3994,-0.4947,-0.5216,-0.5672,-0.6094,-0.6414,-0.6543,-0.6643,-0.6767,-0.6482,-0.6522,-0.7083,-0.6167,-0.5491,-0.5358,-0.4441,-0.3838,-0.375,-0.3516,-0.3377,-0.343,-0.3235,-0.2826,-0.2175,-0.2265,-0.2079,-0.1659,-0.1886,-0.2089,-0.2269,-0.2401,-0.2534,0.0,-0.3372,-0.3677,-0.3743,-0.4553,-0.4749,-0.4665,-0.5206,-0.5543,-0.5802,-0.6514,-0.6694,-0.6562,-0.6022,-0.5812,-0.5645,-0.4754,-0.4698,-0.4779,-0.3863,-0.363,-0.3609,-0.3529,-0.3397,-0.3302,-0.3229,-0.3381,-0.3402,-0.2969,0.0,-0.2767,-0.282,0.0,-0.2567,-0.3075,0.0,0.0,-0.3275,-0.3811,-0.421,-0.4169,-0.4473,-0.5288,-0.6855,-0.7743,-0.8259,-0.8346,-0.7184,-0.7262,-0.9249,-0.737,-0.7026,-0.9069,-0.7763,-0.6784,-0.646,-0.7182,-0.7532,-0.7378,-0.736,-0.7616,-0.8222,-0.8375,-0.8931,-0.9777,-1.0054,-1.0494,-1.1109,-1.1667,-1.194,-1.2109,-1.2914,-1.3094,-1.288,-1.2599,-1.2395,-1.2266,-1.2004,-1.1921,-1.1915,-0.2455,-0.2716,0.0,0.0,-0.419,-0.4916,-0.5471,-0.606,-0.6441,-0.6501,-0.6749,-0.7064,-0.7314,-0.7322,-0.7406,-0.7706,-0.7214,-0.657,-0.5779,-0.5422,-0.492,-0.4174,-0.4366,-0.4375,-0.4076,-0.4,-0.3639,-0.3008,-0.2776,-0.2427,-0.1996,-0.2151,-0.2438,-0.283,-0.2763,0.0,-0.3777,-0.4119,-0.4162,-0.4077,-0.5006,-0.4959,-0.4395,-0.5157,-0.5819,-0.6351,-0.6334,-0.6549,-0.6789,-0.6279,-0.5923,-0.5644,-0.5508,-0.5281,-0.4963,-0.4445,-0.422,-0.4072,-0.3836,-0.3817,-0.3764,-0.3492,-0.3589,-0.3604,-0.3147,-0.3036,-0.3056,-0.3092,0.0,0.0,0.0,0.0,0.0,0.0,-0.3536,-0.378,-0.371,-0.3892,-0.4477,-0.566,-0.6825,-0.7609,-0.7735,-0.7517,-0.7236,-0.6922,-0.6374,-0.6256,-0.6747,-0.6215,-0.5982,-0.6149,-0.6541,-0.6895,-0.7112,-0.716,-0.737,-0.7655,-0.7938,-0.8297,-0.8781,-0.9291,-0.9692,-0.9943,-1.0606,-1.1048,-1.1282,-1.1731,-1.1808,-1.1565,-1.109,-1.1266,-1.1705,-1.136,-1.1084,-1.0902,-0.2984,0.0,0.0,0.0,-0.4049,-0.4685,-0.5579,-0.6088,-0.6389,-0.6408,-0.6596,-0.7028,-0.7701,-0.7795,-0.7909,-0.8237,-0.8037,-0.7419,-0.6419,-0.6272,-0.5823,-0.4973,-0.5082,-0.5012,-0.4725,-0.461,-0.425,-0.3661,-0.3214,-0.2838,-0.252,-0.2383,-0.269,-0.336,-0.3043,-0.3502,-0.4542,0.0,-0.4531,-0.4552,-0.5371,-0.5336,-0.4859,-0.533,-0.5974,-0.6545,-0.6271,-0.6447,-0.677,-0.6508,-0.6166,-0.5918,-0.6185,-0.5992,-0.5615,-0.5228,-0.4979,-0.4787,-0.4443,-0.4303,-0.4137,-0.3785,-0.3714,-0.3603,-0.3298,-0.3211,-0.3252,-0.3427,-0.3393,0.0,0.0,0.0,-0.3236,-0.3201,0.0,-0.3528,-0.3461,-0.3668,-0.4037,-0.4618,-0.5732,-0.6577,-0.6837,-0.7236,-0.6799,-0.5149,-0.5582,-0.5609,-0.4921,-0.5333,-0.5737,-0.6115,-0.6396,-0.6814,-0.7245,-0.7245,-0.728,-0.7489,-0.7697,-0.7863,-0.7995,-0.8611,-0.8893,-0.8824,-0.9592,-1.0092,-1.0356,-1.074,-1.073,-1.0427,-0.9998,-1.0166,-1.0632,-1.0373,-1.0154,-1.009,-0.3483,-0.3084,0.0,0.0,-0.3213,-0.4146,-0.5098,-0.5403,-0.5669,-0.6083,-0.5832,-0.6252,-0.7813,-0.7405,-0.7561,-0.886,-0.839,-0.7862,-0.7558,-0.6701,-0.6249,-0.6318,-0.5354,-0.4974,-0.5275,-0.4896,-0.4389,-0.3808,-0.3458,-0.332,-0.3347,-0.2493,-0.2706,-0.3745,-0.3159,-0.3468,-0.4393,-0.4409,-0.4639,-0.5033,-0.551,-0.5963,-0.6273,-0.5797,-0.5763,-0.6073,-0.6455,-0.6456,-0.6397,-0.6843,-0.6934,-0.6846,-0.6702,-0.6898,-0.6977,-0.6192,-0.5868,-0.5701,-0.5348,-0.4796,-0.4257,-0.4036,-0.3688,-0.3382,-0.3323,-0.3237,-0.3337,-0.378,-0.3734,-0.3615,-0.3774,-0.3581,0.0,0.0,-0.3464,0.0,0.0,-0.3778,-0.3909,-0.3942,-0.4329,-0.4562,-0.4512,-0.4402,-0.4294,-0.415,-0.4173,-0.4311,-0.4597,-0.517,-0.5634,-0.5887,-0.6309,-0.6647,-0.6914,-0.6774,-0.6943,-0.7419,-0.7489,-0.7655,-0.7919,-0.7927,-0.7968,-0.8059,-0.8746,-0.9036,-0.9155,-1.0161,-1.0312,-0.9802,-0.9668,-0.9181,-0.86,-0.8593,-0.8939,-0.9468,0.0,0.0,0.0,0.0,-0.3403,-0.4106,-0.5046,-0.5584,-0.637,-0.7635,-0.7807,-0.8435,-1.0167,-1.0136,-1.0223,-1.0806,-1.0446,-0.9769,-0.886,-0.8776,-0.84,-0.7574,-0.765,-0.758,-0.7273,-0.6965,-0.6496,-0.5842,-0.494,-0.4439,-0.4314,-0.3983,-0.4122,-0.4647,-0.4213,-0.4665,0.0,0.0,-0.5197,-0.5208,-0.5455,-0.6088,-0.6816,-0.6276,-0.6387,-0.6836,-0.6711,-0.6828,-0.7057,-0.7346,-0.7075,-0.6631,-0.6931,-0.6674,-0.6179,-0.5687,-0.5535,-0.5416,-0.4905,-0.4902,-0.4899,-0.4449,-0.4307,-0.4197,-0.3906,-0.3833,-0.3868,-0.3884,-0.3745,-0.3629,-0.3656,-0.3311,0.0,0.0,0.0,-0.3177,0.0,-0.2875,-0.3008,-0.3103,-0.3651,-0.4171,-0.4511,-0.4607,-0.4507,-0.414,-0.4425,-0.4595,-0.4524,-0.4891,-0.5318,-0.5746,-0.6278,-0.6578,-0.6585,-0.6636,-0.6852,-0.7154,-0.7049,-0.7308,-0.7753,-0.7663,-0.7697,-0.7795,-0.7906,-0.8154,-0.8583,-0.8964,-0.8919,-0.8604,-0.8634,-0.8286,-0.7858,-0.8588,-0.893,-0.9156,-0.4829,0.0,0.0,-0.3799,-0.414,-0.4774,-0.5678,-0.6364,-0.7319,-0.8747,-0.9052,-0.9773,-1.1464,-1.1541,-1.1657,-1.2108,-1.193,-1.1335,-1.0168,-1.0197,-0.9807,-0.8789,-0.8857,-0.8856,-0.8617,-0.8299,-0.7723,-0.6961,-0.6251,-0.5659,-0.5153,-0.5011,-0.5079,-0.5305,-0.4798,-0.52,-0.6225,-0.5735,-0.5667,-0.5874,-0.6055,-0.6516,-0.7116,-0.6824,-0.6909,-0.7181,-0.7056,-0.7165,-0.7413,-0.7661,-0.7365,-0.6918,-0.7201,-0.6896,-0.636,-0.5944,-0.5795,-0.567,-0.5254,-0.5185,-0.5192,-0.4946,-0.4779,-0.4666,-0.445,-0.439,-0.4361,-0.4278,-0.4106,-0.3995,-0.4078,-0.3575,-0.318,0.0,0.0,0.0,0.0,-0.2578,-0.2628,-0.2783,-0.3293,-0.3773,-0.4164,-0.4264,-0.4151,-0.3768,-0.396,-0.4114,-0.4164,-0.4472,-0.499,-0.5746,-0.6187,-0.6441,-0.6504,-0.6475,-0.6605,-0.6894,-0.6719,-0.6943,-0.7419,-0.7238,-0.7238,-0.7454,-0.7286,-0.7525,-0.7968,-0.8105,-0.7946,-0.771,-0.7871,-0.7581,-0.7147,-0.8122,-0.8461,-0.8618,-0.4989,-0.5169,-0.5203,-0.4851,-0.5299,-0.6003,-0.6885,-0.7663,-0.8477,-0.9433,-0.9683,-1.0312,-1.1807,-1.171,-1.1868,-1.2706,-1.2785,-1.2376,-1.1556,-1.0942,-1.0432,-1.0023,-0.9146,-0.8889,-0.9345,-0.884,-0.8132,-0.723,-0.7325,-0.6859,-0.5875,-0.5584,-0.5549,-0.5706,-0.493,-0.5125,-0.6009,-0.5591,-0.5999,-0.6915,-0.7136,-0.7225,-0.7255,-0.7451,-0.7324,-0.7115,-0.7484,-0.7475,-0.737,-0.7688,-0.7746,-0.7632,-0.7498,-0.749,-0.7438,-0.6918,-0.66,-0.6362,-0.6275,-0.5676,-0.5145,-0.5497,-0.5146,-0.4779,-0.497,-0.4885,-0.4789,-0.4894,-0.483,-0.4766,-0.4947,-0.4282,-0.3819,0.0,0.0,0.0,-0.3078,-0.2863,-0.2769,-0.2975,-0.3158,-0.3321,-0.3444,-0.3286,-0.3142,-0.3075,-0.2767,-0.2874,-0.3553,-0.3952,-0.4682,-0.5812,-0.5949,-0.6175,-0.6639,-0.6215,-0.6179,-0.6622,-0.6441,-0.6538,-0.6829,-0.6611,-0.6647,-0.6937,-0.6907,-0.7083,-0.737,-0.7587,-0.7433,-0.7097,-0.7346,-0.7,-0.6467,-0.7232,-0.7563,-0.7821,-0.5913,-0.6582,-0.7134,-0.7324,-0.6551,-0.6534,-0.8385,-0.8743,-0.9445,-1.1359,-1.189,-1.26,-1.4003,-1.3802,-1.3733,-1.4149,-1.365,-1.3095,-1.2637,-1.2253,-1.1885,-1.1531,-1.1269,-1.1183,-1.1353,-1.0254,-0.956,-0.9327,-0.7728,-0.7001,-0.704,-0.6284,-0.6022,-0.6198,-0.5838,-0.6021,-0.6561,-0.5957,-0.618,-0.6987,-0.7255,-0.7432,-0.7598,-0.7841,-0.7928,-0.7901,-0.789,-0.7752,-0.7537,-0.7729,-0.7375,-0.6888,-0.6857,-0.673,-0.6578,-0.6288,-0.6264,-0.6228,-0.5862,-0.567,-0.5597,-0.5528,-0.5321,-0.5171,-0.528,-0.5404,-0.5432,-0.5174,-0.5142,-0.5001,-0.4578,-0.4202,-0.3858,0.0,0.0,0.0,-0.3058,-0.2784,-0.2633,-0.2824,-0.2779,-0.2779,-0.2966,-0.2853,-0.2732,-0.2663,-0.2485,-0.2696,-0.3414,-0.3547,-0.4107,-0.5198,-0.5553,-0.5691,-0.5642,-0.5658,-0.5705,-0.5815,-0.5752,-0.5927,-0.6233,-0.6367,-0.6404,-0.6435,-0.6647,-0.6816,-0.6901,-0.7034,-0.686,-0.6508,-0.654,-0.6337,-0.622,-0.7107,-0.7523,-0.7727,-0.6713,-0.784,-0.8921,-0.9576,-0.8925,-0.866,-0.9853,-1.011,-1.0728,-1.23,-1.2871,-1.3517,-1.443,-1.4568,-1.4696,-1.49,-1.4467,-1.3978,-1.3649,-1.3128,-1.2744,-1.2421,-1.2195,-1.212,-1.2358,-1.1298,-1.0512,-1.0072,-0.8469,-0.7393,-0.6844,-0.6314,-0.6026,-0.5956,0.0,-0.5965,-0.6538,-0.648,-0.6693,-0.7107,-0.7432,-0.7637,0.0,-0.7996,-0.814,-0.816,-0.7978,-0.7841,-0.7734,-0.7648,-0.7312,-0.6941,-0.6775,-0.6625,-0.6411,-0.6098,-0.5968,-0.5887,-0.569,-0.5559,-0.5553,-0.5708,-0.5714,-0.5652,-0.5695,-0.5882,-0.5914,-0.5615,-0.5503,-0.5337,-0.5087,-0.4552,-0.3858,-0.3035,-0.2777,-0.2737,-0.2928,-0.2727,-0.2558,-0.2611,-0.2542,-0.2482,-0.2444,-0.2488,-0.2467,-0.2381,-0.2263,-0.2391,-0.2767,-0.3057,-0.363,-0.4541,-0.5012,-0.5285,-0.5385,-0.5534,-0.5604,-0.56,-0.5604,-0.5841,-0.6153,-0.6147,-0.6233,-0.6404,-0.6477,-0.6556,-0.6683,-0.6477,-0.6301,-0.6161,-0.5908,-0.5867,-0.5973,-0.6355,-0.6637,-0.6887,-0.7626,-0.9038,-1.0456,-1.1361,-1.1459,-1.1376,-1.1369,-1.1704,-1.2148,-1.2711,-1.3347,-1.3828,-1.4071,-1.4633,-1.5059,-1.51,-1.496,-1.4702,-1.4241,-1.3571,-1.3085,-1.2754,-1.2423,-1.2421,-1.2725,-1.193,-1.105,-1.0092,-0.9139,-0.7831,-0.6129,-0.6019,-0.5793,0.0,0.0,0.0,0.0,-0.6951,-0.7222,-0.7255,-0.7618,-0.7734,-0.7744,-0.7957,-0.8111,-0.813,-0.792,-0.7871,-0.7862,-0.7498,-0.7396,-0.7373,-0.6998,-0.683,-0.67,-0.6275,-0.59,-0.5631,-0.5809,-0.5551,-0.5361,-0.5969,-0.6117,-0.6107,-0.6107,-0.6211,-0.623,-0.6071,-0.5839,-0.5716,-0.5893,-0.4968,-0.3902,-0.3067,-0.2959,-0.2951,-0.2884,-0.2761,-0.2601,-0.2396,-0.2445,0.0,-0.2039,-0.2246,-0.2342,-0.2207,-0.2116,-0.2063,-0.2079,-0.2619,-0.3251,-0.3941,-0.4504,-0.4979,-0.5313,-0.554,-0.5647,-0.5588,-0.5722,-0.5953,-0.6186,-0.591,-0.6007,-0.6404,-0.6184,-0.6215,-0.638,-0.5873,-0.5696,-0.569,-0.5338,-0.529,-0.5486,-0.5251,-0.529,-0.5555,-0.9719,-1.0565,-1.1284,-1.1383,-1.1987,-1.2645,-1.3226,-1.3228,-1.3361,-1.3867,-1.4539,-1.4993,-1.5038,-1.5051,-1.4971,-1.4637,-1.4328,-1.3905,-1.3217,-1.3184,-1.294,-1.2407,-1.279,-1.2939,-1.2881,-1.2012,-1.1229,-1.051,-0.8921,-0.7722,-0.6881,-0.6066,-0.5802,0.0,0.0,0.0,-0.6699,-0.678,-0.7036,-0.7381,-0.749,-0.7656,-0.7792,-0.7831,-0.7879,-0.7977,-0.8094,-0.8086,-0.7992,-0.7408,-0.7383,-0.7476,-0.7044,-0.7008,-0.7115,-0.706,-0.6636,-0.6241,-0.6602,-0.6236,-0.5847,-0.6195,-0.6236,-0.6202,-0.6246,-0.6265,-0.6309,-0.627,-0.6172,-0.5967,-0.5564,-0.469,-0.3955,-0.3748,-0.3475,-0.3286,-0.3209,-0.3177,-0.2929,-0.2313,-0.2456,-0.2431,-0.2037,-0.2291,-0.2388,-0.214,-0.2001,-0.2095,-0.2478,-0.2548,-0.2924,-0.3648,-0.4352,-0.461,-0.4431,-0.5055,-0.523,-0.4948,-0.5491,-0.5524,-0.5168,-0.5445,-0.5275,-0.4845,-0.5265,-0.5216,-0.4822,-0.5048,-0.4783,-0.4272,-0.4426,-0.4262,-0.4016,-0.4244,-0.4164,-0.4092,-1.1965,-1.2273,-1.2583,-1.3097,-1.3075,-1.3334,-1.4389,-1.4347,-1.4138,-1.396,-1.4316,-1.4552,-1.4552,-1.4824,-1.4914,-1.4686,-1.4563,-1.4317,-1.3949,-1.3553,-1.3242,-1.3028,-1.2858,-1.2708,-1.2681,-1.1991,-1.1248,-1.04,-0.8929,-0.7691,-0.6683,-0.5981,-0.576,-0.5941,0.0,-0.62,-0.6397,-0.6671,-0.7036,-0.7411,-0.746,-0.7569,-0.7656,-0.7656,-0.7588,-0.7577,-0.7797,-0.7849,-0.7839,-0.7757,-0.787,-0.7948,-0.7504,-0.74,-0.7451,-0.738,-0.6993,-0.6647,-0.6767,-0.655,-0.6335,-0.635,-0.6431,-0.651,-0.6422,-0.6391,-0.6321,-0.6162,-0.6018,-0.5769,-0.5199,-0.4524,-0.3975,-0.375,-0.3424,-0.3224,-0.3239,-0.321,-0.3003,-0.2466,-0.253,-0.2501,-0.219,-0.2272,-0.2251,-0.2018,-0.1779,-0.1744,-0.2009,-0.2032,-0.2242,-0.2717,-0.3445,-0.3881,-0.4051,-0.4664,-0.4893,-0.4719,-0.5052,-0.5091,-0.4852,-0.479,-0.4748,-0.4709,-0.4787,-0.4696,-0.4482,-0.4443,-0.4001,-0.3394,-0.3685,-0.356,-0.3268,-0.345,-0.3416,-0.3406,-1.3683,-1.3805,-1.3915,-1.4318,-1.3973,-1.4057,-1.5127,-1.5148,-1.4785,-1.4158,-1.4104,-1.4161,-1.4105,-1.4507,-1.4744,-1.4619,-1.4631,-1.4609,-1.4508,-1.3883,-1.3509,-1.3509,-1.2894,-1.254,-1.255,-1.2082,-1.1337,-1.0281,-0.9217,-0.7939,-0.6517,-0.6116,-0.5893,-0.5908,-0.6286,-0.644,-0.642,-0.683,-0.7206,-0.7481,-0.7439,-0.7421,-0.7421,-0.7421,-0.7379,-0.7348,-0.767,-0.7747,-0.7729,-0.8119,-0.8311,-0.8261,-0.7881,-0.7757,-0.7749,-0.7581,-0.7263,-0.693,-0.6884,-0.6788,-0.6697,-0.658,-0.67,-0.6801,-0.6645,-0.6428,-0.6221,-0.6062,-0.5804,-0.5433,-0.4788,-0.4404,-0.4021,-0.359,-0.3275,-0.3111,-0.3154,-0.3105,-0.2923,-0.2558,-0.2542,-0.2458,-0.228,-0.2089,-0.1948,-0.1845,-0.1637,-0.1529,-0.15,-0.1622,-0.1758,-0.1874,-0.2705,-0.3298,-0.3703,-0.4351,-0.4614,-0.447,-0.4648,-0.4639,-0.4504,-0.416,-0.4264,-0.4661,-0.4347,-0.4284,-0.4329,-0.383,-0.3345,-0.2895,-0.3089,-0.302,-0.2807,-0.2897,-0.2931,-0.2934,-1.3839,-1.4734,-1.4962,-1.3355,-1.4039,-1.4987,-1.5483,-1.5431,-1.5351,-1.5319,-1.5108,-1.4906,-1.4754,-1.4547,-1.4336,-1.4115,-1.3972,-1.3695,-1.3275,-1.3488,-1.3386,-1.2972,-1.3181,-1.312,-1.2667,-1.2521,-1.1761,-1.0465,-0.9864,-0.8778,-0.7296,-0.6822,-0.6582,-0.6539,-0.7111,-0.7456,-0.7634,-0.7435,-0.7497,-0.7735,-0.7299,-0.7175,-0.7225,-0.7225,-0.7393,-0.7734,-0.8219,-0.8192,-0.7927,-0.8347,-0.8332,-0.8089,-0.7817,-0.7818,-0.7967,-0.7937,-0.7549,-0.7111,-0.7359,-0.7117,-0.6839,-0.7052,-0.7001,-0.6881,-0.6937,-0.6386,-0.5922,-0.6142,-0.5712,-0.5134,-0.4372,-0.4384,-0.4291,-0.3672,-0.3508,-0.3355,-0.3156,-0.2933,-0.2692,-0.2286,-0.2294,-0.227,-0.2133,-0.1622,-0.1379,-0.1607,-0.1818,-0.1822,-0.1515,-0.1855,-0.1985,-0.1826,-0.2951,-0.3391,-0.3075,-0.4079,-0.438,-0.3979,-0.4281,-0.4144,-0.361,-0.3716,-0.3656,-0.3571,-0.3653,-0.3688,-0.3651,-0.2996,-0.2742,-0.2794,-0.2854,-0.27,-0.2442,-0.2602,-0.2657,-0.2668,-1.6062,-1.6388,-1.6407,-1.5662,-1.5475,-1.579,-1.6842,-1.6437,-1.5976,-1.5866,-1.5515,-1.5136,-1.4997,-1.4653,-1.4297,-1.4019,-1.4033,-1.3945,-1.376,-1.3629,-1.3452,-1.3263,-1.3149,-1.3011,-1.2836,-1.2929,-1.2282,-1.0845,-1.0565,-0.9708,-0.8301,-0.7954,-0.7621,-0.7402,-0.789,-0.8029,-0.7863,-0.7715,-0.768,-0.7716,-0.7287,-0.7035,-0.6954,-0.7005,-0.6972,-0.7023,-0.7749,-0.7722,-0.7472,-0.8103,-0.8095,-0.7827,-0.7732,-0.7829,-0.8021,-0.8118,-0.8026,-0.786,-0.7818,-0.7732,-0.7599,-0.7391,-0.7209,-0.7041,-0.6859,-0.6349,-0.5927,-0.5964,-0.5448,-0.4865,-0.4444,-0.4184,-0.3975,-0.3814,-0.3368,-0.3088,-0.3166,-0.3001,-0.2747,-0.2251,-0.2347,-0.2364,-0.2119,-0.1726,-0.164,-0.1998,-0.1452,-0.1114,-0.1148,-0.1148,-0.1159,-0.1197,-0.2004,-0.2534,-0.2631,-0.3421,-0.3659,-0.3341,-0.349,-0.3359,-0.3005,-0.3011,-0.2945,-0.2925,-0.306,-0.2942,-0.271,-0.2605,-0.2369,-0.2123,-0.2635,-0.2468,-0.2022,-0.2273,-0.2289,-0.2243,-1.7616,-1.7788,-1.774,-1.7625,-1.6909,-1.6728,-1.7737,-1.742,-1.6848,-1.6392,-1.5888,-1.5417,-1.4882,-1.4486,-1.4186,-1.4104,-1.4093,-1.4129,-1.4176,-1.3782,-1.3566,-1.3566,-1.3226,-1.2986,-1.2904,-1.2998,-1.2472,-1.1275,-1.104,-1.0394,-0.9274,-0.8757,-0.8403,-0.8139,-0.8509,-0.8472,-0.813,-0.8164,-0.813,-0.8017,-0.7598,-0.7319,-0.7161,-0.7063,-0.6969,-0.6967,-0.7381,-0.7394,-0.7257,-0.7858,-0.7778,-0.7515,-0.7732,-0.7863,-0.8021,-0.8118,-0.8167,-0.8126,-0.7897,-0.787,-0.7795,-0.7419,-0.7167,-0.6921,-0.6732,-0.627,-0.5847,-0.562,-0.5193,-0.4762,-0.4499,-0.4174,-0.3898,-0.3756,-0.3328,-0.301,-0.3104,-0.2945,-0.2747,-0.2377,-0.2395,-0.2381,-0.222,-0.1927,-0.1855,-0.2144,-0.1295,-0.0896,-0.1199,-0.0957,-0.0879,-0.1066,-0.1559,-0.2011,-0.2447,-0.2899,-0.308,-0.2948,-0.2948,-0.2815,-0.2595,-0.2537,-0.25,-0.2476,-0.2582,-0.2449,-0.215,-0.233,-0.2186,-0.1932,-0.2517,-0.2397,-0.1986,-0.2248,-0.2268,-0.2214,-1.7793,-1.8533,-1.8868,-1.8278,-1.8103,-1.7955,-1.7883,-1.8211,-1.8051,-1.6924,-1.6546,-1.5812,-1.4385,-1.3952,-1.3962,-1.4384,-1.4046,-1.3905,-1.4176,-1.3847,-1.3658,-1.381,-1.3552,-1.3228,-1.292,-1.2627,-1.2233,-1.1677,-1.1291,-1.0776,-1.0173,-0.9089,-0.8613,-0.8697,-0.8967,-0.8929,-0.8697,-0.8967,-0.8995,-0.8856,-0.8379,-0.8158,-0.8018,-0.7491,-0.7635,-0.8002,-0.7398,-0.7387,-0.7594,-0.7695,-0.7346,-0.7036,-0.7751,-0.7979,-0.8021,-0.8021,-0.7863,-0.767,-0.7523,-0.7363,-0.7216,-0.7216,-0.6793,-0.6459,-0.6666,-0.6196,-0.5588,-0.5188,-0.5067,-0.4854,-0.4408,-0.4408,-0.4262,-0.3545,-0.339,-0.3299,-0.2947,-0.2657,-0.255,-0.2669,-0.2335,-0.2194,-0.2365,-0.2088,-0.1866,-0.1803,-0.155,-0.1553,-0.1968,-0.1681,-0.1546,-0.1674,-0.1953,-0.2262,-0.2576,-0.2655,-0.2776,-0.2912,-0.2776,-0.2551,-0.2328,-0.2521,-0.2472,-0.2196,-0.2214,-0.223,-0.2184,-0.2039,-0.2181,-0.2462,-0.2519,-0.2519,-0.2517,-0.2633,-0.2689,-0.2689,-1.8848,-1.9068,-1.9013,-1.8827,-1.8508,-1.8342,-1.8653,-1.804,-1.7225,-1.6628,-1.58,-1.4904,-1.3915,-1.381,-1.381,-1.3847,-1.3763,-1.3716,-1.381,-1.361,-1.3467,-1.3515,-1.3467,-1.3276,-1.2968,-1.3691,-1.3627,-1.2798,-1.2798,-1.2015,-1.0523,-0.9915,-0.955,-0.9386,-0.9468,-0.9359,-0.9103,-0.9094,-0.8914,-0.8604,-0.821,-0.7921,-0.7673,-0.754,-0.7463,-0.741,-0.7397,-0.7357,-0.7336,-0.751,-0.7462,-0.7353,-0.7578,-0.7614,-0.7614,-0.7648,-0.7739,-0.7795,-0.7663,-0.767,-0.7628,-0.7447,-0.716,-0.6921,-0.6836,-0.627,-0.5707,-0.5448,-0.5154,-0.4898,-0.4499,-0.4328,-0.4132,-0.3904,-0.3413,-0.3073,-0.3113,-0.2783,-0.2488,-0.2329,-0.2274,-0.2182,-0.2071,-0.1873,-0.1832,-0.2004,-0.1432,-0.1147,-0.1373,-0.1319,-0.1304,-0.129,-0.1922,-0.2236,-0.2273,-0.2697,-0.2768,-0.2504,-0.2551,-0.2452,-0.224,-0.2315,-0.2203,-0.1907,-0.1846,-0.1728,-0.16,-0.1895,-0.1849,-0.1738,-0.241,-0.2355,-0.1906,-0.2128,-0.2186,-0.2076,-1.8797,-1.8968,-1.9075,-1.9075,-1.8903,-1.8809,-1.9023,-1.8333,-1.7384,-1.642,-1.5656,-1.4718,-1.358,-1.3515,-1.3563,-1.3621,-1.3515,-1.3467,-1.3515,-1.3382,-1.3286,-1.3228,-1.3399,-1.3312,-1.2813,-1.3698,-1.3812,-1.3138,-1.3179,-1.2494,-1.112,-1.0597,-1.0241,-1.0045,-0.9796,-0.9648,-0.9578,-0.9168,-0.8996,-0.8954,-0.8451,-0.8119,-0.7923,-0.7784,-0.7632,-0.7479,-0.7364,-0.7362,-0.7379,-0.7371,-0.7389,-0.7363,-0.7314,-0.728,-0.7245,-0.744,-0.7614,-0.7704,-0.7628,-0.7579,-0.753,-0.7356,-0.703,-0.6667,-0.6371,-0.5981,-0.562,-0.5404,-0.5154,-0.4898,-0.4548,-0.4368,-0.4232,-0.3972,-0.3575,-0.3246,-0.3107,-0.29,-0.2588,-0.2123,-0.2199,-0.2189,-0.1906,-0.1876,-0.1885,-0.192,-0.1391,-0.1079,-0.1097,-0.111,-0.124,-0.1492,-0.1884,-0.2172,-0.2314,-0.2483,-0.2502,-0.237,-0.2182,-0.2013,-0.1946,-0.1776,-0.158,-0.144,-0.1405,-0.1266,-0.1122,-0.1513,-0.1513,-0.1347,-0.2018,-0.202,-0.1628,-0.185,-0.185,-0.1794,-1.7802,-1.8309,-1.8965,-1.9027,-1.9093,-1.9093,-1.9013,-1.8868,-1.8164,-1.6506,-1.5986,-1.5118,-1.35,-1.328,-1.3347,-1.3566,-1.3334,-1.3266,-1.3362,-1.321,-1.3075,-1.2958,-1.3402,-1.3281,-1.248,-1.2878,-1.3035,-1.288,-1.2638,-1.2335,-1.1868,-1.1045,-1.0672,-1.0646,-0.9966,-0.9785,-0.9996,-0.9182,-0.9198,-0.9666,-0.8947,-0.8675,-0.8602,-0.8125,-0.8047,-0.809,-0.7334,-0.7323,-0.7626,-0.7328,-0.718,-0.7167,-0.7027,-0.695,-0.6956,-0.7314,-0.7405,-0.7335,-0.7335,-0.7154,-0.6979,-0.6937,-0.6492,-0.5895,-0.5451,-0.5418,-0.5404,-0.5145,-0.5009,-0.4879,-0.4543,-0.4526,-0.4382,-0.3785,-0.3788,-0.3608,-0.2998,-0.2989,-0.282,-0.2107,-0.22,-0.2156,-0.1825,-0.1994,-0.1981,-0.1543,-0.1326,-0.1157,-0.1041,-0.0987,-0.1326,-0.2121,-0.1897,-0.206,-0.264,-0.2105,-0.2062,-0.2429,-0.1734,-0.1416,-0.142,-0.0996,-0.0799,-0.0803,-0.0996,-0.0954,-0.0729,-0.101,-0.1178,-0.1347,-0.1515,-0.1572,-0.1572,-0.1685,-0.1738,-0.168,-1.7132,-1.7201,-1.7462,-1.7926,-1.7761,-1.7698,-1.825,-1.7739,-1.7246,-1.6971,-1.6517,-1.5738,-1.4705,-1.4182,-1.3743,-1.342,-1.3273,-1.318,-1.3094,-1.3113,-1.2978,-1.2774,-1.2871,-1.2683,-1.2224,-1.2776,-1.3035,-1.288,-1.2965,-1.2492,-1.1569,-1.0874,-1.0567,-1.0527,-1.0136,-0.99,-0.9765,-0.951,-0.925,-0.8952,-0.8666,-0.8447,-0.8324,-0.8164,-0.809,-0.8005,-0.7658,-0.7532,-0.7516,-0.7293,-0.7196,-0.7174,-0.6999,-0.6914,-0.6872,-0.6774,-0.6816,-0.6816,-0.666,-0.6617,-0.6605,-0.6575,-0.6355,-0.6085,-0.5747,-0.5497,-0.528,-0.5053,-0.4763,-0.4544,-0.4517,-0.4299,-0.4033,-0.3767,-0.3524,-0.3256,-0.2956,-0.2785,-0.2614,-0.2283,-0.2288,-0.2135,-0.168,-0.1628,-0.1301,-0.0584,-0.0361,-0.0314,-0.0558,-0.0553,-0.0918,-0.1775,-0.2135,-0.2325,-0.2333,-0.2328,-0.223,-0.1973,-0.1369,-0.1066,-0.0947,-0.0849,-0.0702,-0.0499,-0.0727,-0.0842,-0.0898,-0.1122,-0.129,-0.1347,-0.1628,-0.1515,-0.1234,-0.1234,-0.1178,-0.1121,-1.6715,-1.6602,-1.6785,-1.7378,-1.7595,-1.775,-1.8053,-1.7716,-1.7296,-1.7159,-1.6476,-1.5703,-1.4919,-1.434,-1.3883,-1.3504,-1.3223,-1.3007,-1.2861,-1.2978,-1.2881,-1.2627,-1.2759,-1.262,-1.2126,-1.2563,-1.2767,-1.2568,-1.3041,-1.2761,-1.179,-1.1361,-1.1081,-1.087,-1.0481,-1.0245,-1.0204,-0.9642,-0.9352,-0.9189,-0.8594,-0.8315,-0.8265,-0.8063,-0.7919,-0.787,-0.7753,-0.7621,-0.7482,-0.7363,-0.7293,-0.7174,-0.6956,-0.6829,-0.6653,-0.6355,-0.6435,-0.6605,-0.6538,-0.6496,-0.6416,-0.6169,-0.6054,-0.5936,-0.5571,-0.538,-0.5241,-0.4971,-0.48,-0.4635,-0.4565,-0.441,-0.4248,-0.4085,-0.3792,-0.352,-0.3253,-0.306,-0.2737,-0.2322,-0.2159,-0.1869,-0.1413,-0.1187,-0.0754,-0.0091,0.0132,0.0086,-0.0258,-0.0308,-0.075,-0.169,-0.1947,-0.2033,-0.1985,-0.189,-0.1612,-0.1205,-0.0768,-0.058,-0.06,-0.0436,-0.0275,-0.0224,-0.0393,-0.0561,-0.0673,-0.0954,-0.1066,-0.1122,-0.1234,-0.1066,-0.0673,-0.0673,-0.0561,-0.0393,-1.6905,-1.6674,-1.6667,-1.7181,-1.7823,-1.8235,-1.806,-1.807,-1.7829,-1.7209,-1.6463,-1.5713,-1.5042,-1.4494,-1.4076,-1.3874,-1.3359,-1.2948,-1.2723,-1.2871,-1.2792,-1.2431,-1.2761,-1.2679,-1.2036,-1.2319,-1.2387,-1.2246,-1.2975,-1.2923,-1.2158,-1.2,-1.174,-1.1259,-1.0778,-1.0713,-1.0779,-0.9707,-0.951,-0.9729,-0.8647,-0.8268,-0.8283,-0.7917,-0.773,-0.7723,-0.7715,-0.7651,-0.7546,-0.7454,-0.7356,-0.7143,-0.6927,-0.6685,-0.6453,-0.6116,-0.619,-0.6441,-0.6538,-0.6416,-0.6228,-0.5873,-0.577,-0.5652,-0.5168,-0.5149,-0.5111,-0.4801,-0.4806,-0.4819,-0.4613,-0.4504,-0.4456,-0.4405,-0.4168,-0.3829,-0.3503,-0.3288,-0.2915,-0.2233,-0.1873,-0.1531,-0.1121,-0.0739,-0.0313,0.0151,0.0391,0.0334,-0.0096,-0.0191,-0.0657,-0.1507,-0.1579,-0.16,-0.1572,-0.1108,-0.0701,-0.0479,-0.0161,-0.0109,-0.028,0.0056,0.0168,0.0056,-0.0056,-0.0224,-0.0336,-0.0507,-0.0621,-0.0791,-0.0625,-0.0398,-0.0171,-0.0171,0.0,0.0226,-1.8716,-1.7787,-1.7032,-1.6972,-1.7318,-1.7632,-1.7686,-1.782,-1.7941,-1.7841,-1.7609,-1.7224,-1.6744,-1.588,-1.515,-1.4615,-1.3959,-1.338,-1.2908,-1.2991,-1.2789,-1.2194,-1.224,-1.209,-1.1778,-1.2219,-1.2413,-1.2358,-1.2814,-1.2642,-1.1841,-1.1841,-1.1584,-1.1124,-1.1057,-1.0914,-1.0694,-0.9927,-0.955,-0.9426,-0.8554,-0.8124,-0.807,-0.7982,-0.7962,-0.7928,-0.7809,-0.7755,-0.7713,-0.7376,-0.7244,-0.7134,-0.668,-0.6512,-0.6433,-0.6082,-0.6019,-0.6062,-0.5895,-0.5852,-0.5798,-0.5717,-0.5642,-0.5443,-0.5115,-0.4957,-0.4801,-0.4451,-0.4324,-0.424,-0.4333,-0.4059,-0.3873,-0.3922,-0.3608,-0.3168,-0.2741,-0.2552,-0.231,-0.1922,-0.1546,-0.1208,-0.0939,-0.0454,0.0047,0.0576,0.0793,0.0579,-0.015,-0.0145,-0.0337,-0.0842,-0.1347,-0.1463,-0.1094,-0.0406,-0.0158,-0.032,0.011,0.0223,0.0112,0.0168,0.0224,0.0336,0.0168,0.0112,0.0112,0.0116,-0.0058,-0.0293,-0.0121,0.0,0.0061,0.0061,0.0239,0.0409,-1.8449,-1.8019,-1.7536,-1.7259,-1.7423,-1.7506,-1.7455,-1.7615,-1.7773,-1.7716,-1.7321,-1.69,-1.6523,-1.5557,-1.4968,-1.4911,-1.4403,-1.4127,-1.4089,-1.3534,-1.3052,-1.266,-1.2549,-1.2253,-1.1782,-1.1971,-1.2083,-1.2167,-1.2545,-1.2453,-1.1923,-1.1958,-1.1751,-1.1281,-1.1374,-1.119,-1.074,-1.0522,-0.9982,-0.9235,-0.8714,-0.8338,-0.8026,-0.7874,-0.7814,-0.7754,-0.7809,-0.7854,-0.7834,-0.7607,-0.7556,-0.7504,-0.7003,-0.6629,-0.6401,-0.6138,-0.6007,-0.5976,-0.5798,-0.5717,-0.568,-0.5631,-0.5501,-0.5323,-0.498,-0.4849,-0.467,-0.4188,-0.4219,-0.4237,-0.4036,-0.3887,-0.3708,-0.3407,-0.308,-0.273,-0.2368,-0.2175,-0.1974,-0.1761,-0.126,-0.0818,-0.0539,-0.0098,0.0356,0.0763,0.0904,0.0625,-0.0104,0.0,-0.0152,-0.0706,-0.0746,-0.0448,0.0202,0.0419,0.0543,0.0619,0.0786,0.08,0.065,0.0399,0.0457,0.0768,0.058,0.0524,0.0592,0.0601,0.0483,0.0242,0.0551,0.0678,0.0738,0.0727,0.0776,0.0823,-1.7909,-1.8076,-1.8006,-1.7619,-1.7629,-1.7632,-1.7377,-1.7572,-1.7619,-1.7406,-1.6902,-1.6419,-1.5983,-1.5209,-1.4851,-1.5069,-1.476,-1.466,-1.5013,-1.3979,-1.3274,-1.3212,-1.2865,-1.2449,-1.197,-1.1862,-1.1932,-1.2076,-1.2299,-1.2299,-1.2019,-1.2125,-1.1865,-1.1339,-1.1478,-1.1249,-1.0779,-1.0739,-1.0219,-0.9394,-0.8987,-0.8548,-0.821,-0.7976,-0.7726,-0.7628,-0.7808,-0.7885,-0.7872,-0.7752,-0.7778,-0.7721,-0.7212,-0.6812,-0.6484,-0.6129,-0.5948,-0.5843,-0.5788,-0.5712,-0.5614,-0.5538,-0.5356,-0.5154,-0.4884,-0.4763,-0.4582,-0.413,-0.4233,-0.4247,-0.388,-0.3739,-0.3488,-0.3069,-0.2661,-0.2338,-0.2057,-0.1816,-0.1595,-0.1466,-0.0903,-0.0461,-0.0155,0.0212,0.0545,0.0784,0.0898,0.0718,0.016,0.0319,0.0158,-0.0358,0.0,0.0479,0.1119,0.1127,0.1223,0.1415,0.1322,0.1229,0.111,0.0763,0.0767,0.1049,0.1023,0.0967,0.0927,0.112,0.0997,0.0809,0.1191,0.1383,0.1443,0.135,0.1273,0.126,-1.7976,-1.8279,-1.8259,-1.7668,-1.7813,-1.7823,-1.756,-1.7638,-1.7513,-1.7016,-1.7032,-1.6784,-1.5836,-1.5814,-1.5671,-1.5236,-1.479,-1.464,-1.4826,-1.3933,-1.345,-1.3546,-1.2805,-1.2401,-1.2355,-1.2133,-1.2092,-1.2281,-1.2313,-1.2188,-1.198,-1.2003,-1.1705,-1.1182,-1.1044,-1.0848,-1.0694,-1.0098,-0.997,-0.9984,-0.915,-0.8717,-0.8533,-0.8419,-0.8153,-0.7858,-0.7917,-0.7917,-0.7878,-0.7624,-0.7505,-0.7466,-0.703,-0.6915,-0.6801,-0.6139,-0.5713,-0.5453,-0.558,-0.5564,-0.5507,-0.5505,-0.5268,-0.4994,-0.4925,-0.4722,-0.4477,-0.4375,-0.4189,-0.4043,-0.4172,-0.3484,-0.2893,-0.288,-0.2354,-0.1857,-0.1613,-0.1309,-0.1017,-0.0737,-0.0318,-0.0054,0.0,0.039,0.0615,0.0449,0.0954,0.1106,0.0747,0.0746,0.0744,0.069,0.0744,0.0746,0.0852,0.1427,0.1647,0.1415,0.1412,0.1316,0.1112,0.1169,0.1169,0.1049,0.1292,0.1292,0.1052,0.1717,0.1734,0.1287,0.1919,0.2007,0.1805,0.1667,0.1573,0.1472,-1.7394,-1.7657,-1.7794,-1.7461,-1.7451,-1.7451,-1.7185,-1.7176,-1.712,-1.6757,-1.6714,-1.6606,-1.6111,-1.5697,-1.5405,-1.5245,-1.4635,-1.4449,-1.4877,-1.3917,-1.332,-1.3194,-1.2482,-1.2172,-1.234,-1.1785,-1.1678,-1.1968,-1.1842,-1.1783,-1.1716,-1.1606,-1.1478,-1.1348,-1.1226,-1.1107,-1.1042,-1.0679,-1.03,-0.984,-0.9336,-0.8851,-0.8447,-0.8508,-0.8256,-0.7943,-0.8044,-0.8007,-0.7884,-0.7677,-0.7598,-0.7559,-0.7154,-0.6829,-0.6416,-0.5668,-0.5483,-0.553,-0.5431,-0.533,-0.5211,-0.5167,-0.495,-0.4771,-0.4644,-0.4416,-0.4168,-0.387,-0.3837,-0.3785,-0.34,-0.3056,-0.2679,-0.2179,-0.1786,-0.1366,-0.086,-0.0741,-0.0634,-0.0493,-0.022,0.0,0.0,0.0449,0.0729,0.0729,0.1178,0.1283,0.0771,0.0715,0.0833,0.1021,0.1225,0.1322,0.1432,0.1614,0.1708,0.1707,0.173,0.1779,0.1838,0.1647,0.173,0.2016,0.1787,0.1856,0.2085,0.2109,0.2162,0.2134,0.2264,0.2332,0.2294,0.2031,0.18,0.1688,-1.7254,-1.7314,-1.7461,-1.7323,-1.7245,-1.7097,-1.683,-1.683,-1.6706,-1.6363,-1.6365,-1.6251,-1.5815,-1.5528,-1.5163,-1.4854,-1.4418,-1.4204,-1.447,-1.363,-1.2989,-1.2864,-1.2315,-1.2075,-1.2204,-1.1623,-1.1387,-1.1503,-1.1328,-1.1314,-1.1361,-1.1196,-1.1264,-1.1511,-1.1123,-1.0975,-1.1063,-1.0723,-1.0262,-0.9689,-0.9388,-0.896,-0.8506,-0.8509,-0.8214,-0.7842,-0.8002,-0.7949,-0.7735,-0.7676,-0.7616,-0.7563,-0.7192,-0.6654,-0.599,-0.5515,-0.5388,-0.5301,-0.5202,-0.5024,-0.4927,-0.4923,-0.4727,-0.4599,-0.4452,-0.4261,-0.3994,-0.364,-0.36,-0.3478,-0.2987,-0.2666,-0.2304,-0.1732,-0.1406,-0.0983,-0.0447,-0.0385,-0.0381,-0.0275,-0.0055,0.0055,0.011,0.0497,0.0777,0.0897,0.1347,0.1459,0.1066,0.1132,0.1208,0.1355,0.1614,0.1823,0.1881,0.1877,0.1898,0.194,0.215,0.2274,0.2351,0.2151,0.2192,0.2452,0.223,0.2178,0.2351,0.2421,0.2462,0.2491,0.2604,0.2594,0.2483,0.2265,0.1984,0.1702,-1.7588,-1.7461,-1.7254,-1.7235,-1.7166,-1.7028,-1.6673,-1.6603,-1.639,-1.5792,-1.6025,-1.5843,-1.4752,-1.5352,-1.535,-1.4189,-1.4123,-1.3901,-1.3404,-1.2875,-1.2651,-1.2689,-1.2421,-1.2202,-1.2027,-1.1665,-1.1254,-1.0815,-1.0815,-1.0922,-1.1063,-1.0741,-1.0938,-1.1531,-1.0533,-1.031,-1.0583,-0.9917,-0.9669,-0.9765,-0.9207,-0.9029,-0.8918,-0.8433,-0.8008,-0.7729,-0.7723,-0.7622,-0.7521,-0.7521,-0.7521,-0.7461,-0.7192,-0.6443,-0.5731,-0.577,-0.5317,-0.4793,-0.491,-0.468,-0.457,-0.4842,-0.467,-0.4435,-0.4481,-0.4239,-0.3984,-0.39,-0.3503,-0.3184,-0.3187,-0.234,-0.167,-0.1781,-0.1288,-0.0785,-0.0449,-0.0393,-0.0277,-0.0053,0.0107,0.0266,0.0373,0.0692,0.0919,0.0895,0.1459,0.1797,0.1797,0.1967,0.2,0.171,0.1942,0.2116,0.2116,0.2294,0.2294,0.2116,0.2491,0.259,0.2407,0.2666,0.251,0.2065,0.2521,0.2284,0.1681,0.2621,0.269,0.2287,0.2958,0.2893,0.2415,0.2348,0.2035,0.1601,-1.7024,-1.7128,-1.73,-1.6866,-1.6682,-1.6551,-1.6412,-1.6412,-1.6298,-1.6035,-1.6062,-1.6044,-1.5679,-1.5503,-1.4985,-1.4056,-1.3651,-1.3068,-1.2304,-1.2243,-1.2205,-1.2088,-1.2128,-1.2074,-1.1844,-1.1428,-1.1145,-1.0983,-1.0983,-1.0975,-1.0883,-1.079,-1.0909,-1.1233,-1.0699,-1.0632,-1.0919,-1.052,-1.0223,-1.0101,-0.9748,-0.9364,-0.9053,-0.8895,-0.8609,-0.8252,-0.8181,-0.7894,-0.765,-0.7529,-0.7306,-0.6982,-0.649,-0.6013,-0.5599,-0.5382,-0.5082,-0.4892,-0.4886,-0.466,-0.4367,-0.4361,-0.4247,-0.4056,-0.3896,-0.3723,-0.3497,-0.3197,-0.3076,-0.289,-0.254,-0.2393,-0.21,-0.1561,-0.129,-0.0954,-0.0336,-0.0168,0.0,0.0276,0.0331,0.0387,0.0607,0.0884,0.1055,0.1065,0.1403,0.1685,0.1797,0.187,0.1899,0.1823,0.1955,0.201,0.1939,0.2176,0.2209,0.2161,0.2409,0.2507,0.2569,0.2651,0.2787,0.2965,0.2601,0.2509,0.269,0.2624,0.2528,0.2487,0.2734,0.2723,0.2553,0.2383,0.2309,0.2281,-1.7333,-1.741,-1.7493,-1.7024,-1.672,-1.6491,-1.6272,-1.6202,-1.6132,-1.578,-1.5638,-1.5568,-1.5497,-1.5133,-1.4552,-1.3787,-1.3145,-1.2493,-1.1839,-1.1872,-1.1809,-1.1615,-1.1747,-1.1807,-1.1743,-1.1428,-1.1202,-1.095,-1.095,-1.082,-1.0458,-1.0404,-1.0576,-1.0808,-1.0377,-1.0404,-1.0618,-1.0238,-1.0047,-0.9843,-0.9491,-0.9158,-0.8936,-0.8835,-0.8585,-0.8375,-0.8155,-0.7873,-0.7605,-0.7366,-0.7062,-0.6603,-0.6168,-0.5782,-0.5395,-0.5124,-0.4849,-0.4629,-0.4629,-0.4344,-0.4053,-0.3943,-0.3791,-0.3682,-0.3557,-0.3381,-0.3162,-0.2917,-0.2789,-0.264,-0.228,-0.2187,-0.2004,-0.1476,-0.121,-0.088,-0.0275,-0.0056,0.0167,0.0385,0.0495,0.0605,0.0714,0.099,0.1216,0.1345,0.1572,0.1741,0.1797,0.1876,0.1974,0.2035,0.2292,0.2363,0.2378,0.2624,0.2569,0.2284,0.2505,0.2722,0.2817,0.2877,0.3018,0.3157,0.2805,0.2715,0.2893,0.269,0.2599,0.2564,0.2737,0.2793,0.2756,0.264,0.2637,0.2745,-1.8142,-1.7928,-1.7703,-1.7504,-1.7095,-1.663,-1.6132,-1.6061,-1.5842,-1.5275,-1.4999,-1.4792,-1.4641,-1.4402,-1.4103,-1.3484,-1.2706,-1.2131,-1.1824,-1.1622,-1.1498,-1.131,-1.1303,-1.139,-1.1631,-1.1565,-1.1308,-1.083,-1.083,-1.0537,-0.9979,-0.9893,-1.0071,-1.0343,-0.9855,-0.9749,-0.9919,-0.953,-0.9338,-0.925,-0.8834,-0.8742,-0.8769,-0.8429,-0.8224,-0.8158,-0.7958,-0.7714,-0.7439,-0.7097,-0.6717,-0.6325,-0.6092,-0.5639,-0.5191,-0.4956,-0.4574,-0.4193,-0.4193,-0.4012,-0.375,-0.3629,-0.3405,-0.3271,-0.3321,-0.316,-0.2923,-0.283,-0.2638,-0.2447,-0.2153,-0.1855,-0.1576,-0.1476,-0.1063,-0.0639,-0.0213,0.0055,0.0277,0.0429,0.0696,0.0856,0.0749,0.1073,0.1415,0.1737,0.1746,0.1802,0.1797,0.2025,0.2145,0.2208,0.2705,0.3055,0.3077,0.34,0.325,0.2482,0.284,0.3122,0.3202,0.3326,0.3192,0.29,0.3047,0.2885,0.2491,0.2824,0.2757,0.249,0.2824,0.2956,0.3013,0.2862,0.2885,0.3002,-1.8036,-1.7824,-1.7651,-1.7108,-1.6465,-1.6008,-1.5867,-1.5568,-1.5346,-1.5204,-1.4919,-1.4641,-1.4569,-1.3978,-1.3406,-1.3006,-1.2238,-1.1696,-1.163,-1.1498,-1.131,-1.1122,-1.1122,-1.1199,-1.1304,-1.1093,-1.0902,-1.083,-1.083,-1.0699,-1.046,-1.0526,-1.0394,-1.0084,-1.0147,-0.9926,-0.9588,-0.9664,-0.9536,-0.9268,-0.9215,-0.9064,-0.8931,-0.888,-0.8535,-0.8196,-0.8269,-0.7834,-0.7116,-0.6722,-0.6388,-0.6149,-0.5891,-0.5384,-0.4844,-0.4779,-0.4411,-0.4024,-0.4024,-0.3944,-0.3723,-0.3442,-0.3142,-0.2923,-0.2923,-0.2756,-0.2498,-0.2196,-0.2059,-0.1859,-0.1534,-0.1544,-0.1466,-0.1015,-0.0784,-0.0479,-0.0106,0.0165,0.0447,0.0777,0.0832,0.0943,0.0999,0.1137,0.126,0.1405,0.1552,0.1673,0.18,0.214,0.2302,0.2259,0.2859,0.3026,0.2795,0.3297,0.3463,0.3236,0.3312,0.3381,0.3449,0.3202,0.3194,0.3416,0.2921,0.2836,0.3025,0.2691,0.2691,0.2891,0.2822,0.2889,0.2947,0.254,0.269,0.3019,-1.8364,-1.8013,-1.7665,-1.7237,-1.6517,-1.5859,-1.5576,-1.5275,-1.4982,-1.4697,-1.4425,-1.4217,-1.4217,-1.3562,-1.2957,-1.2402,-1.192,-1.1602,-1.1387,-1.1043,-1.0843,-1.087,-1.0733,-1.0732,-1.0904,-1.085,-1.0807,-1.093,-1.0807,-1.0599,-1.0269,-1.0471,-1.0292,-0.9794,-0.9857,-0.9716,-0.9396,-0.9344,-0.9221,-0.9022,-0.8958,-0.8823,-0.8624,-0.8565,-0.8306,-0.7967,-0.7856,-0.7429,-0.6822,-0.6533,-0.6194,-0.5851,-0.5649,-0.5098,-0.4579,-0.4572,-0.4229,-0.3832,-0.3778,-0.3674,-0.3484,-0.326,-0.2932,-0.2666,-0.2621,-0.2401,-0.2155,-0.1961,-0.1832,-0.1673,-0.1318,-0.1302,-0.1199,-0.0685,-0.0499,-0.0303,0.0051,0.0424,0.0657,0.0766,0.0944,0.1066,0.1291,0.1254,0.1315,0.1684,0.1735,0.1871,0.2185,0.2427,0.2607,0.2828,0.3184,0.3357,0.3209,0.366,0.3855,0.3727,0.3491,0.3491,0.366,0.3421,0.3391,0.3554,0.316,0.3119,0.3295,0.296,0.2891,0.3092,0.2956,0.309,0.3351,0.3105,0.3251,0.3627,-1.8556,-1.8058,-1.7555,-1.734,-1.6532,-1.5771,-1.5204,-1.4911,-1.4625,-1.4129,-1.3928,-1.3797,-1.3797,-1.3226,-1.2596,-1.1754,-1.1704,-1.1525,-1.1143,-1.0698,-1.0547,-1.0611,-1.0321,-1.0307,-1.0618,-1.0744,-1.087,-1.1052,-1.0863,-1.0547,-1.0068,-1.0265,-1.0114,-0.9655,-0.9623,-0.946,-0.921,-0.8958,-0.877,-0.8705,-0.8511,-0.8376,-0.8172,-0.8047,-0.7857,-0.7596,-0.7335,-0.6966,-0.6506,-0.6387,-0.5977,-0.5463,-0.5323,-0.4912,-0.4406,-0.433,-0.3952,-0.355,-0.3437,-0.3382,-0.3295,-0.3077,-0.2782,-0.2534,-0.2317,-0.208,-0.1869,-0.1817,-0.1717,-0.1514,-0.121,-0.1032,-0.0863,-0.0429,-0.0191,0.0,0.0191,0.056,0.0799,0.0692,0.0879,0.1178,0.1572,0.1297,0.1414,0.209,0.1979,0.2135,0.2552,0.269,0.2955,0.3347,0.3561,0.374,0.3823,0.4164,0.4231,0.4092,0.3714,0.3658,0.3889,0.3738,0.3682,0.3632,0.3632,0.3565,0.3563,0.336,0.3293,0.336,0.3295,0.3493,0.3825,0.3825,0.3949,0.414,-1.7832,-1.7282,-1.6779,-1.6569,-1.5846,-1.5204,-1.4784,-1.4569,-1.4353,-1.4129,-1.3928,-1.3797,-1.3797,-1.2958,-1.2128,-1.1425,-1.1248,-1.1171,-1.1129,-1.0892,-1.0759,-1.0744,-1.0647,-1.0577,-1.0744,-1.0681,-1.0751,-1.1059,-1.087,-1.0766,-1.0684,-1.0584,-1.0288,-0.9748,-0.9907,-0.9536,-0.8899,-0.8958,-0.8829,-0.8517,-0.8306,-0.8236,-0.8172,-0.8047,-0.7727,-0.7269,-0.7396,-0.6915,-0.6175,-0.6244,-0.5724,-0.5171,-0.5225,-0.466,-0.4062,-0.3907,-0.3543,-0.3151,-0.3151,-0.3266,-0.3297,-0.281,-0.2567,-0.2369,-0.1908,-0.175,-0.1666,-0.1413,-0.1312,-0.116,-0.0908,-0.0652,-0.0446,-0.024,0.0098,0.0346,0.0384,0.0407,0.0479,0.0586,0.0714,0.0954,0.1572,0.1324,0.1404,0.1928,0.1985,0.2144,0.2512,0.2837,0.3079,0.3155,0.3692,0.388,0.3825,0.4164,0.4364,0.4492,0.4265,0.4201,0.4231,0.4209,0.4212,0.4167,0.403,0.3961,0.3894,0.3623,0.3623,0.3894,0.3563,0.3696,0.3961,0.3825,0.3704,0.3512,-1.7281,-1.6759,-1.6348,-1.6338,-1.5519,-1.4848,-1.4765,-1.434,-1.4,-1.3775,-1.371,-1.3572,-1.3499,-1.2704,-1.1798,-1.1108,-1.0996,-1.087,-1.0814,-1.0588,-1.0443,-1.0548,-1.0338,-1.0269,-1.0358,-1.0301,-1.0364,-1.0491,-1.0618,-1.0688,-1.0681,-1.0491,-1.018,-0.9804,-0.9664,-0.928,-0.877,-0.877,-0.8641,-0.8517,-0.8376,-0.8306,-0.8172,-0.7922,-0.7661,-0.733,-0.7134,-0.6741,-0.6214,-0.6083,-0.5647,-0.5104,-0.4958,-0.4449,-0.3876,-0.3656,-0.3365,-0.3082,-0.2957,-0.297,-0.3011,-0.2745,-0.2485,-0.2237,-0.1809,-0.1538,-0.1287,-0.1125,-0.1072,-0.1012,-0.0888,-0.0468,-0.0103,0.0099,0.0349,0.0451,0.0296,0.0525,0.0718,0.09,0.0972,0.1202,0.1797,0.1617,0.1707,0.2235,0.2398,0.2589,0.2843,0.312,0.3364,0.3493,0.3735,0.3892,0.3825,0.4164,0.43,0.4295,0.4561,0.4628,0.4495,0.4492,0.4492,0.4431,0.4231,0.4231,0.4295,0.3959,0.3961,0.4164,0.4033,0.4033,0.4164,0.3961,0.3931,0.3899]},{"header":{"parameterUnit":"m.s-1","parameterCategory":1,"la1":30.6,"la2":28.766,"lo1":-90.7593,"lo2":-88.6598,"dy":0.0162,"dx":0.0183,"nx":116,"ny":114,"refTime":"2023-08-23T18:00:00:Z","depth":0,"parameterNumber":3,"parameterNumberName":"V-component_of_WINDS"},"data":[0.0,0.0,0.0,0.0,0.0,0.0,0.0,0.0,0.0,0.0,0.0,0.0,0.0,0.0,0.0,0.0,0.0,0.0,0.0,0.0,0.0,0.0,0.0,0.0,0.0,0.0,0.0,0.0,0.0,0.0,0.0,0.0,0.0,0.0,0.0,0.0,0.0,0.0,0.0,0.0,0.0,0.0,0.0,0.0,0.0,0.0,0.0,0.0,0.0,0.0,0.0,0.0,0.0,0.0,0.0,0.0,0.0,0.0,0.0,0.0,0.0,0.0,0.0,0.0,0.0,0.0,0.0,0.0,0.0,0.0,0.0,0.0,0.0,0.0,0.0,0.0,0.0,0.0,0.0,0.0,0.0,0.0,0.0,0.0,0.0,0.0,0.0,0.0,0.0,0.0,0.0,0.0,0.0,0.0,0.0,0.0,0.0,0.0,0.0,0.0,0.0,0.0,0.0,0.0,0.0,0.0,0.0,0.0,0.0,0.0,0.0,0.0,0.0,0.0,0.0,0.0,0.0,0.0,0.0,0.0,0.0,0.0,0.0,0.0,0.0,0.0,0.0,0.0,0.0,0.0,0.0,0.0,0.0,0.0,0.0,0.0,0.0,0.0,0.0,0.0,0.0,0.0,0.0,0.0,0.0,0.0,0.0,0.0,0.0,0.0,0.0,0.0,0.0,0.0,0.0,0.0,0.0,0.0,0.0,0.0,0.0,0.0,0.0,0.0,0.0,0.0,0.0,0.0,0.0,0.0,0.0,0.0,0.0,0.0,0.0,0.0,0.0,0.0,0.0,0.0,0.0,0.0,0.0,0.0,0.0,0.0,0.0,0.0,0.0,0.0,0.0,0.0,0.0,0.0,0.0,0.0,0.0,0.0,0.0,0.0,0.0,0.0,0.0,0.0,0.0,0.0,0.0,0.0,0.0,0.0,0.0,0.0,0.0,0.0,0.0,0.0,0.0,0.0,0.0,0.0,0.0,0.0,0.0,0.0,0.0,0.0,0.0,0.0,0.0,0.0,0.0,0.0,0.0,0.0,0.0,0.0,0.0,0.0,0.0,0.0,0.0,0.0,0.0,0.0,0.0,0.0,0.0,0.0,0.0,0.0,0.0,0.0,0.0,0.0,0.0,0.0,0.0,0.0,0.0,0.0,0.0,0.0,0.0,0.0,0.0,0.0,0.0,0.0,0.0,0.0,0.0,0.0,0.0,0.0,0.0,0.0,0.0,0.0,0.0,0.0,0.0,0.0,0.0,0.0,0.0,0.0,0.0,0.0,0.0,0.0,0.0,0.0,0.0,0.0,0.0,0.0,0.0,0.0,0.0,0.0,0.0,0.0,0.0,0.0,0.0,0.0,0.0,0.0,0.0,0.0,0.0,0.0,0.0,0.0,0.0,0.0,0.0,0.0,0.0,0.0,0.0,0.0,0.0,0.0,0.0,0.0,0.0,0.0,0.0,0.0,0.0,0.0,0.0,0.0,0.0,0.0,0.0,0.0,0.0,0.0,0.0,0.0,0.0,0.0,0.0,0.0,0.0,0.0,0.0,0.0,0.0,0.0,0.0,0.0,0.0,0.0,0.0,0.0,0.0,0.0,0.0,0.0,0.0,0.0,0.0,0.0,0.0,0.0,0.0,0.0,0.0,0.0,0.0,0.0,0.0,0.0,0.0,0.0,0.0,0.0,0.0,0.0,0.0,0.0,0.0,0.0,0.0,0.0,0.0,0.0,0.0,0.0,0.0,0.0,0.0,0.0,0.0,0.0,0.0,0.0,0.0,0.0,0.0,0.0,0.0,0.0,0.0,0.0,0.0,0.0,0.0,0.0,0.0,0.0,0.0,0.0,0.0,0.0,0.0,0.0,0.0,0.0,0.0,0.0,0.0,0.0,0.0,0.0,0.0,0.0,0.0,0.0,0.0,0.0,0.0,0.0,0.0,0.0,0.0,0.0,0.0,0.0,0.0,0.0,0.0,0.0,0.0,0.0,0.0,0.0,0.0,0.0,0.0,0.0,0.0,0.0,0.0,0.0,0.0,0.0,0.0,0.0,0.0,0.0,0.0,0.0,0.0,0.0,0.0,0.0,0.0,0.0,0.0,0.0,0.0,0.0,0.0,0.0,0.0,0.0,0.0,0.0,0.0,0.0,0.0,0.0,0.0,0.0,0.0,0.0,0.0,0.0,0.0,0.0,0.0,0.0,0.0,0.0,0.0,0.0,0.0,0.0,0.0,0.0,0.0,0.0,0.0,0.0,0.0,0.0,0.0,0.0,0.0,0.0,0.0,0.0,0.0,0.0,0.0,0.0,0.0,0.0,0.0,0.0,0.0,0.0,0.0,0.0,0.0,0.0,0.0,0.0,0.0,0.0,0.0,0.0,0.0,0.0,0.0,0.0,0.0,0.0,0.0,0.0,0.0,0.0,0.0,0.0,0.0,0.0,0.0,0.0,0.0,0.0,0.0,0.0,0.0,0.0,0.0,0.0,0.0,0.0,0.0,0.0,0.0,0.0,0.0,0.0,0.0,0.0,0.0,0.0,0.0,0.0,0.0,0.0,0.0,0.0,0.0,0.0,0.0,0.0,0.0,0.0,0.0,0.0,0.0,0.0,0.0,0.0,0.0,0.0,0.0,0.0,0.0,0.0,0.0,0.0,0.0,0.0,0.0,0.0,0.0,0.0,0.0,0.0,0.0,0.0,0.0,0.0,0.0,0.0,0.0,0.0,0.0,0.0,0.0,0.0,0.0,0.0,0.0,0.0,0.0,0.0,0.0,0.0,0.0,0.0,0.0,0.0,0.0,0.0,0.0,0.0,0.0,0.0,0.0,0.0,0.0,0.0,0.0,0.0,0.0,0.0,0.0,0.0,0.0,0.0,0.0,0.0,0.0,0.0,0.0,0.0,0.0,0.0,0.0,0.0,0.0,0.0,0.0,0.0,0.0,0.0,0.0,0.0,0.0,0.0,0.0,0.0,0.0,0.0,0.0,0.0,0.0,0.0,0.0,0.0,0.0,0.0,0.0,0.0,0.0,0.0,0.0,0.0,0.0,0.0,0.0,0.0,0.0,0.0,0.0,0.0,0.0,0.0,0.0,0.0,0.0,0.0,0.0,0.0,0.0,0.0,0.0,0.0,0.0,0.0,0.0,0.0,0.0,0.0,0.0,0.0,0.0,0.0,0.0,0.0,0.0,0.0,0.0,0.0,0.0,0.0,0.0,0.0,0.0,0.0,0.0,0.0,0.0,0.0,0.0,0.0,0.0,0.0,0.0,0.0,0.0,0.0,0.0,0.0,0.0,0.0,0.0,0.0,0.0,0.0,0.0,0.0,0.0,0.0,0.0,0.0,0.0,0.0,0.0,0.0,0.0,0.0,0.0,0.0,0.0,0.0,0.0,0.0,0.0,0.0,0.0,0.0,0.0,0.0,0.0,0.0,0.0,0.0,0.0,0.0,0.0,0.0,0.0,0.0,0.0,0.0,0.0,0.0,0.0,0.0,0.0,0.0,0.0,0.0,0.0,0.0,0.0,0.0,0.0,0.0,0.0,0.0,0.0,0.0,0.0,0.0,0.0,0.0,0.0,0.0,0.0,0.0,0.0,0.0,0.0,0.0,0.0,0.0,0.0,0.0,0.0,0.0,0.0,0.0,0.0,0.0,0.0,0.0,0.0,0.0,0.0,0.0,0.0,0.0,0.0,0.0,0.0,0.0,0.0,0.0,0.0,0.0,0.0,0.0,0.0,0.0,0.0,0.0,0.0,0.0,0.0,0.0,0.0,0.0,0.0,0.0,0.0,0.0,0.0,0.0,0.0,0.0,0.0,0.0,0.0,0.0,0.0,0.0,0.0,0.0,0.0,0.0,0.0,0.0,0.0,0.0,0.0,0.0,0.0,0.0,0.0,0.0,0.0,0.0,0.0,0.0,0.0,0.0,0.0,0.0,0.0,0.0,0.0,0.0,0.0,0.0,0.0,0.0,0.0,0.0,0.0,0.0,0.0,0.0,0.0,0.0,0.0,0.0,0.0,0.0,0.0,0.0,0.0,0.0,0.0,0.0,0.0,0.0,0.0,0.0,0.0,0.0,0.0,0.0,0.0,0.0,0.0,0.0,0.0,0.0,0.0,0.0,0.0,0.0,0.0,0.0,0.0,0.0,0.0,0.0,0.0,0.0,0.0,0.0,0.0,0.0,0.0,0.0,0.0,0.0,0.0,0.0,0.0,0.0,0.0,0.0,0.0,0.0,0.0,0.0,0.0,0.0,0.0,0.0,0.0,0.0,0.0,0.0,0.0,0.0,0.0,0.0,0.0,0.0,0.0,0.0,0.0,0.0,0.0,0.0,0.0,0.0,0.0,0.0,0.0,0.0,0.0,0.0,0.0,0.0,0.0,0.0,0.0,0.0,0.0,0.0,0.0,0.0,0.0,0.0,0.0,0.0,0.0,0.0,0.0,0.0,0.0,0.0,0.0,0.0,0.0,0.0,0.0,0.0,0.0,0.0,0.0,0.0,0.0,0.0,0.0,0.0,0.0,0.0,0.0,0.0,0.0,0.0,0.0,0.0,0.0,0.0,0.0,0.0,0.0,0.0,0.0,0.0,0.0,0.0,0.0,0.0,0.0,0.0,0.0,0.0,0.0,0.0,0.0,0.0,0.0,0.0,0.0,0.0,0.0,0.0,0.0,0.0,0.0,0.0,0.0,0.0,0.0,0.0,0.0,0.0,0.0,0.0,0.0,0.0,0.0,0.0,0.0,0.0,0.0,0.0,0.0,0.0,0.0,0.0,0.0,0.0,0.0,0.0,0.0,0.0,0.0,0.0,0.0,0.0,0.0,0.0,0.0,0.0,0.0,0.0,0.0,0.0,0.0,0.0,0.0,0.0,0.0,0.0,0.0,0.0,0.0,0.0,0.0,0.0,0.0,0.0,0.0,0.0,0.0,0.0,0.0,0.0,0.0,0.0,0.0,0.0,0.0,0.0,0.0,0.0,0.0,0.0,0.0,0.0,0.0,0.0,0.0,0.0,0.0,0.0,0.0,0.0,0.0,0.0,0.0,0.0,0.0,0.0,0.0,0.0,0.0,0.0,0.0,0.0,0.0,0.0,0.0,0.0,0.0,0.0,0.0,0.0,0.0,0.0,0.0,0.0,0.0,0.0,0.0,0.0,0.0,0.0,0.0,0.0,0.0,0.0,0.0,0.0,0.0,0.0,0.0,0.0,0.0,0.0,0.0,0.0,0.0,0.0,0.0,0.0,0.0,0.0,0.0,0.0,0.0,0.0,0.0,0.0,0.0,0.0,0.0,0.0,0.0,0.0,0.0,0.0,0.0,0.0,0.0,0.0,0.0,0.0,0.0,0.0,0.0,0.0,0.0,0.0,0.0,0.0,0.0,0.0,0.0,0.0,0.0,0.0,0.0,0.0,0.0,0.0,0.0,0.0,0.0,0.0,0.0,0.0,0.0,0.0,0.0,0.0,0.0,0.0,0.0,0.0,0.0,0.0,0.0,0.0,0.0,0.0,0.0,0.0,0.0,0.0,0.0,0.0,0.0,0.0,0.0,0.0,0.0,0.0,0.0,0.0,0.0,0.0,0.0,0.0,0.0,0.0,0.0,0.0,0.0,0.0,0.0,0.0,0.0,0.0,0.0,0.0,0.0,0.0,0.0,0.0,0.0,0.0,0.0,0.0,0.0,0.0,0.0,0.0,0.0,0.0,0.0,0.0,0.0,0.0,0.0,0.0,0.0,0.0,0.0,0.0,0.0,0.0,0.0,0.0,0.0,0.0,0.0,0.0,0.0,0.0,0.0,0.0,0.0,0.0,0.0,0.0,0.0,0.0,0.0,0.0,0.0,0.0,0.0,0.0,0.0,0.0,0.0,0.0,0.0,0.0,0.0,0.0,0.0,0.0,0.0,0.0,0.0,0.0,0.0,0.0,0.0,0.0,0.0,0.0,0.0,0.0,0.0,0.0,0.0,0.0,0.0,0.0,0.0,0.0,0.0,0.0,0.0,0.0,0.0,0.0,0.0,0.0,0.0,0.0,0.0,0.0,0.0,0.0,0.0,0.0,0.0,0.0,0.0,0.0,0.0,0.0,0.0,0.0,0.0,0.0,0.0,0.0,-1.0406,-0.9676,0.0,0.0,0.0,0.0,0.0,0.0,0.0,0.0,0.0,0.0,0.0,0.0,0.0,0.0,0.0,0.0,0.0,0.0,0.0,0.0,0.0,0.0,0.0,0.0,0.0,0.0,0.0,0.0,0.0,0.0,0.0,0.0,0.0,0.0,0.0,0.0,0.0,0.0,-0.6435,-0.714,-0.8867,-0.9151,-0.9487,-0.9815,0.0,0.0,0.0,0.0,0.0,0.0,0.0,0.0,0.0,0.0,0.0,0.0,0.0,0.0,0.0,0.0,0.0,0.0,0.0,0.0,0.0,0.0,0.0,0.0,0.0,0.0,0.0,0.0,0.0,0.0,0.0,0.0,0.0,0.0,0.0,0.0,0.0,0.0,0.0,0.0,0.0,0.0,0.0,0.0,0.0,0.0,0.0,0.0,0.0,0.0,0.0,0.0,0.0,0.0,0.0,0.0,0.0,0.0,0.0,0.0,0.0,0.0,0.0,0.0,0.0,0.0,0.0,0.0,0.0,0.0,-1.249,-1.2005,0.0,0.0,0.0,0.0,0.0,0.0,0.0,0.0,0.0,0.0,0.0,0.0,0.0,0.0,0.0,0.0,0.0,0.0,0.0,0.0,0.0,0.0,0.0,-0.7051,-0.7368,-0.8049,-0.7521,-0.749,0.0,0.0,0.0,0.0,0.0,0.0,0.0,-0.7497,-0.7409,-0.8215,-0.81,-0.9389,-1.2022,-1.37,-1.4454,-1.4333,-1.2992,0.0,0.0,0.0,0.0,0.0,0.0,0.0,0.0,0.0,0.0,0.0,0.0,0.0,0.0,0.0,0.0,0.0,0.0,0.0,0.0,0.0,0.0,0.0,0.0,0.0,0.0,0.0,0.0,0.0,0.0,0.0,0.0,0.0,0.0,0.0,0.0,0.0,0.0,0.0,0.0,0.0,0.0,0.0,0.0,0.0,0.0,0.0,0.0,0.0,0.0,0.0,0.0,0.0,0.0,0.0,0.0,0.0,0.0,0.0,0.0,0.0,0.0,0.0,-1.4335,-1.4476,-1.4638,-1.5267,-1.5499,-1.539,-1.4536,-1.4389,-1.4635,-1.346,0.0,0.0,0.0,0.0,0.0,0.0,0.0,0.0,0.0,0.0,0.0,0.0,0.0,0.0,0.0,0.0,0.0,0.0,0.0,0.0,0.0,-0.7813,-0.7953,-0.817,-0.8088,-0.8404,-0.9277,0.0,0.0,0.0,0.0,0.0,-0.9216,-0.783,-0.7723,-0.9048,-1.1451,-1.3478,-1.5161,-1.7963,-1.9229,-1.8913,-1.5003,-1.3667,-1.4264,0.0,0.0,0.0,0.0,0.0,0.0,0.0,0.0,0.0,0.0,0.0,0.0,0.0,0.0,0.0,0.0,0.0,0.0,0.0,0.0,0.0,0.0,0.0,0.0,0.0,0.0,0.0,0.0,0.0,0.0,0.0,0.0,0.0,0.0,0.0,0.0,0.0,0.0,0.0,0.0,0.0,-1.3235,-1.3974,0.0,0.0,0.0,0.0,0.0,0.0,0.0,0.0,0.0,0.0,0.0,0.0,0.0,-1.5817,-1.6262,-1.768,-1.8341,-1.8257,-1.888,-1.9123,-1.9059,-1.9217,-1.9268,-1.9152,-1.8404,0.0,-1.5537,-1.5408,0.0,0.0,0.0,0.0,0.0,0.0,0.0,0.0,0.0,0.0,0.0,0.0,0.0,0.0,0.0,0.0,0.0,0.0,0.0,0.0,0.0,-1.0166,-1.0847,-1.1763,-1.2231,-1.2129,-1.13,-1.079,0.0,0.0,0.0,-0.8183,-0.9376,-0.8699,-0.9409,-1.1619,-1.4502,-1.6669,-1.8155,-1.9476,-2.0543,-2.123,-1.8369,-1.6893,-1.6416,-1.5377,0.0,0.0,0.0,0.0,0.0,0.0,0.0,0.0,0.0,0.0,0.0,0.0,0.0,0.0,0.0,0.0,0.0,0.0,0.0,0.0,0.0,0.0,0.0,0.0,0.0,0.0,0.0,0.0,0.0,0.0,0.0,0.0,0.0,0.0,0.0,0.0,0.0,0.0,0.0,-1.2253,-1.4219,-1.4515,-1.6195,-1.6615,0.0,0.0,0.0,0.0,0.0,0.0,0.0,0.0,0.0,-1.6695,-1.7438,-1.7868,-1.7969,-1.9029,-1.9529,-1.9512,-1.9757,-1.9874,-1.9907,-1.9942,-1.9916,-1.9839,-1.9504,-1.8867,-1.7956,-1.7398,-1.7211,-1.7268,0.0,0.0,0.0,0.0,-1.6148,-1.5088,0.0,0.0,0.0,0.0,0.0,0.0,0.0,0.0,0.0,0.0,0.0,0.0,-1.1531,-1.2286,-1.3289,-1.4882,-1.5327,-1.4951,-1.3619,-1.2391,-1.1254,0.0,0.0,-0.8206,-0.9321,-0.9851,-1.1408,-1.4076,-1.6816,-1.8805,-2.0069,-2.0662,-2.1468,-2.2371,-2.1366,-2.0136,-1.8751,-1.7667,-1.6291,-1.4692,0.0,0.0,0.0,0.0,0.0,0.0,0.0,0.0,0.0,0.0,0.0,0.0,0.0,0.0,0.0,0.0,0.0,0.0,0.0,0.0,0.0,0.0,0.0,0.0,0.0,0.0,0.0,0.0,0.0,0.0,0.0,0.0,0.0,0.0,0.0,0.0,0.0,-1.3668,-1.5299,-1.5416,-1.7529,-1.8239,0.0,0.0,0.0,0.0,0.0,0.0,-1.7774,-1.8461,-1.8836,-1.8876,-1.9423,-1.9685,-1.9673,-2.0123,-2.0391,-2.0444,-2.0294,-2.0283,-2.0391,-2.0391,-2.0338,-2.0283,-2.0127,-2.0171,-2.0247,-1.9126,-1.8994,-1.9481,-1.9185,-1.834,-1.7498,-1.9292,-1.8874,-1.7749,0.0,0.0,0.0,0.0,0.0,0.0,0.0,0.0,0.0,0.0,0.0,-1.0812,-1.3137,-1.3361,-1.4025,-1.5693,-1.5175,-1.5107,-1.5956,-1.3886,-1.2675,-1.2702,-1.0517,-0.9268,-0.9208,-1.1261,-1.3421,-1.5579,-1.7967,-1.9504,-2.0245,-2.2456,-2.3112,-2.2439,-2.3051,-2.2562,-2.1156,-1.8967,-1.8017,-1.7723,-1.4859,0.0,0.0,0.0,0.0,0.0,0.0,0.0,0.0,0.0,0.0,0.0,0.0,0.0,0.0,0.0,0.0,0.0,0.0,0.0,0.0,0.0,0.0,0.0,0.0,0.0,0.0,0.0,0.0,0.0,0.0,0.0,0.0,0.0,0.0,0.0,0.0,0.0,0.0,-1.7845,-1.9489,0.0,0.0,0.0,0.0,-1.7383,-1.8743,-1.9506,-1.9225,-1.9854,-2.0472,-2.1036,-2.1017,-2.1319,-2.2023,-2.1938,-2.1881,-2.1881,-2.1753,-2.1711,-2.1711,-2.1711,-2.1652,-2.1559,-2.0998,-2.1166,-2.1695,-2.0439,-1.9975,-2.0084,-2.0254,-2.0257,-2.0211,-2.0385,-2.0391,-2.0454,0.0,0.0,0.0,0.0,0.0,0.0,0.0,0.0,-0.7192,-0.7217,-1.0114,-1.2702,-1.399,-1.6241,-1.8297,-1.9935,-1.9874,-1.9298,-1.8328,-1.6116,-1.445,-1.3577,-1.1831,-1.1529,-1.2906,-1.4585,-1.6278,-1.7963,-1.9767,-2.1507,-2.313,-2.3539,-2.4087,-2.4637,-2.4432,-2.4023,-2.3357,-2.1114,-1.9932,-1.9384,-1.7409,-1.5419,0.0,0.0,0.0,0.0,0.0,0.0,0.0,0.0,0.0,0.0,0.0,0.0,0.0,0.0,0.0,0.0,0.0,0.0,0.0,0.0,0.0,0.0,0.0,0.0,0.0,0.0,0.0,0.0,0.0,0.0,0.0,0.0,0.0,0.0,0.0,0.0,0.0,-1.9614,-2.1136,0.0,-2.0368,-2.0373,-2.0632,-2.1044,-2.1061,-2.137,-2.203,-2.1823,-2.1778,-2.1826,-2.1726,-2.1787,-2.2015,-2.1827,-2.1797,-2.1869,-2.1738,-2.1941,-2.2432,-2.1953,-2.1972,-2.2353,-2.1628,-2.1507,-2.1807,-2.1333,-2.1356,-2.1668,-2.179,-2.1616,-2.1364,-2.1843,-2.1795,-2.1604,0.0,0.0,0.0,0.0,0.0,0.0,0.0,0.0,-0.7303,-0.7571,-1.0951,-1.3919,-1.5482,-1.8447,-2.0788,-2.1939,-2.2095,-2.1473,-1.9916,-1.7437,-1.5643,-1.475,-1.2993,-1.308,-1.5295,-1.6513,-1.8038,-1.9996,-2.1034,-2.264,-2.479,-2.411,-2.4545,-2.5863,-2.5094,-2.4965,-2.5178,-2.3221,-2.2017,-2.1276,-1.9602,-1.8025,-1.6542,0.0,0.0,0.0,0.0,0.0,0.0,0.0,0.0,0.0,0.0,0.0,0.0,0.0,0.0,0.0,0.0,0.0,0.0,0.0,0.0,0.0,0.0,0.0,0.0,0.0,0.0,0.0,0.0,0.0,0.0,0.0,0.0,0.0,0.0,-1.8581,-2.038,-2.1151,-2.2392,-2.2988,-2.2533,-2.2096,-2.2291,-2.329,-2.2571,-2.2384,-2.3142,-2.2615,-2.2378,-2.2459,-2.2354,-2.2382,-2.254,-2.2388,-2.2325,-2.2403,-2.2048,-2.2132,-2.2638,-2.19,-2.1835,-2.2229,-2.1738,-2.1587,-2.1661,-2.1708,-2.1974,-2.2343,-2.2497,-2.2384,-2.2213,-2.2702,-2.2621,-2.2347,0.0,0.0,0.0,0.0,0.0,0.0,0.0,-0.6442,-0.8191,-0.8876,-1.1448,-1.4433,-1.7534,-1.9774,-2.114,-2.1334,-2.1464,-2.1273,-2.0634,-1.777,-1.6151,-1.6286,-1.4111,-1.3918,-1.6095,-1.6872,-1.8642,-2.1532,-2.1635,-2.2815,-2.5017,-2.4229,-2.4597,-2.5914,-2.5162,-2.5513,-2.664,-2.5217,-2.4245,-2.3522,-2.1395,-2.0515,-2.0177,0.0,0.0,0.0,0.0,0.0,0.0,0.0,0.0,0.0,0.0,0.0,0.0,0.0,0.0,0.0,0.0,0.0,0.0,0.0,0.0,0.0,0.0,0.0,0.0,0.0,0.0,0.0,0.0,0.0,0.0,0.0,0.0,0.0,-1.8024,-2.0167,-2.1862,-2.2497,-2.3238,-2.3885,-2.4332,-2.3675,-2.3403,-2.3908,-2.3106,-2.2566,-2.2378,-2.2152,-2.2325,-2.2984,-2.2938,-2.3175,-2.3786,-2.3687,-2.3586,-2.3551,-2.2735,-2.2377,-2.2361,-2.1649,-2.1278,-2.1247,-2.1356,-2.1386,-2.1417,-2.1542,-2.1768,-2.2027,-2.2343,-2.2605,-2.279,-2.279,-2.2842,-2.2797,0.0,0.0,0.0,0.0,0.0,0.0,0.0,-0.554,-0.6802,-0.8096,-1.1673,-1.4841,-1.6817,-2.045,-2.2767,-2.2898,-2.2569,-2.1875,-2.0668,-1.7772,-1.6116,-1.615,-1.7057,-1.8093,-1.9247,-1.9976,-2.1046,-2.2444,-2.2989,-2.4175,-2.5883,-2.5628,-2.6018,-2.6926,-2.7139,-2.711,-2.6909,-2.6995,-2.6621,-2.5836,-2.4117,-2.2856,-2.1928,0.0,0.0,0.0,0.0,0.0,0.0,0.0,0.0,0.0,0.0,0.0,0.0,0.0,0.0,0.0,0.0,0.0,0.0,0.0,0.0,0.0,0.0,0.0,0.0,0.0,0.0,0.0,0.0,0.0,0.0,0.0,-1.9524,-2.0909,-2.1352,-2.1951,-2.2799,-2.4089,-2.3835,-2.3766,-2.435,-2.4024,-2.4006,-2.4585,-2.3767,-2.3354,-2.3591,-2.2998,-2.2876,-2.3341,-2.2867,-2.2883,-2.3499,-2.2426,-2.2167,-2.2702,-2.1859,-2.1778,-2.2377,-2.1601,-2.1553,-2.2037,-2.1535,-2.1402,-2.1542,-2.1419,-2.1617,-2.194,-2.1974,-2.2231,-2.2596,-2.2542,-2.2685,-2.2797,0.0,0.0,0.0,0.0,0.0,0.0,0.0,-0.5448,-0.6683,-0.8178,-1.1891,-1.5115,-1.6965,-2.0331,-2.2491,-2.2575,-2.1816,-2.0835,-1.9673,-1.7443,-1.6413,-1.7005,-1.8293,-1.9447,-2.0448,-2.1243,-2.2185,-2.3293,-2.369,-2.4821,-2.6697,-2.6308,-2.6647,-2.7635,-2.7963,-2.8015,-2.7845,-2.8235,-2.8184,-2.7743,-2.6809,-2.5868,-2.4888,-2.3984,-2.3246,-2.2591,-2.2002,-2.1319,-2.0625,-2.017,0.0,0.0,0.0,0.0,0.0,0.0,0.0,0.0,0.0,0.0,0.0,0.0,0.0,0.0,0.0,0.0,0.0,0.0,0.0,0.0,0.0,0.0,0.0,0.0,-2.1218,-2.2747,-2.3884,-2.3988,-2.4266,-2.5135,-2.4706,-2.4569,-2.5129,-2.4388,-2.3988,-2.4235,-2.3396,-2.2942,-2.3133,-2.2675,-2.2618,-2.3061,-2.272,-2.2784,-2.3342,-2.2502,-2.2293,-2.273,-2.1888,-2.176,-2.2262,-2.1504,-2.1408,-2.1843,-2.1392,-2.131,-2.1435,-2.1294,-2.1433,-2.1705,0.0,0.0,0.0,0.0,-2.2346,-2.2151,0.0,0.0,0.0,0.0,0.0,0.0,0.0,-0.5719,-0.72,-0.8699,-1.1945,-1.4997,-1.7282,-1.957,-2.095,-2.1028,-2.002,-1.8979,-1.8118,-1.704,-1.7025,-1.8353,-1.8641,-1.9343,-2.0618,-2.1416,-2.2548,-2.4081,-2.3981,-2.5092,-2.7359,-2.6513,-2.6781,-2.7998,-2.7981,-2.8319,-2.8892,-2.8941,-2.8975,-2.9047,-2.8975,-2.8728,-2.8167,-2.6079,-2.6148,-2.7141,-2.5699,-2.4342,-2.3249,-2.3264,0.0,0.0,0.0,0.0,0.0,0.0,0.0,0.0,0.0,0.0,0.0,0.0,0.0,0.0,0.0,0.0,0.0,0.0,0.0,0.0,0.0,0.0,0.0,0.0,-2.2295,-2.3565,-2.5686,-2.5903,-2.5798,-2.5727,-2.5491,-2.5567,-2.6085,-2.4649,-2.3647,-2.363,-2.266,-2.2078,-2.2029,-2.1873,0.0,0.0,0.0,-2.275,-2.3369,-2.3144,-2.3077,-2.3167,-2.2332,-2.1949,-2.1933,-2.1342,-2.107,-2.107,-2.1103,-2.1135,-2.1215,-2.1215,-2.1262,-2.1417,-2.1751,-2.194,-2.2096,-2.2354,-2.1973,-2.13,0.0,0.0,0.0,0.0,0.0,0.0,0.0,-0.5216,-0.6504,-0.862,-1.0982,-1.3341,-1.5704,-1.7968,-1.9343,-1.9367,-1.9233,-1.8596,-1.7236,-1.7679,-1.8348,-1.9165,-2.0292,-2.129,-2.2159,-2.234,-2.3165,-2.4723,-2.466,-2.5485,-2.7135,-2.6918,-2.6939,-2.7213,-2.7657,-2.7979,-2.8201,-2.8485,-2.8699,-2.8848,-2.8678,-2.8727,-2.8883,-2.8476,-2.8423,-2.8435,-2.7709,-2.793,-2.8349,-2.713,-2.6151,-2.5156,-2.365,-2.1558,0.0,0.0,0.0,0.0,0.0,0.0,0.0,0.0,0.0,0.0,0.0,0.0,0.0,0.0,0.0,0.0,0.0,0.0,0.0,-2.4264,-2.5156,-2.5757,-2.637,-2.6265,-2.602,-2.572,-2.4901,-2.459,-2.5201,-2.4154,-2.3913,-2.5006,-2.3562,-2.2861,-2.3326,-2.2655,-2.2507,-2.3063,-2.2601,-2.2854,-2.392,-2.2234,-2.1947,-2.3028,-2.1702,0.0,-2.105,-2.0973,-2.0942,-2.0942,-2.1103,-2.1183,-2.1215,-2.1215,-2.123,-2.134,-2.1617,-2.1768,-2.1797,-2.2027,-2.1972,-2.1809,0.0,0.0,0.0,0.0,0.0,0.0,0.0,-0.5423,-0.6672,-0.8115,-1.0219,-1.2304,-1.4151,-1.5398,-1.6244,-1.6619,-1.6737,-1.6533,-1.5897,-1.701,-1.8364,-1.9843,-2.0573,-2.1446,-2.2535,-2.2569,-2.3277,-2.4735,-2.4718,-2.5439,-2.6891,-2.6825,-2.7012,-2.7386,-2.799,-2.8494,-2.8991,-2.941,-2.9688,-2.9844,-2.9688,-2.9688,-2.9743,-2.9154,-2.9141,-2.9323,-2.8634,-2.8564,-2.8676,-2.7936,-2.716,-2.6285,-2.503,-2.346,-2.1585,0.0,0.0,0.0,0.0,0.0,0.0,0.0,0.0,0.0,0.0,0.0,0.0,0.0,0.0,-2.0741,0.0,0.0,-2.3643,-2.5156,-2.5652,-2.6009,-2.6486,-2.633,-2.6144,-2.6023,-2.5471,-2.5184,-2.5339,-2.4805,-2.4505,-2.4663,-2.3503,-2.2849,-2.293,-2.2605,-2.2422,-2.2484,-2.2604,-2.271,-2.2896,-2.2169,-2.1995,-2.2343,-2.1921,-2.1678,-2.1678,-2.1749,-2.1579,-2.1264,-2.1399,-2.1275,-2.1006,-2.1119,-2.1151,-2.1215,-2.1388,-2.1542,-2.1664,-2.1797,-2.1624,-2.1337,0.0,0.0,0.0,0.0,0.0,0.0,0.0,-0.5658,-0.6841,-0.7604,-0.9354,-1.1045,-1.2405,-1.2606,-1.2975,-1.3849,-1.4428,-1.4841,-1.5122,-1.6585,-1.8396,-2.0508,-2.0636,-2.1223,-2.248,-2.2651,-2.3329,-2.4567,-2.472,-2.5435,-2.6674,-2.6589,-2.6874,-2.7463,-2.7938,-2.8712,-2.9587,-2.9859,-3.0185,-3.0556,-3.0285,-3.0096,-2.9922,-2.881,-2.8958,-2.9616,-2.8724,-2.8039,-2.7484,-2.7557,-2.7002,-2.6195,-2.5624,-2.4895,-2.3701,-2.0816,-1.986,0.0,0.0,0.0,0.0,0.0,0.0,0.0,0.0,0.0,-2.0447,-2.2579,-2.301,-2.3317,-2.4427,-2.4822,-2.5138,-2.5575,-2.5691,-2.597,-2.6695,-2.6402,-2.6208,-2.6597,-2.6281,-2.597,-2.5703,-2.536,-2.4896,-2.4264,-2.3276,-2.2671,-2.2631,-2.2439,-2.2242,-2.2027,-2.2651,-2.271,-2.2122,-2.2478,-2.2478,-2.2034,-2.2415,-2.2596,-2.2543,-2.2403,-2.2082,-2.1553,-2.1502,-2.1195,-2.0794,-2.0924,-2.1006,-2.1038,-2.1087,-2.1278,-2.1511,-2.1603,-2.1286,-2.085,0.0,0.0,0.0,0.0,0.0,0.0,0.0,0.0,-0.6197,-0.7524,-0.7929,-0.8644,-1.0115,-1.0225,-1.0746,-1.2157,-1.4292,-1.5807,-1.6366,-1.8061,-1.9734,-2.1318,-2.142,-2.1816,-2.2561,-2.3175,-2.3828,-2.4526,-2.5169,-2.5848,-2.652,-2.6435,-2.6434,-2.6447,-2.6369,-2.7127,-2.8428,-2.7591,-2.8099,-2.9419,-2.8558,-2.8289,-2.8263,-2.7482,-2.803,-2.9041,-2.7876,-2.7271,-2.7092,-2.7151,-2.6656,-2.6109,-2.6482,-2.5786,-2.4478,-2.28,0.0,-1.9412,-1.8419,-1.7896,-1.8334,-2.1206,-2.0892,-2.1156,0.0,0.0,-2.4858,-2.6609,-2.6899,-2.6713,-2.6243,-2.6643,-2.7043,-2.6985,-2.6894,-2.7072,-2.7826,-2.6602,-2.6197,-2.764,-2.6683,-2.5831,-2.5641,-2.4629,-2.4479,-2.5681,-2.3648,-2.2875,-2.4096,-2.2884,-2.2364,-2.2865,-2.29,-2.3143,-2.355,-2.292,-2.2792,-2.3196,-2.2792,-2.2506,-2.2308,-2.1802,-2.1512,-2.1404,-2.0867,-2.0673,-2.0693,-2.061,-2.0644,-2.076,-2.081,-2.0958,-2.1199,-2.1355,-2.1354,-2.1258,0.0,0.0,0.0,0.0,0.0,0.0,0.0,0.0,0.0,-0.6403,-0.6816,-0.7302,-0.7956,-0.8365,-0.9151,-1.0584,-1.2807,-1.4467,-1.5261,-1.7519,-1.936,-2.0569,-2.095,-2.1498,-2.2292,-2.2547,-2.3013,-2.3698,-2.3984,-2.4443,-2.4996,-2.5013,-2.5376,-2.6063,-2.601,-2.6817,-2.8151,-2.7557,-2.7729,-2.8339,-2.7916,-2.7502,-2.7088,-2.645,-2.6249,-2.6298,-2.6007,-2.5318,0.0,-2.5122,-2.4673,-2.4009,-2.4762,-2.4288,-2.3242,-2.2183,-2.1657,0.0,-2.2087,-2.147,-2.1192,0.0,-2.4022,-2.4431,-2.6377,-2.6879,-2.7078,-2.7794,-2.8345,-2.8449,-2.767,-2.7777,-2.7887,0.0,-2.7281,-2.7197,-2.7809,-2.6911,-2.6438,-2.6994,-2.6556,-2.6185,-2.6152,-2.5494,-2.5116,-2.5242,-2.4159,-2.3562,-2.3562,-2.3294,-2.3217,-2.3337,-2.3662,-2.3717,-2.3499,-2.3489,-2.3409,-2.3222,-2.3345,-2.335,-2.3295,-2.3044,-2.2516,-2.1741,-2.0837,-2.0475,-2.0525,-2.0509,-2.0527,-2.0595,-2.0711,-2.081,-2.0958,-2.1246,-2.134,-2.1402,0.0,0.0,0.0,0.0,0.0,0.0,0.0,0.0,0.0,0.0,-0.5826,-0.6135,-0.6545,-0.707,-0.7966,-0.9349,-1.1448,-1.3186,-1.4299,-1.6803,-1.8843,-2.0203,-2.0642,-2.1234,-2.2051,-2.2212,-2.2568,-2.309,-2.3321,-2.3597,-2.3918,-2.3984,-2.4562,-2.5586,-2.5586,-2.6351,-2.7637,-2.6992,-2.6921,-2.7252,-2.6623,-2.6149,-2.5676,-2.4959,-2.4148,-2.3517,-2.4043,-2.3407,-2.2393,-2.3094,-2.2654,-2.194,-2.2769,-2.2573,-2.1924,-2.1407,-2.1761,-2.2588,-2.372,0.0,0.0,-2.5179,-2.6235,-2.6859,-2.6894,-2.7709,-2.8511,-2.875,-2.9128,-2.9145,-2.8373,-2.8236,-2.8083,-2.7623,-2.7182,-2.7063,-2.7547,-2.7009,-2.6571,-2.6632,-2.6412,-2.6295,-2.6364,-2.6134,-2.5704,-2.5017,-2.4572,-2.4095,-2.356,-2.3733,-2.3849,-2.3857,-2.4275,-2.4209,-2.3579,-2.3932,-2.3865,-2.3351,-2.3796,-2.3982,-2.3925,-2.3743,-2.3056,-2.1965,-2.0983,-2.0597,-2.0566,-2.0435,-2.0392,-2.0376,-2.0543,-2.0644,-2.0761,-2.1071,-2.1277,-2.1386,0.0,0.0,0.0,0.0,0.0,0.0,0.0,0.0,0.0,0.0,0.0,0.0,0.0,-0.6498,-0.7172,-0.8514,-1.072,-1.269,-1.4191,-1.6402,-1.8592,-2.0793,-2.0948,-2.13,-2.201,-2.2701,-2.3056,-2.2998,-2.3857,-2.4161,-2.4,-2.4,-2.4298,-2.4832,-2.4635,-2.5282,-2.643,-2.4894,-2.4987,-2.6054,-2.4031,-2.3549,-2.3872,-2.2735,-2.1757,-2.1149,-2.2199,-2.2005,-2.1279,-2.1593,-2.1059,-2.0376,-2.1054,-2.1215,-2.1135,-2.1103,-2.1262,-2.1497,-2.1749,-2.2814,-2.4265,-2.5876,-2.6916,-2.7981,-2.9614,-2.9505,-2.9326,-3.0165,-2.9668,-2.8883,-2.8151,-2.7963,-2.7656,-2.6758,-2.6623,-2.6806,-2.7331,-2.6723,-2.6468,-2.7201,-2.6471,-2.5954,-2.6026,-2.5954,-2.5807,-2.5584,-2.4735,-2.4398,-2.491,-2.4139,-2.3936,-2.4451,-2.4482,-2.4441,-2.4271,-2.4234,-2.4109,-2.3952,-2.3967,-2.394,-2.3767,-2.3134,-2.2455,-2.1777,-2.1212,-2.1036,-2.1033,-2.0375,-2.01,-2.015,-2.027,-2.0392,-2.0561,-2.0795,-2.1071,-2.1309,0.0,0.0,0.0,0.0,0.0,0.0,0.0,0.0,0.0,0.0,0.0,0.0,0.0,0.0,0.0,0.0,-1.017,-1.1843,-1.3459,-1.5428,-1.7124,-1.8376,-1.9805,-2.0648,-2.092,-2.1271,-2.1433,-2.1404,-2.1304,-2.1367,-2.162,-2.165,-2.2228,-2.3208,-2.3056,-2.3706,-2.4916,-2.375,-2.3781,-2.4453,-2.2739,-2.1882,-2.1596,-2.118,-2.0002,-1.8696,0.0,-1.8834,-1.8459,-1.9621,-1.9095,-1.8155,-1.9354,-1.9343,-1.9033,-2.0017,-2.1023,-2.2146,-2.3786,-2.4623,-2.5546,-2.7613,-2.8444,-2.8915,-2.9476,-2.999,-3.009,-2.9387,-2.9127,-2.8623,-2.7265,-2.6994,-2.6806,-2.6293,-2.6277,-2.6617,-2.7502,-2.706,-2.67,-2.6775,-2.6596,-2.6271,-2.5654,-2.522,-2.498,-2.4997,-2.4441,-2.4201,-2.4401,-2.4335,-2.4315,-2.4359,-2.4234,-2.4109,-2.3967,-2.3882,-2.3782,-2.3739,-2.3739,-2.3711,-2.3551,-2.257,-2.2139,-2.2084,-2.1325,-2.116,-2.1416,-2.0938,-2.0773,-2.0727,-2.0404,-2.0441,-2.0707,-2.118,-2.1542,-2.1794,0.0,0.0,0.0,0.0,0.0,0.0,0.0,0.0,0.0,0.0,0.0,0.0,0.0,0.0,0.0,0.0,0.0,-1.0614,-1.2306,-1.3963,-1.5364,-1.639,-1.772,-1.8686,-1.9174,-1.8821,-1.8858,-1.9312,-1.8739,-1.872,-1.9235,-1.9535,-2.0375,-2.1601,-2.1488,-2.2271,-2.3649,-2.2209,-2.2113,-2.2742,-2.0786,-1.9849,-1.9584,-1.8889,-1.7817,0.0,-1.6506,-1.6066,-1.5803,-1.7448,-1.7293,-1.6616,-1.8143,-1.8696,-1.8991,-1.9971,-2.1309,-2.2911,-2.4954,-2.5799,-2.6547,-2.8576,-2.9387,-2.9708,-2.9733,-3.0277,-3.0439,-2.9276,-2.8703,-2.7984,-2.6669,-2.5982,-2.5596,-2.5601,-2.5881,-2.6418,-2.725,-2.7046,-2.6812,-2.6832,-2.6735,-2.6509,-2.6126,-2.5265,-2.4761,-2.483,-2.4531,-2.4318,-2.4241,-2.4396,-2.4385,-2.4135,-2.4109,-2.3982,-2.3739,-2.3696,-2.3653,-2.3595,-2.3523,-2.3494,-2.348,-2.2715,-2.2468,-2.264,-2.1884,-2.1738,-2.1934,-2.1523,-2.1227,-2.1042,-2.0722,-2.0589,-2.067,-2.1447,-2.1906,-2.2079,0.0,0.0,0.0,0.0,0.0,0.0,0.0,0.0,0.0,0.0,0.0,0.0,0.0,0.0,0.0,0.0,0.0,0.0,-1.0775,-1.2041,-1.3399,-1.4873,-1.4993,-1.5631,-1.6871,-1.5717,-1.5707,-1.6928,-1.6392,-1.6448,-1.7052,-1.7782,-1.8843,-2.0086,-1.9933,-2.0942,-2.2532,-2.0233,-1.9955,-2.0875,-1.8238,-1.7485,-1.7731,-1.6037,-1.5263,-1.5021,-1.4552,-1.3899,-1.3579,-1.5336,-1.587,-1.6063,-1.7534,-1.9305,-2.0842,-2.0892,-2.2077,-2.3694,-2.5158,-2.6249,-2.7316,-2.8707,-2.9732,-3.0359,-3.0326,-3.036,-3.0179,-2.9486,-2.8135,-2.6836,0.0,0.0,-2.41,-2.4724,-2.548,-2.618,-2.6737,-2.6701,-2.6864,0.0,0.0,0.0,0.0,0.0,-2.5171,-2.5163,-2.4886,-2.467,-2.4498,-2.4359,-2.4135,-2.3797,-2.4024,-2.3982,-2.361,-2.3739,-2.3754,-2.3655,-2.3451,-2.3422,-2.3569,-2.3378,-2.3319,-2.3275,-2.2822,-2.2637,-2.2622,-2.2059,-2.1514,-2.1038,-2.1088,-2.0834,-2.0581,-2.1666,-2.2107,-2.2319,0.0,0.0,0.0,0.0,0.0,0.0,0.0,0.0,0.0,0.0,0.0,0.0,0.0,0.0,0.0,0.0,0.0,0.0,-0.9146,-1.0022,-1.1107,-1.2417,-1.3576,-1.4562,-1.534,-1.5085,-1.535,-1.6169,-1.5544,-1.5538,-1.6161,-1.6901,-1.7679,-1.8487,-1.8346,-1.8876,-1.9703,-1.7876,-1.7602,-1.8222,-1.6335,-1.5643,-1.5652,-1.5152,-1.4349,-1.3539,-1.3962,-1.3767,0.0,0.0,0.0,0.0,0.0,-1.9993,-2.1186,-2.1241,-2.2729,-2.4469,-2.5028,-2.6542,-2.812,-2.8618,-2.9436,-2.9972,-2.9475,-2.9034,-2.8211,-2.6385,-2.4924,-2.3539,0.0,0.0,0.0,-2.3712,-2.4886,0.0,-2.6967,-2.7086,0.0,-2.7078,0.0,-2.7315,-2.6942,-2.612,-2.5821,-2.6244,-2.4892,-2.421,-2.4467,-2.4359,-2.4135,-2.3797,-2.3882,-2.3797,-2.3538,-2.3553,-2.3835,-2.4313,-2.4283,-2.4253,-2.4208,-2.3762,-2.3436,-2.329,-2.2852,-2.2894,-2.324,-2.275,-2.2249,-2.1782,-2.136,-2.1234,-2.1471,-2.2359,-2.3108,-2.3795,0.0,0.0,0.0,0.0,0.0,0.0,0.0,0.0,0.0,0.0,0.0,0.0,0.0,0.0,0.0,0.0,0.0,0.0,0.0,-0.8008,-0.8809,-1.0173,-1.08,-1.1691,-1.2847,-1.2362,-1.2555,-1.3487,-1.2842,-1.2979,-1.3828,-1.4285,-1.4994,-1.5883,-1.5782,-1.614,-1.6682,-1.5706,-1.5518,0.0,0.0,-1.4076,-1.3981,-1.3635,-1.3064,-1.2494,-1.2901,0.0,0.0,0.0,0.0,-1.979,-2.0338,-2.1495,-2.2671,-2.2893,0.0,-2.5186,-2.5731,-2.6665,-2.7566,-2.8056,-2.8569,-2.8686,-2.7648,-2.7208,-2.6308,-2.3847,-2.2736,-2.1767,-2.0307,-2.1166,-2.228,0.0,0.0,0.0,-2.6675,-2.6957,-2.7146,0.0,-2.7324,0.0,-2.7426,-2.6896,-2.6632,-2.6916,-2.5129,-2.4259,-2.4791,-2.4403,-2.4009,-2.3739,-2.3782,-2.3846,-2.3985,-2.4193,-2.4566,-2.5061,-2.4923,-2.4743,-2.4476,-2.397,-2.3585,-2.329,-2.2978,-2.3124,-2.3551,-2.3305,-2.297,-2.2491,-2.2248,-2.2164,-2.2211,-2.3101,-2.3761,-2.4324,0.0,0.0,0.0,0.0,0.0,0.0,0.0,0.0,0.0,0.0,0.0,0.0,0.0,0.0,0.0,0.0,0.0,0.0,0.0,0.0,0.0,-0.8145,-0.7801,-0.8339,-0.9954,-0.9005,-0.9105,-1.0412,-0.9875,-1.0239,-1.1434,-1.1571,-1.2222,-1.327,-1.327,-1.3521,-1.394,-1.3709,-1.3597,-1.3569,-1.2877,-1.2652,-1.2644,0.0,-1.1805,-1.1856,0.0,0.0,0.0,0.0,-1.8996,-2.0613,-2.1712,-2.3138,-2.4453,-2.4767,-2.5182,-2.5668,-2.6408,-2.6419,-2.637,-2.7118,-2.741,-2.7146,-2.5676,-2.5341,-2.4515,-2.176,0.0,-2.0554,-1.9247,-2.0143,-2.1388,-2.2215,0.0,-2.5967,-2.6252,-2.6551,-2.6948,-2.7579,-2.7065,-2.707,-2.8225,-2.7688,-2.7257,-2.7252,-2.5511,-2.4683,-2.5101,-2.4496,-2.3975,-2.3686,-2.3878,-2.4207,-2.4701,-2.5097,-2.5423,-2.5702,-2.5527,-2.5139,-2.4563,-2.4312,-2.3873,-2.3275,-2.326,-2.3378,-2.361,-2.3739,-2.3516,-2.3127,-2.331,-2.3111,-2.2827,-2.3755,-2.4212,-2.4452,0.0,0.0,0.0,0.0,0.0,0.0,0.0,0.0,0.0,0.0,-0.4531,-0.3959,0.0,0.0,0.0,0.0,0.0,0.0,0.0,0.0,0.0,0.0,-0.7216,-0.7649,-0.7911,-0.8255,-0.9077,-1.0412,-1.0237,-1.0812,-1.2055,-1.2692,-1.2994,-1.3046,-1.3107,-1.3145,-1.3107,-1.2012,-1.1761,-1.2111,-1.1374,-1.1342,-1.174,-1.16,0.0,0.0,0.0,0.0,0.0,0.0,-2.0474,-2.2107,-2.2301,-2.3428,-2.4609,-2.4141,-2.4529,-2.5053,-2.4706,-2.5364,-2.6158,-2.5924,-2.6466,-2.6656,-2.5362,-2.4367,0.0,0.0,-1.9018,-1.8216,-1.6807,-1.8146,-2.0026,-2.1722,-2.2865,-2.4338,-2.6477,-2.6302,-2.6302,0.0,-2.681,-2.6703,-2.7819,-2.6786,-2.6482,-2.747,-2.6174,-2.5228,-2.4896,-2.4716,-2.4552,-2.4253,-2.4726,-2.5067,-2.5233,-2.5242,-2.5583,-2.6258,-2.6209,-2.5741,-2.4949,-2.5521,-2.4831,-2.3157,-2.388,-2.3911,-2.3538,-2.3711,-2.3531,-2.3102,-2.3262,-2.3382,-2.3483,-2.3929,-2.4531,-2.5195,0.0,0.0,0.0,0.0,0.0,0.0,0.0,-0.5064,-0.5203,-0.6786,-0.6378,-0.5731,-0.5202,-0.4804,-0.4459,0.0,0.0,0.0,0.0,0.0,0.0,0.0,0.0,0.0,-0.6726,-0.7415,-0.8106,-0.8787,0.0,-1.0249,-1.1172,-1.1513,-1.1774,-1.1972,-1.1967,-1.151,-1.0792,-1.1161,-1.1055,-1.0692,-1.0984,-1.1278,-1.1489,0.0,0.0,0.0,0.0,0.0,0.0,0.0,-1.8921,-2.1274,-2.2819,-2.4149,-2.503,-2.4747,-2.5018,-2.5349,-2.509,-2.5085,-2.5127,-2.5346,-2.5264,-2.471,-2.3085,0.0,0.0,0.0,-1.6818,-1.6417,-1.492,-1.6632,0.0,-1.9941,-2.1557,-2.3186,-2.4823,-2.4978,0.0,-2.6505,-2.6016,-2.6122,-2.7575,-2.6804,-2.6441,-2.6956,-2.6336,-2.586,-2.5642,-2.5252,-2.4951,-2.4936,-2.5431,-2.5722,-2.5834,-2.611,-2.6273,-2.6372,-2.6663,-2.6229,-2.5221,-2.5751,-2.5341,-2.4292,-2.4602,-2.455,-2.428,-2.4324,-2.4076,-2.3692,-2.384,-2.3946,-2.4027,-2.4437,-2.4891,-2.5333,0.0,0.0,0.0,0.0,0.0,0.0,0.0,-0.617,-0.6311,-0.8296,-0.8374,-0.7776,-0.6639,-0.5451,-0.4558,0.0,0.0,0.0,0.0,0.0,0.0,0.0,0.0,0.0,0.0,0.0,0.0,-0.7357,-0.8456,0.0,0.0,0.0,0.0,0.0,-1.1047,-1.0401,-0.9398,-1.0778,-1.0839,0.0,0.0,-1.1328,0.0,0.0,0.0,0.0,0.0,0.0,0.0,0.0,-1.6718,-1.8931,-2.2076,-2.3878,-2.4872,-2.4739,-2.4938,-2.5272,-2.5484,-2.473,-2.4106,-2.5116,-2.4353,-2.2902,-2.1315,-2.0158,0.0,-1.5503,-1.5185,-1.5043,-1.3709,-1.5299,-1.7127,0.0,-1.9983,-2.1824,-2.3117,-2.3779,-2.4526,0.0,-2.5304,0.0,-2.7136,-2.6668,-2.6287,-2.6406,-2.6182,-2.605,-2.6164,-2.5564,-2.5295,-2.5509,-2.6076,-2.6379,-2.6379,-2.6732,-2.6783,-2.6544,-2.6798,-2.643,-2.5442,-2.5856,-2.5701,-2.5062,-2.5051,-2.4889,-2.4625,-2.4551,-2.4381,-2.4124,-2.4333,-2.4359,-2.4328,-2.4634,-2.4957,-2.5262,0.0,0.0,0.0,0.0,0.0,0.0,0.0,-0.5952,-0.7328,-0.9474,-0.9247,-0.8715,-0.8239,-0.7738,-0.6424,0.0,0.0,0.0,0.0,0.0,0.0,0.0,0.0,0.0,0.0,0.0,0.0,-0.7563,-0.7812,0.0,0.0,0.0,0.0,0.0,0.0,-1.1454,-1.13,-1.0805,0.0,0.0,0.0,0.0,0.0,0.0,0.0,0.0,0.0,0.0,0.0,0.0,0.0,-1.5077,-1.8278,-2.1093,-2.3141,-2.2658,0.0,0.0,-2.4159,-2.3775,-2.3599,-2.5149,-2.4161,-2.2662,-2.2156,0.0,-1.7938,-1.5857,-1.5058,-1.4411,-1.3499,-1.4008,-1.516,-1.695,-1.7882,-1.9512,-2.2777,-2.3584,-2.4381,-2.5819,0.0,0.0,-2.6214,-2.5497,-2.54,-2.639,-2.5868,-2.5445,-2.5324,-2.5236,-2.5438,-2.5941,-2.6564,-2.6916,-2.6916,-2.636,-2.636,-2.6953,-2.636,-2.5908,-2.5604,-2.6387,-2.5741,-2.4054,-2.4842,-2.4528,-2.3452,-2.3656,-2.3756,-2.3839,-2.3982,-2.4151,-2.4282,-2.3998,-2.439,-2.4989,0.0,0.0,0.0,0.0,0.0,0.0,-0.6729,-0.7107,-0.7917,-0.9945,-1.0135,-0.9655,-0.8538,-0.7538,-0.6092,-0.391,0.0,0.0,0.0,0.0,0.0,0.0,0.0,0.0,0.0,0.0,-0.703,-0.7245,-0.8453,0.0,0.0,0.0,0.0,0.0,0.0,-1.1424,-1.1121,-1.111,0.0,0.0,0.0,0.0,0.0,0.0,0.0,0.0,0.0,0.0,0.0,0.0,0.0,0.0,-1.502,-1.6904,0.0,0.0,-2.2351,-2.3466,-2.4528,-2.4599,-2.4493,-2.5183,-2.3956,-2.2267,-2.1001,0.0,-1.7068,-1.5189,-1.4218,-1.3533,-1.2783,-1.3091,-1.3815,-1.4928,-1.6004,0.0,-1.9517,-2.07,-2.1944,-2.364,-2.3866,0.0,0.0,-2.5092,-2.4953,-2.5271,-2.4662,-2.4568,-2.5286,-2.54,-2.5617,-2.5994,-2.6207,-2.6061,-2.5597,-2.5407,-2.5218,-2.515,-2.5218,-2.5009,-2.4612,-2.5178,-2.5048,-2.4394,-2.4326,-2.4151,-2.3955,-2.3658,-2.3668,-2.3797,-2.394,-2.4051,-2.4173,-2.4253,-2.4595,-2.5012,0.0,0.0,0.0,0.0,0.0,-0.4785,-0.6843,-0.7069,-0.7615,-0.9334,-0.9878,-0.9533,-0.8112,-0.679,-0.5293,-0.3481,-0.3729,0.0,0.0,0.0,0.0,0.0,0.0,0.0,0.0,0.0,-0.7115,-0.7183,-0.8542,-0.9076,0.0,0.0,-1.0923,-1.0687,0.0,0.0,0.0,0.0,0.0,0.0,0.0,0.0,0.0,0.0,0.0,0.0,0.0,0.0,0.0,0.0,0.0,0.0,0.0,0.0,0.0,0.0,-2.1094,-2.2614,-2.3906,-2.4359,-2.4608,-2.507,-2.3481,-2.1414,0.0,0.0,-1.5935,-1.4322,-1.3382,-1.2744,-1.2246,-1.2392,-1.2787,-1.3312,-1.4344,-1.5654,-1.7282,-1.8678,-2.0161,0.0,0.0,-2.3378,-2.4309,-2.452,-2.4576,-2.4575,-2.3943,-2.4056,-2.5185,-2.5331,-2.5537,-2.5807,-2.5742,-2.5402,-2.4632,-2.4514,-2.438,-2.4134,-2.4346,-2.4418,-2.4423,-2.4453,-2.4554,-2.4644,-2.3961,-2.3807,-2.3909,-2.3511,-2.3494,-2.3711,-2.3839,-2.4009,-2.4188,-2.4315,-2.4697,-2.5035,0.0,0.0,0.0,0.0,0.0,0.0,-0.4103,-0.5136,-0.6245,-0.7472,-0.8107,-0.804,-0.7021,-0.5848,-0.433,-0.2381,-0.2529,0.0,0.0,0.0,0.0,0.0,0.0,0.0,0.0,0.0,-0.7724,-0.759,-0.7605,-0.7858,-0.8321,-0.9146,-0.981,-1.0328,0.0,0.0,0.0,0.0,0.0,0.0,0.0,0.0,0.0,0.0,0.0,0.0,0.0,0.0,0.0,0.0,0.0,0.0,0.0,0.0,0.0,0.0,-1.8571,-2.0327,-2.1685,-2.2483,-2.3267,-2.4736,-2.26,-2.0021,0.0,-1.7115,-1.4517,-1.3436,-1.2688,-1.2169,-1.2033,-1.1949,-1.2029,-1.2351,-1.2972,-1.4324,-1.6939,-1.8345,0.0,0.0,0.0,-2.2207,-2.2665,-2.3567,-2.432,-2.4766,-2.4198,-2.4114,-2.478,-2.4927,-2.5137,-2.5412,-2.5515,-2.5264,-2.4533,-2.3985,-2.4019,-2.4667,-2.3908,-2.4218,-2.5574,-2.4805,-2.4568,-2.4546,-2.3961,-2.3406,-2.2904,-2.2889,-2.3127,-2.3509,-2.3566,-2.3909,-2.4266,-2.3936,-2.4381,-2.5035,0.0,0.0,0.0,0.0,0.0,0.0,0.0,-0.4394,-0.5066,-0.6273,-0.5629,-0.5077,-0.5188,-0.3867,-0.2695,-0.1995,-0.2357,0.0,0.0,0.0,0.0,0.0,0.0,0.0,0.0,0.0,-0.7441,-0.794,-0.8903,-0.9425,-0.9555,-1.0783,-1.1244,-1.1066,-1.1402,-1.1623,0.0,0.0,0.0,0.0,0.0,0.0,-1.0719,0.0,0.0,0.0,0.0,0.0,0.0,0.0,0.0,0.0,0.0,0.0,0.0,-1.3149,0.0,0.0,-1.9017,-2.0027,-2.0678,-2.0298,-1.915,-1.7838,-1.6786,-1.5111,-1.344,-1.2266,-1.1911,-1.1655,-1.1186,-1.147,-1.1904,-1.2318,-1.2896,-1.3653,0.0,0.0,0.0,-1.9372,-2.1513,-2.3093,-2.3589,-2.3814,-2.4035,-2.4283,-2.3506,-2.3423,-2.4269,-2.3825,-2.3884,-2.4575,-2.4755,-2.4255,-2.3089,-2.3077,-2.3137,-2.3263,-2.3077,-2.2962,-2.2887,-2.2914,-2.2498,-2.1794,-2.2022,-2.2187,-2.228,-2.2367,-2.2848,-2.3509,-2.3566,-2.3809,-2.4188,-2.425,-2.4594,-2.495,0.0,0.0,0.0,0.0,0.0,0.0,0.0,-0.373,-0.3795,-0.4085,-0.3501,-0.3112,-0.3284,-0.2076,-0.131,-0.1481,-0.1242,0.0,0.0,0.0,0.0,0.0,0.0,0.0,-0.5447,-0.6023,-0.6744,-0.7582,-0.8806,-0.9552,-0.9831,-1.1301,-1.1675,-1.1146,-1.1551,-1.1638,0.0,0.0,0.0,0.0,0.0,0.0,-1.053,0.0,0.0,0.0,0.0,0.0,0.0,0.0,0.0,0.0,0.0,0.0,0.0,0.0,-1.3151,-1.529,0.0,-1.7784,-1.8559,-1.777,-1.704,-1.6181,-1.5019,-1.3837,-1.2617,-1.132,-1.1118,-1.1072,-1.0696,-1.0961,-1.1417,-1.1936,-1.2259,-1.2801,0.0,0.0,0.0,-1.8786,-2.1094,-2.2696,-2.3245,-2.3153,-2.32,-2.3523,-2.2926,-2.282,-2.3473,-2.3197,-2.322,-2.356,-2.3886,-2.3453,-2.2245,-2.2445,-2.2537,-2.2463,-2.2491,-2.236,-2.2098,-2.2161,-2.1889,-2.1352,-2.1597,-2.1894,0.0,-2.2338,-2.279,-2.3436,-2.334,-2.3598,-2.4032,-2.3869,-2.4116,-2.4546,0.0,0.0,0.0,0.0,0.0,0.0,0.0,-0.3118,-0.2477,-0.154,-0.1808,-0.1902,-0.1424,-0.0427,-0.0034,-0.0615,0.0,0.0,0.0,0.0,0.0,0.0,0.0,0.0,-0.4424,-0.5037,-0.5801,-0.6698,-0.773,-0.867,-0.9517,-1.1056,-1.148,-1.0926,-1.1718,-1.1679,-1.0968,-1.1015,-1.094,-1.0794,-1.0578,-1.0405,0.0,0.0,0.0,0.0,0.0,0.0,0.0,0.0,0.0,0.0,0.0,0.0,0.0,0.0,0.0,0.0,0.0,-1.5638,-1.6637,-1.6642,-1.5814,-1.4819,-1.4141,-1.3113,0.0,-1.0506,-1.0325,-1.0386,-1.0386,-1.0415,-1.0641,-1.1333,-1.1319,0.0,0.0,-1.4572,0.0,0.0,-2.0581,-2.1485,-2.1963,-2.178,-2.1903,-2.2614,-2.2365,-2.2287,-2.2387,-2.2896,-2.2951,-2.2451,-2.293,-2.2808,-2.1996,-2.2137,-2.2184,-2.2184,-2.2044,-2.2261,-2.2811,-2.2376,-2.2295,-2.2533,-2.2286,-2.2249,-2.2346,-2.2603,-2.2949,-2.326,-2.2978,-2.3338,-2.3857,-2.2995,-2.3168,-2.3907,0.0,0.0,0.0,0.0,0.0,0.0,0.0,0.0,0.0,0.0,-0.1451,-0.0015,-0.0042,0.1268,0.2257,0.0,0.0,0.0,0.0,0.0,0.0,0.0,0.0,0.0,-0.469,-0.496,-0.5612,-0.6711,-0.8718,-1.0209,-1.1259,-1.2857,-1.3363,-1.2904,-1.2248,-1.1415,-1.0532,-1.0508,-1.0243,-0.9811,-0.9611,-0.9397,0.0,0.0,0.0,0.0,-0.8443,-0.8892,0.0,0.0,0.0,0.0,0.0,0.0,0.0,0.0,-1.0231,-1.0135,-1.1479,0.0,-1.2982,-1.2425,-1.2167,-1.2028,0.0,-1.1108,-1.0295,-0.9542,0.0,0.0,-0.9295,-0.9489,-1.0135,-1.1535,0.0,-1.2177,-1.3452,0.0,0.0,-1.9209,-2.1096,-2.2226,-2.2165,-2.2092,-2.2196,-2.2433,-2.1749,-2.143,-2.1627,-2.1762,-2.1776,-2.1675,-2.1966,-2.2041,-2.1841,-2.1996,-2.2091,-2.2184,-2.2044,-2.1923,-2.184,-2.1857,-2.1551,-2.1091,-2.1971,-2.2147,-2.1839,-2.2685,-2.3053,-2.3157,-2.3344,-2.3603,-2.3776,-2.3388,-2.3421,-2.3653,0.0,0.0,0.0,0.0,0.0,0.0,0.0,0.0,0.0,0.0,0.0,0.0254,0.1389,0.2383,0.0,0.0,0.0,0.0,0.0,0.0,0.0,0.0,0.0,-0.257,-0.3671,-0.4378,-0.5285,-0.6414,-0.8717,-1.0545,-1.1907,-1.3288,-1.3549,-1.2842,-1.1492,-1.0675,-1.0284,-0.9889,-0.9557,-0.9275,-0.8892,0.0,0.0,0.0,0.0,0.0,-0.808,-0.8584,0.0,-0.9241,-0.9927,-1.0818,0.0,0.0,0.0,0.0,-0.9908,-0.9389,-1.0189,-1.0924,-1.1454,-1.1339,-1.1423,-1.1521,-1.1363,0.0,0.0,0.0,0.0,0.0,0.0,0.0,0.0,0.0,-1.2135,0.0,0.0,0.0,-1.8058,-1.9381,-2.0899,-2.1821,-2.1848,-2.1583,-2.1529,-2.1812,-2.1064,-2.085,-2.1264,-2.1229,-2.1229,-2.1326,-2.152,-2.1664,-2.1793,-2.1841,-2.1949,-2.2044,-2.1949,-2.1736,-2.1444,-2.1702,-2.1495,-2.0945,-2.1843,-2.2034,-2.1843,-2.2593,-2.3183,-2.3523,-2.3256,-2.3578,-2.4055,-2.3127,-2.3048,-2.3398,0.0,0.0,0.0,0.0,0.0,0.0,0.0,0.0,0.0,0.0,0.0,0.0,0.0,0.0,0.0,0.0,0.0,0.0,0.0,0.0,0.0,0.0,-0.0956,-0.1164,-0.233,-0.3725,-0.5009,-0.6194,-0.8345,-1.0265,-1.1909,-1.316,-1.3192,-1.2115,-1.0473,-0.985,-0.9995,-0.9143,-0.8847,-0.8867,-0.8252,0.0,0.0,0.0,0.0,0.0,0.0,0.0,0.0,-0.9159,-1.0,-1.1017,-1.0795,0.0,0.0,0.0,0.0,0.0,-0.975,-1.0441,-1.1031,-1.1449,-1.1811,-1.1959,-1.1648,0.0,0.0,0.0,0.0,0.0,0.0,-0.9381,0.0,0.0,0.0,0.0,-1.5092,-1.6308,-1.7702,-1.935,-2.0302,-2.0877,-2.1015,-2.0772,-2.0671,-2.0836,-2.0393,-2.0393,-2.097,-2.0913,-2.0953,-2.1144,-2.1277,-2.152,-2.1746,-2.1746,-2.1793,-2.1793,-2.171,-2.1615,-2.152,-2.1615,-2.1615,-2.1568,-2.1888,-2.2044,-2.2091,-2.2686,-2.3264,-2.3829,-2.3111,-2.3463,-2.4209,-2.2743,-2.2638,-2.3216,0.0,0.0,0.0,0.0,0.0,0.0,0.0,0.0,0.0,0.0,0.0,0.0,0.0,0.0,0.0,0.0,0.0,0.0,0.0,0.0,0.0,0.066,-0.0301,-0.1202,-0.212,-0.3729,-0.5247,-0.6611,-0.8541,-1.0135,-1.1452,-1.3478,-1.3749,-1.2445,-1.0718,-0.9725,-0.9295,-0.8311,-0.7977,-0.8031,-0.7363,0.0,0.0,0.0,0.0,0.0,0.0,0.0,0.0,-0.8214,-0.9114,-1.0196,-0.9279,0.0,0.0,0.0,0.0,0.0,-1.0022,-1.0613,-1.0562,-1.0133,-1.0903,-1.1619,-1.1061,0.0,0.0,0.0,0.0,0.0,0.0,-0.9092,-1.019,0.0,0.0,-1.4386,-1.6068,-1.6414,-1.6969,-1.8205,-1.9514,-2.01,-1.9515,-2.0311,-2.0422,-1.9496,-1.9719,-1.9887,-2.0027,-2.0123,-2.0408,-2.0924,-2.1144,-2.1375,-2.1616,-2.1616,-2.1712,-2.1793,-2.1282,-2.1403,-2.2063,-2.1361,-2.1416,-2.2091,-2.2137,-2.2231,-2.2413,-2.3328,-2.3409,-2.2973,-2.3701,-2.3762,-2.3408,-2.2873,-2.2864,-2.3029,0.0,0.0,0.0,0.0,0.0,0.0,0.0,0.0,0.0,0.0,0.0,0.0,0.0,0.0,0.0,0.0,0.0,0.0,0.0,0.0,0.5378,0.3055,0.1647,-0.012,-0.2382,-0.3828,-0.5151,-0.639,-0.8438,-1.0226,-1.1683,-1.2794,-1.2642,-1.1394,-0.988,-0.8829,-0.8172,-0.7304,-0.699,-0.7042,0.0,0.0,0.0,0.0,0.0,0.0,0.0,0.0,0.0,0.0,-0.8644,-0.9906,-0.9077,0.0,0.0,0.0,0.0,0.0,-0.8799,-0.964,-1.0037,-0.971,-1.1066,-1.245,-1.2459,-1.1722,0.0,0.0,0.0,0.0,0.0,0.0,-1.1587,-1.3293,-1.3946,-1.4742,-1.6035,-1.6217,-1.6632,-1.7857,-1.8711,-1.9189,-1.9074,-1.9423,-1.9462,-1.9028,-1.8976,-1.9035,-1.9303,-1.9772,-2.0123,-2.04,-2.0837,-2.1067,-2.0996,-2.1076,-2.1382,-2.1888,-2.1278,-2.1185,-2.1481,-2.1066,-2.1093,-2.1403,-2.1541,-2.1829,-2.2259,-2.2916,-2.3259,-2.338,-2.352,-2.3671,-2.3792,-2.3473,-2.3553,-2.3823,0.0,0.0,0.0,0.0,0.0,0.0,0.0,0.0,0.0,0.0,0.0,0.0,0.0,0.0,0.0,0.0,0.0,0.0,0.0,0.7414,0.6712,0.4928,0.3995,0.1584,-0.2565,-0.4008,-0.5261,-0.6416,-0.8369,-1.014,-1.1715,-1.1735,-1.1206,-1.0216,-0.8832,-0.7934,-0.744,-0.6574,-0.6315,-0.6432,0.0,0.0,0.0,0.0,0.0,0.0,0.0,0.0,0.0,0.0,0.0,0.0,0.0,0.0,0.0,-0.8917,-0.8153,-0.7314,-0.8085,-0.8951,-0.9684,-0.9761,-1.1243,-1.286,-1.3538,-1.2861,0.0,0.0,0.0,0.0,0.0,-1.1412,0.0,-1.4651,-1.4748,-1.5016,-1.6081,-1.6066,-1.6376,-1.7562,-1.8057,-1.8341,-1.8506,-1.8596,-1.8601,-1.8448,-1.8218,-1.8354,-1.8839,-1.9271,-1.9653,-1.993,-2.0268,-2.0359,-2.014,-2.0143,-2.0603,-2.1551,-2.0997,-2.0812,-2.0941,-2.0803,-2.0795,-2.0931,-2.1116,-2.1504,-2.2058,-2.2494,-2.303,-2.3537,-2.3342,-2.3551,-2.3922,-2.3655,-2.3766,-2.4029,0.0,0.0,0.0,0.0,0.0,0.0,0.0,0.0,0.0,0.0,0.0,0.0,0.0,0.0,0.0,0.0,0.0,0.0,0.0,0.8002,0.6752,0.5674,0.6421,0.3915,-0.2383,-0.4369,-0.601,-0.7398,-0.8486,-0.9628,-1.0805,-1.0485,-1.0098,-0.9588,-0.8077,-0.752,-0.7686,-0.6439,-0.6226,-0.6617,-0.5972,0.0,0.0,0.0,0.0,0.0,0.0,0.0,0.0,0.0,0.0,0.0,0.0,0.0,-0.8775,-0.8395,-0.7933,-0.783,-0.9131,-0.95,-0.9652,-1.0202,-1.0886,-1.1732,-1.2812,-1.2481,0.0,-1.2007,0.0,0.0,0.0,-1.1927,-1.3598,-1.4941,-1.5158,-1.5543,-1.6658,-1.6293,-1.6191,-1.6989,-1.7562,-1.7735,-1.7213,-1.8124,-1.8293,-1.7111,-1.757,-1.8189,-1.8786,-1.8332,-1.8539,-1.959,-1.9196,-1.9015,-1.91,-1.8689,-1.9111,-2.034,-1.9768,-2.0076,-2.1063,-2.0492,-2.072,-2.1547,-2.1547,-2.1718,-2.2038,-2.2686,-2.2794,-2.2591,-2.3367,-2.3378,-2.2979,-2.284,-2.2727,-2.2547,0.0,0.0,0.0,0.0,0.0,0.0,0.0,0.0,0.0,0.0,0.0,0.0,0.0,0.0,0.0,0.0,0.0,0.0,0.0,0.8811,0.8174,0.6571,0.6825,0.5164,0.1194,-0.0675,-0.3324,-0.6822,-0.8771,-0.9982,-1.0386,-1.0041,-0.9289,-0.8203,-0.7438,-0.6837,-0.6339,-0.6001,-0.5926,-0.6062,-0.5941,-0.5856,0.0,0.0,0.0,0.0,0.0,0.0,0.0,0.0,-0.7708,-0.8538,-0.7926,-0.8166,-0.8574,-0.8146,-0.7703,-0.7488,-0.807,-0.8752,-0.9377,-0.9655,-1.0598,0.0,0.0,-1.275,-1.2926,-1.3658,-1.3473,0.0,0.0,0.0,-1.3182,-1.479,-1.5031,-1.5412,-1.6498,-1.6099,-1.5948,-1.6544,-1.6579,-1.6541,-1.6595,-1.7148,-1.7268,-1.6675,-1.6883,-1.7142,-1.7371,-1.7498,-1.7798,-1.8219,-1.8372,-1.8362,-1.8343,-1.8122,-1.8213,-1.852,-1.8795,-1.9138,-1.9533,-1.9639,-1.9831,-2.0074,-2.0751,-2.1321,-2.1821,-2.239,-2.2597,-2.2537,-2.2873,-2.3031,-2.3009,-2.2951,-2.2869,-2.2697,0.0,0.0,0.0,0.0,0.0,0.0,0.0,0.0,0.0,0.0,0.0,0.0,0.0,0.0,0.0,0.0,0.0,0.0,0.8563,0.9074,0.8957,0.7952,0.792,0.6799,0.4393,0.3623,0.1066,-0.3428,-0.6176,-0.806,-0.905,-0.8872,-0.8187,-0.7101,-0.6903,-0.6421,-0.5789,-0.5875,-0.5827,-0.5734,-0.5845,-0.5826,0.0,0.0,0.0,0.0,0.0,0.0,0.0,0.0,-0.7135,-0.7923,-0.7659,-0.8004,-0.8464,-0.8238,-0.7867,-0.7485,-0.7463,-0.8165,-0.8869,0.0,0.0,0.0,-1.1807,-1.2693,-1.3626,-1.4413,-1.3852,-1.3241,-1.3213,0.0,-1.3066,-1.4524,-1.4937,-1.5346,-1.6213,-1.6026,-1.5877,-1.6118,-1.5807,-1.5732,-1.6063,-1.6216,-1.6258,-1.6173,-1.6378,-1.6522,-1.6534,-1.6917,-1.7194,-1.7338,-1.7493,-1.7509,-1.7439,-1.7439,-1.7377,-1.724,-1.7761,-1.8166,-1.8537,-1.8839,-1.9057,-1.9114,-2.0053,-2.0772,-2.1247,-2.1866,-2.2278,-2.2555,-2.2555,-2.2737,-2.2934,-2.2805,-2.2638,-2.2344,0.0,0.0,0.0,0.0,0.0,0.0,0.0,0.0,0.0,0.0,0.0,0.0,0.0,0.0,0.0,0.0,0.0,0.0,0.9216,0.8674,0.8789,0.986,1.0015,0.9003,0.6679,0.8058,0.6878,0.2962,-0.0191,-0.342,-0.6594,-0.6732,-0.6687,-0.6484,-0.6417,-0.6383,-0.639,-0.6181,-0.598,-0.5793,-0.5652,-0.5689,-0.5793,0.0,0.0,0.0,0.0,0.0,0.0,0.0,-0.6705,-0.6832,-0.8157,-0.8546,-0.8535,-0.873,-0.8461,-0.802,-0.7681,-0.7895,-0.8114,0.0,0.0,0.0,-1.0224,-1.2115,-1.3877,-1.3816,-1.295,-1.2421,-1.3158,-1.3241,-1.3421,-1.4101,-1.4898,-1.5531,-1.5915,-1.6088,-1.6022,-1.5645,-1.5459,-1.5377,-1.5377,-1.5389,-1.5401,-1.5389,-1.6093,-1.6534,-1.6602,-1.6534,-1.6729,-1.719,-1.6559,-1.6275,-1.6392,-1.6392,-1.6491,-1.6675,-1.6675,-1.7269,-1.8305,-1.8222,-1.8508,-1.9022,-1.9693,-2.0167,-2.0455,-2.1131,-2.1793,-2.2402,-2.2555,-2.2601,-2.256,-2.2236,-2.1681,-2.114,0.0,0.0,0.0,0.0,0.0,0.0,0.0,0.0,0.0,0.0,0.0,0.0,0.0,0.0,0.0,0.0,0.0,0.0,0.934,0.8788,0.8894,0.9918,0.9563,0.9274,0.9138,0.8689,0.5758,0.0255,-0.3321,-0.5439,-0.6177,-0.6257,-0.6145,-0.5874,-0.5836,-0.5744,-0.5626,-0.5724,-0.5634,-0.547,-0.5763,-0.5848,-0.5793,0.0,0.0,0.0,0.0,0.0,0.0,0.0,0.0,0.0,-0.7056,-0.7668,-0.8193,-0.8016,-0.7795,-0.7528,-0.7202,-0.7703,0.0,-0.7782,0.0,0.0,0.0,-1.1988,0.0,0.0,-1.3703,-1.327,-1.3539,-1.3232,-1.3318,-1.4494,-1.4923,-1.5326,-1.5915,-1.5356,-1.4967,-1.5298,-1.4911,-1.4611,-1.4611,-1.5374,-1.5611,-1.5163,-1.5622,-1.5969,-1.6013,-1.5969,-1.6041,-1.6199,-1.5965,-1.5981,-1.6275,-1.6175,-1.6262,-1.6565,-1.6491,-1.6708,-1.72,-1.7511,-1.7983,-1.858,-1.8874,-1.963,-2.0718,-2.1293,-2.1498,-2.1489,-2.2062,-2.2193,-2.2074,-2.2451,-2.2251,-2.1724,0.0,0.0,0.0,0.0,0.0,0.0,0.0,0.0,0.0,0.0,0.0,0.0,0.0,0.0,0.0,0.0,0.0,0.0,0.0,0.7874,0.8122,0.9505,0.8852,0.9157,1.0683,0.8719,0.6004,0.2638,-0.1489,-0.4168,-0.5366,-0.5787,-0.5881,-0.5726,-0.5871,-0.5822,-0.5576,-0.5539,-0.5498,-0.5502,-0.5892,-0.6109,-0.623,0.0,0.0,0.0,0.0,0.0,0.0,0.0,0.0,0.0,-0.609,-0.666,-0.7158,-0.718,-0.719,-0.7065,-0.6647,-0.7254,0.0,-0.784,-0.9346,-1.0878,-1.1101,0.0,0.0,0.0,-1.397,-1.3403,-1.3815,-1.3568,-1.3609,-1.4537,-1.4998,-1.531,-1.5688,-1.5198,-1.4755,-1.4689,-1.4401,-1.4221,-1.4221,-1.4826,-1.5205,-1.5097,-1.5289,-1.5468,-1.5567,-1.5512,-1.5576,-1.5748,-1.5715,-1.5848,-1.6144,-1.6001,-1.6132,-1.6522,-1.6392,-1.6405,-1.659,-1.6886,-1.7395,-1.8029,-1.8835,-1.9821,-2.0894,-2.1069,-2.1041,-2.1028,-2.1527,-2.164,-2.1609,-2.2355,-2.2146,-2.1455,0.0,0.0,0.0,0.0,0.0,0.0,0.0,0.0,0.0,0.0,0.0,0.0,0.0,0.0,0.0,0.0,0.0,0.0,0.0,0.6436,0.6887,0.8816,0.8213,0.8989,1.1442,0.8362,0.7147,0.8014,0.3248,-0.0791,-0.4038,-0.5222,-0.5779,-0.5831,-0.6243,-0.6227,-0.5861,-0.5473,-0.5403,-0.5585,-0.5885,-0.6303,-0.6716,-0.6478,0.0,0.0,0.0,0.0,0.0,0.0,0.0,0.0,-0.5269,-0.5635,-0.5781,-0.6315,-0.6594,-0.663,-0.6125,0.0,0.0,-0.7907,-0.8926,0.0,-1.1517,-1.2092,-1.2876,-1.4539,-1.3806,-1.3107,-1.3979,-1.4113,-1.4179,-1.4399,-1.5043,-1.5424,-1.5357,-1.5389,-1.5034,-1.4046,-1.4021,-1.4089,-1.4002,-1.4125,-1.4444,-1.512,-1.5097,-1.5133,-1.5271,-1.5229,-1.5374,-1.5703,-1.5671,-1.5792,-1.5988,-1.5881,-1.6001,-1.6479,-1.6318,-1.6275,-1.6392,-1.6392,-1.6723,-1.7408,-1.9183,-2.0263,-2.0669,-2.0429,-2.0465,-2.0698,-2.0844,-2.0879,-2.0955,-2.1925,-2.1565,-2.0656,0.0,0.0,0.0,0.0,0.0,0.0,0.0,0.0,0.0,0.0,0.0,0.0,0.0,0.0,0.0,0.0,0.0,0.0,0.0,0.6667,0.7033,0.882,0.9367,1.0208,1.1404,0.847,0.7303,0.8083,0.2798,-0.0255,-0.1253,-0.414,-0.5342,-0.5142,-0.5643,-0.5601,-0.5109,-0.4701,-0.4557,-0.4627,-0.5073,-0.5332,-0.5492,-0.5492,-0.556,0.0,0.0,0.0,0.0,0.0,0.0,0.0,-0.4724,-0.5172,-0.5446,-0.5424,-0.5857,-0.6264,-0.5925,-0.664,0.0,0.0,-0.9014,-1.0267,-1.1512,-1.1732,-1.1911,-1.2861,-1.3118,-1.3323,-1.3718,-1.3883,-1.4149,-1.4845,-1.5186,-1.5345,-1.5424,-1.5128,-1.4676,-1.4132,-1.4181,-1.4014,-1.3364,-1.4208,-1.4857,-1.4959,-1.5255,-1.5469,-1.5668,-1.5525,-1.554,-1.5792,-1.5537,-1.557,-1.5988,-1.5792,-1.5881,-1.6275,-1.6318,-1.6318,-1.6231,-1.6231,-1.638,-1.6754,-1.8908,-1.9308,-1.8468,-1.9218,-1.9342,-1.9114,-1.991,-1.9725,-1.9181,-2.0789,-2.099,-2.0585,0.0,0.0,0.0,0.0,0.0,0.0,0.0,0.0,0.0,0.0,0.0,0.0,0.0,0.0,0.0,0.0,0.0,0.0,0.0,0.0,0.6499,0.8253,0.9531,1.0391,1.0819,0.8916,0.8279,0.9011,0.3738,0.0628,-0.0389,-0.228,-0.3872,-0.5211,-0.5509,-0.5473,-0.5104,-0.4428,-0.4308,-0.4568,-0.5005,-0.5345,-0.5592,-0.5642,-0.5552,-0.5336,-0.4823,0.0,0.0,0.0,0.0,0.0,0.0,0.0,-0.4326,-0.4414,-0.4771,-0.5206,-0.544,0.0,0.0,-0.8279,0.0,-1.0026,-1.0901,-1.1095,-1.1165,-1.1338,-1.2306,-1.3218,-1.342,-1.3564,-1.3905,-1.4721,-1.4484,-1.4334,-1.4706,-1.439,-1.3935,-1.3476,-1.3816,-1.3848,-1.3135,-1.399,-1.4642,-1.4874,-1.4867,-1.4974,-1.5365,-1.5083,-1.5005,-1.5168,-1.506,-1.5266,-1.5768,-1.557,-1.5703,-1.61,-1.61,-1.6144,-1.6287,-1.6547,-1.6702,-1.6853,-1.849,-1.881,-1.8164,-1.8506,-1.85,-1.8379,-1.8946,-1.8818,-1.8453,-1.9867,-2.023,-2.0094,0.0,0.0,0.0,0.0,0.0,0.0,0.0,0.0,0.0,0.0,0.0,0.0,0.0,0.0,0.0,0.0,0.0,0.0,0.0,0.0,0.0,0.7402,0.9056,0.9872,0.9712,0.9021,0.9019,0.9736,0.5292,0.2067,0.002,-0.0219,-0.1874,-0.4647,-0.398,-0.3727,-0.3774,-0.2928,-0.3155,-0.4083,-0.4364,-0.4972,-0.569,-0.5712,-0.5478,-0.5062,-0.46,-0.3933,-0.3275,-0.3196,0.0,0.0,0.0,0.0,-0.3153,-0.3459,-0.3745,-0.4104,-0.4826,0.0,-0.6694,-0.855,-0.9223,0.0,-1.0128,-1.0379,-1.0424,-1.0097,-1.1564,-1.2917,-1.3002,-1.3263,-1.3701,-1.4347,-1.374,-1.3334,-1.3749,-1.3642,-1.3268,-1.2681,-1.3163,-1.3374,-1.2853,-1.3356,-1.3982,-1.454,-1.4228,-1.4169,-1.4648,-1.4368,-1.4239,-1.4317,-1.4464,-1.4763,-1.5239,-1.5128,-1.525,-1.568,-1.5516,-1.574,-1.6275,-1.6687,-1.6975,-1.7192,-1.8066,-1.8441,-1.8312,-1.7834,-1.7726,-1.7935,-1.7959,-1.7919,-1.7925,-1.902,-1.9364,-1.9391,0.0,0.0,0.0,0.0,0.0,0.0,0.0,0.0,0.0,0.0,0.0,0.0,0.0,0.0,0.0,0.0,0.0,0.0,0.5114,0.0,0.0,0.6504,0.8088,0.8581,0.7709,0.7692,0.8022,0.8708,0.6921,0.4564,0.1766,0.1319,0.0229,-0.1191,0.2426,0.3434,0.2519,0.2924,0.1485,-0.1052,-0.0874,-0.2105,-0.3997,-0.3842,-0.3877,-0.395,-0.3472,-0.3273,-0.3152,-0.2741,-0.2597,0.0,0.0,0.0,-0.3075,-0.2949,-0.3308,-0.3813,0.0,0.0,-0.7117,0.0,-0.8709,-0.8917,0.0,0.0,-0.9412,-0.9758,-1.1266,-1.2453,-1.2343,-1.3101,-1.375,-1.3805,-1.3844,-1.3712,-1.3202,-1.3368,-1.3162,-1.2287,-1.2272,-1.2254,-1.2052,-1.2146,-1.2546,-1.3373,-1.3422,-1.3545,-1.3842,-1.3761,-1.3668,-1.3613,-1.3811,-1.4026,-1.4258,-1.4159,-1.4159,-1.4346,-1.4399,-1.4836,-1.5603,-1.556,-1.6041,-1.6987,-1.7668,-1.7717,-1.7183,-1.6697,-1.6818,-1.7264,-1.6889,-1.6652,-1.6662,-1.7899,-1.8398,-1.8735,0.0,0.0,0.0,0.0,0.0,0.0,0.0,0.0,0.0,0.0,0.0,0.0,0.0,0.0,0.0,0.5051,0.5077,0.5106,0.51,0.6679,0.7445,0.7099,0.8222,0.8858,0.8874,0.7963,0.8096,0.9333,0.6645,0.5337,0.0,0.7025,0.5183,0.0727,0.519,0.6596,0.5572,0.5112,0.3123,0.0266,-0.0031,-0.1879,-0.4357,-0.3739,-0.3806,-0.41,-0.3405,-0.2999,-0.2828,-0.2953,-0.2952,-0.2887,-0.2887,0.0,0.0,0.0,-0.265,-0.3039,-0.3867,-0.4974,-0.6202,0.0,-0.768,-0.7876,-0.9198,-0.9188,-0.9056,-0.9524,-1.0419,-1.1166,-1.1345,-1.187,-1.2405,-1.2762,-1.2414,-1.2111,-1.2212,-1.2137,-1.1935,-1.1492,-1.1819,-1.1923,-1.1404,-1.1812,-1.2287,-1.2667,-1.2758,-1.2878,-1.3072,-1.3089,-1.2998,-1.2821,-1.3073,-1.3496,-1.4069,-1.3927,-1.4016,-1.4395,-1.4496,-1.4822,-1.5289,-1.5311,-1.5567,-1.6044,-1.6585,-1.6635,-1.6355,-1.6481,-1.6699,-1.6892,-1.6801,-1.671,-1.6695,-1.7124,-1.7752,-1.8465,0.0,0.0,0.0,0.0,0.0,0.0,0.0,0.0,0.0,0.0,0.0,0.0,0.0,0.0,0.0,0.0,0.5306,0.5425,0.5425,0.659,0.7401,0.7667,0.8043,0.8396,0.8716,0.7497,0.7563,0.8985,0.5842,0.0,0.8142,1.1324,0.9924,0.4908,0.9354,1.0348,0.8617,0.7835,0.5718,0.2762,0.1158,-0.129,-0.3966,-0.3932,-0.4266,-0.4576,-0.3207,-0.2911,-0.3112,-0.2769,-0.2669,-0.2728,-0.3029,-0.2743,0.0,0.0,0.0,0.0,0.0,0.0,-0.5124,-0.6349,-0.6567,-0.6906,0.0,-0.8469,-0.8486,-0.9101,-0.9537,-0.9912,-1.0302,-1.0823,-1.132,-1.1836,-1.1317,-1.0955,-1.1255,-1.111,-1.0887,-1.0697,-1.1245,-1.1358,-1.0756,-1.1411,-1.1886,-1.1936,-1.2031,-1.2169,-1.2329,-1.2373,-1.2296,-1.2097,-1.2352,-1.2854,-1.3549,-1.3531,-1.3795,-1.4392,-1.4405,-1.4563,-1.488,-1.4994,-1.504,-1.5006,-1.5724,-1.5976,-1.5964,-1.62,-1.6409,-1.6577,-1.6498,-1.6524,-1.6426,-1.4974,-1.5964,-1.7852,0.0,0.0,0.0,0.0,0.0,0.0,0.0,0.0,0.0,0.0,0.0,0.0,0.4984,0.5968,0.6203,0.5195,0.5859,0.6328,0.6323,0.6351,0.6729,0.757,0.6853,0.0,0.4999,0.5078,0.5489,0.622,0.4925,0.0,0.8356,1.1377,1.3069,1.369,1.738,1.6783,1.2983,1.2981,1.12,0.8046,0.4049,0.1019,-0.1385,-0.3886,-0.5081,-0.5086,-0.2373,-0.2924,-0.452,-0.162,-0.1027,-0.1693,-0.2838,-0.2004,-0.0872,0.0,0.0,0.0,0.0,-0.3447,0.0,-0.5187,-0.5573,-0.6118,0.0,-0.7337,-0.7207,-0.8327,-0.8758,-0.9073,-0.9482,-1.0517,-1.1286,-1.1347,-1.1472,-1.1296,-1.0567,-1.0645,-1.0651,-1.0205,-1.0176,-1.0186,-1.0166,-1.0487,-1.0766,-1.0957,-1.1201,-1.141,-1.1555,-1.1566,-1.1529,-1.1464,-1.1815,-1.2063,-1.2106,-1.2486,-1.3044,-1.3729,-1.3228,-1.3461,-1.4222,-1.415,-1.4057,-1.415,-1.5457,-1.6107,-1.6232,-1.5501,-1.5611,-1.6139,-1.5271,-1.5325,-1.5271,-1.0337,-1.2162,-1.6492,0.0,0.0,0.0,0.0,0.0,0.0,0.0,0.0,0.0,0.0,0.0,0.0,0.0,0.5769,0.5974,0.6699,0.7479,0.7483,0.641,0.7311,0.8049,0.8354,0.8062,0.773,0.7331,0.7395,0.754,0.7739,0.7357,0.847,1.0977,1.3095,1.3937,1.3856,1.7835,1.8397,1.6274,1.4743,1.2353,0.9414,0.7629,0.545,0.3263,0.3156,0.0873,-0.2042,-0.0173,-0.213,-0.5178,-0.2353,-0.2406,-0.3233,-0.0863,-0.1153,-0.2354,0.0,0.0,0.0,0.0,0.0,0.0,-0.4001,-0.4507,-0.5045,-0.6009,-0.6524,-0.6961,-0.7594,-0.7991,-0.8385,-0.8932,-0.9879,-1.0531,-1.0537,-1.0595,-1.0545,-1.0244,-1.0292,-1.0251,-1.0068,-1.0166,-1.0244,-1.0244,-1.0361,-1.0505,-1.0764,-1.0753,-1.084,-1.1078,-1.104,-1.1012,-1.1023,-1.1284,-1.1545,-1.1792,-1.2733,-1.3171,-1.3118,-1.3376,-1.3549,-1.3695,-1.414,-1.4233,-1.4186,-1.5153,-1.5424,-1.5152,-1.5289,-1.5457,-1.5611,-1.5564,-1.3335,-0.9842,-0.7999,-0.6554,-0.5238,0.0,0.0,0.0,0.0,0.0,0.0,0.0,0.0,0.0,0.5061,0.0,0.0,0.0,0.0,0.7129,0.8,0.8271,0.8038,0.7196,0.7928,0.8658,0.9222,0.8689,0.8521,0.8786,0.8253,0.8081,0.8321,0.835,0.9603,1.2022,1.333,1.4055,1.4307,1.6551,1.7305,1.6798,1.5154,1.3142,1.0938,0.9362,0.7758,0.635,0.647,0.4224,0.108,0.1515,-0.012,-0.2307,-0.1124,-0.0657,-0.0259,0.1487,0.0,0.0,0.0,0.0,0.0,-0.2412,0.0,0.0,0.0,-0.3708,-0.4095,-0.5084,-0.5676,-0.6214,-0.6924,-0.641,-0.6382,-0.8225,-0.8168,-0.8279,-0.9741,-0.9922,-0.9922,-0.9971,-0.9971,-0.9941,-0.9911,-1.0098,-1.0205,-1.0244,-1.0351,-1.0534,-1.0764,-1.0687,-1.0725,-1.0964,-1.084,-1.0812,-1.0937,-1.1099,-1.1425,-1.1882,-1.2625,-1.3021,-1.3062,-1.1367,-1.0604,-1.0681,-0.9112,-0.9412,-1.1278,-1.1781,-1.2972,-1.4446,-1.3127,-1.2415,-1.2029,-1.0502,-0.7384,-0.3567,-0.2087,-0.0267,0.1626,0.0,0.0,0.0,0.0,0.0,0.0,0.0,0.0,0.7031,0.5389,0.0,0.0,0.0,0.0,0.0,0.8934,0.8188,0.8055,0.8774,0.8101,0.839,1.0038,0.8532,0.8013,0.8741,0.7199,0.6763,0.757,0.7539,0.876,1.1137,1.1906,1.3477,1.5591,1.4119,1.3819,1.4428,1.4361,1.3917,1.2913,0.9237,0.7877,0.7791,0.5598,0.4543,0.4041,0.2765,0.3172,0.4063,0.242,0.4567,0.7344,0.3992,0.0,0.0,0.0,0.0,0.0,0.0,0.0,0.0,0.0,-0.3149,-0.3212,-0.4667,-0.4701,-0.4826,-0.6166,-0.4064,-0.318,-0.7231,-0.5451,-0.4781,-0.8979,-0.9558,-0.9509,-0.9655,-0.9674,-0.9683,-0.9683,-0.9872,-1.0059,-1.0127,-1.0457,-1.0764,-1.0878,-1.1002,-1.1078,-1.1078,-1.0964,-1.0964,-1.1185,-1.1309,-1.1637,-1.225,-1.2012,-1.2474,-1.3554,-0.7223,-0.4623,-0.5183,0.0933,0.0448,-0.513,-0.5209,-0.8599,-1.3683,-0.8772,-0.6444,-0.541,0.0,0.241,0.331,0.7589,0.6498,0.3439,0.0,0.0,0.0,0.0,0.0,0.0,0.9951,0.8973,0.7801,0.0,0.0,0.0,0.8431,1.0517,1.1513,1.0556,1.0882,1.0709,0.9672,0.9425,0.9549,1.0015,0.9631,0.8942,0.7946,0.8043,0.7627,0.6656,0.7856,0.8736,0.9354,1.0829,1.1805,1.2353,1.2545,1.2687,1.2764,1.2745,1.3274,1.3985,1.2271,1.2387,1.3584,1.3537,1.1561,0.8899,0.9413,0.7594,0.5231,0.705,0.7053,0.5969,0.435,0.0,0.0,0.0,0.0,0.0,0.0514,0.0,0.0,0.0,0.0,0.0,-0.2279,-0.2641,-0.2844,-0.2906,-0.3062,-0.3498,-0.4508,-0.5338,-0.6383,-0.8119,-0.8771,-0.9055,-0.9055,-0.9346,-0.9616,-0.9744,-1.0059,-1.0312,-1.0495,-1.0572,-1.0649,-1.0764,-1.0621,-1.0544,-1.0572,-1.0572,-1.0572,-1.0621,-1.0659,-1.0797,-1.1085,-1.1485,-1.1902,-1.2323,-0.6919,-0.4512,-0.463,0.0838,0.2634,0.1369,0.0982,0.004,-0.1451,-0.4453,-0.546,-0.4548,0.0831,0.5611,0.9592,1.0338,1.265,1.5461,0.0,0.0,0.0,0.0,0.0,0.9742,1.0056,0.9509,0.9168,0.0,0.0,0.0,1.0181,1.2155,1.3066,1.2185,1.264,1.2253,1.0515,1.0461,1.0331,0.9976,1.0025,0.959,0.8619,0.8383,0.7781,0.6797,0.7772,0.805,0.7681,0.9746,1.0445,1.0021,1.0567,0.0,1.1526,1.0525,1.1398,1.3479,1.3609,1.4519,1.5852,1.6654,1.5428,1.3194,1.2466,1.127,1.0063,1.0197,0.9619,0.8614,0.7414,0.6496,0.0,0.0,0.0,0.0,0.0,0.0,0.0,0.0,0.0,0.0,0.0302,-0.0095,-0.0318,-0.0018,0.0433,0.0321,-0.109,-0.1031,-0.135,-0.3155,-0.3634,-0.4242,-0.5462,-0.5919,-0.617,-0.6131,-0.6313,-0.7264,-0.9317,-0.9477,-0.959,-0.9875,-0.9697,-0.8798,-0.7018,-0.9035,-0.9365,-0.746,-0.946,-1.0582,-1.0582,-0.9035,-0.842,-0.8674,-0.1019,0.2446,0.2312,0.8217,0.9681,0.7555,0.7222,0.5901,0.3829,0.2643,0.22,0.2855,0.8086,1.2366,1.5515,1.4831,1.7,2.0224,0.0,0.0,0.6628,0.5795,0.8856,1.1201,1.0531,1.0531,1.1065,0.0,1.1187,1.0938,1.2774,1.4119,1.4648,1.4072,1.3987,1.322,1.1476,1.1263,1.0815,0.9955,0.9971,0.9968,0.9876,0.8412,0.7546,0.7378,0.7551,0.723,0.6472,0.8869,0.9503,0.8599,0.8666,0.0,0.0,0.8506,0.9327,1.2024,1.3604,1.4781,1.5661,1.6552,1.6899,1.6504,1.3561,1.4469,1.6494,1.2729,1.2459,1.3452,1.1886,1.0137,0.8337,0.668,0.6722,0.0,0.0,0.0,0.0,0.0,0.3541,0.0,0.2892,0.2629,0.2484,0.2512,0.4606,0.5474,0.2353,0.4585,0.596,0.3103,0.2973,0.2317,-0.03,-0.1198,-0.1486,-0.1202,-0.1251,-0.2871,-0.6834,-0.69,-0.6877,-0.7301,-0.7238,-0.5695,-0.2262,-0.6195,-0.6629,-0.2488,-0.6732,-0.9032,-0.8911,-0.4796,-0.2987,-0.3409,0.7309,1.2114,1.1793,1.8501,1.864,1.362,1.3578,1.0677,0.6357,1.1419,1.3029,1.2782,1.7962,2.0161,2.0364,1.9725,1.988,2.0314,0.0,0.0,0.7789,0.8864,0.9063,0.9833,1.2082,1.3204,1.3672,1.3263,1.3505,1.4594,1.6873,1.6869,1.6851,1.7237,1.622,1.482,1.3077,1.1843,1.0841,1.001,0.9998,0.9706,0.9049,0.8718,0.7894,0.6535,0.7879,0.808,0.7227,0.9057,0.9441,0.8596,0.862,0.8394,0.0,0.9634,1.0605,1.1195,1.2128,1.3424,1.4977,1.6366,1.6895,1.6899,1.6884,1.7703,1.8614,1.7253,1.657,1.5986,1.4396,1.2789,1.1296,1.025,0.962,0.0,0.0,0.0,0.0,0.7687,0.726,0.0,0.4983,0.4717,0.4764,0.4508,0.3618,0.3035,0.3497,0.2591,0.1703,0.1603,0.2241,0.2692,0.2605,-0.0143,-0.215,-0.2121,-0.2377,-0.2634,-0.2879,-0.0626,0.1172,0.1862,0.1433,0.024,-0.1834,-0.0246,0.1411,0.2951,0.2021,0.1539,0.1559,0.242,0.2528,0.1954,0.8775,1.2039,1.2285,1.8287,2.0665,1.9999,2.0104,1.9434,1.8327,1.9453,1.7056,1.3226,1.8883,2.1132,2.115,2.075,2.0766,2.099,0.0,0.0,0.9806,1.1289,1.1541,1.2305,1.4537,1.518,1.5454,1.5581,1.6472,1.725,1.7607,1.8427,1.8769,1.8345,1.7256,1.5892,1.4204,1.2619,1.1392,1.0577,1.0126,0.9735,0.9365,0.8925,0.8088,0.6848,0.7681,0.7456,0.6248,0.789,0.8187,0.7374,0.7799,0.7948,0.0,0.8791,1.0054,1.1608,1.2852,1.4119,1.5325,1.6067,1.6625,1.7098,1.7877,1.8425,1.8633,1.7559,1.6888,1.6239,1.4644,1.4167,1.3876,1.2199,1.2008,1.2181,1.1361,1.1089,1.0948,1.0543,0.972,0.0,0.0,0.7558,0.7278,0.7904,0.685,0.6171,0.7405,0.6833,0.6158,0.6103,0.7155,0.7923,0.7762,0.5622,0.4103,0.4166,0.2646,0.0869,-0.0923,0.0721,0.2756,0.4792,0.4883,0.4695,0.4355,0.3876,0.4828,0.7513,0.5114,0.4011,0.4432,0.6765,0.7783,0.7518,1.3054,1.5747,1.5951,1.9468,2.1275,2.1663,2.1876,2.194,2.1882,2.1827,2.0048,1.7657,2.0461,2.154,2.1493,2.1401,2.1401,2.1493,0.9806,0.0,1.1225,1.2297,1.3709,1.5051,1.6185,1.6421,1.6853,1.7978,1.8929,1.9054,1.7839,1.9374,2.0103,1.9159,1.7919,1.6631,1.5327,1.3391,1.201,1.1356,1.0501,1.0054,1.0106,0.9432,0.8532,0.7401,0.7575,0.6825,0.527,0.6716,0.7026,0.6379,0.7055,0.7679,0.0,0.7849,0.9338,1.2041,1.3726,1.4813,1.5429,1.5519,1.5968,1.6682,1.7587,1.7951,1.7829,1.6653,1.6234,1.5948,1.4577,1.5038,1.5649,1.3522,1.3745,1.4413,1.3217,1.2783,1.2602,1.2444,1.1518,1.0657,0.0,0.0,0.0,1.0609,1.0005,0.9598,1.0728,1.1176,1.1166,1.0515,1.1958,1.2759,1.166,1.1229,1.081,1.0146,0.8109,0.5326,0.1768,0.2803,0.4442,0.6266,0.7268,0.8626,1.048,0.7914,0.8154,1.2025,0.8309,0.6573,0.7291,1.1093,1.301,1.299,1.7297,1.9412,1.9542,2.0433,2.1028,2.1284,2.1646,2.1866,2.195,2.1948,2.1969,2.2027,2.1691,2.1536,2.1532,2.1666,2.1595,2.1523,0.9072,0.9572,0.0,1.0257,1.2667,1.4677,1.4832,1.6473,1.8083,1.917,1.9415,1.9711,2.0226,1.995,2.0224,2.1479,1.884,1.7027,1.6865,1.3979,1.2265,1.217,1.1322,1.0875,1.0878,1.0836,0.9694,0.7402,0.8168,0.7693,0.6086,0.6976,0.7345,0.7251,0.7229,0.7307,0.0,0.8727,0.9968,1.127,1.2767,1.3506,1.3742,1.44,1.463,1.4823,1.6327,1.6886,1.6874,1.6888,1.6879,1.675,1.6049,1.5862,1.5756,1.4938,1.4292,1.3955,1.4559,1.4149,1.3368,1.2601,1.2844,1.2697,1.0527,0.0,0.9813,1.0,0.0,0.814,0.9679,0.0,0.0,0.8701,1.0688,1.1645,0.9942,1.1651,1.167,0.7886,0.8376,0.8856,0.842,1.1838,1.2968,1.0227,1.2205,1.2675,1.0619,1.3583,1.5983,1.7394,1.7447,1.7532,1.7704,1.8218,1.8387,1.8146,1.8591,1.9045,1.9503,1.9625,1.9947,2.046,2.1156,2.1429,2.1402,2.1815,2.2118,2.2198,2.1389,2.1147,2.1245,2.1326,2.0857,2.0432,0.9492,1.005,0.0,0.0,1.2706,1.4378,1.5777,1.7599,1.8976,1.9429,1.9882,2.0228,2.0512,2.0675,2.106,2.1762,2.0092,1.8683,1.7919,1.5526,1.3797,1.304,1.2502,1.2021,1.1589,1.1616,1.0645,0.8673,0.8606,0.7999,0.6905,0.7205,0.7853,0.8774,0.8199,0.0,1.0035,1.0069,1.0367,1.0903,1.1794,1.2047,1.2076,1.3794,1.4963,1.5719,1.5978,1.6312,1.6595,1.6251,1.5843,1.5613,1.6343,1.6253,1.5863,1.563,1.5348,1.5065,1.4965,1.5031,1.4822,1.3501,1.3395,1.3107,1.1065,1.0589,1.0746,1.1243,0.0,0.0,0.0,0.0,0.0,0.0,1.0803,1.0824,0.9012,1.0138,1.0809,0.9903,0.8696,0.834,0.9342,0.984,1.109,1.3439,1.3362,1.3116,1.2892,1.5479,1.713,1.7485,1.8217,1.8816,1.9277,1.928,1.92,1.9067,1.893,1.8968,1.9158,1.948,1.9763,2.0053,2.0703,2.1222,2.1673,2.1833,2.1636,2.119,2.0426,2.0641,2.1336,2.0923,2.0629,2.0504,1.0157,0.0,0.0,0.0,1.2279,1.39,1.6319,1.8064,1.9096,1.9152,1.9294,1.9847,2.1016,2.1273,2.173,2.263,2.1496,2.0246,1.9045,1.6776,1.5171,1.4441,1.3593,1.2888,1.2308,1.233,1.1443,0.9599,0.9077,0.8421,0.7642,0.7173,0.7812,0.9294,0.8474,0.9429,1.1604,0.0,1.0871,1.1411,1.1718,1.1777,1.1877,1.3707,1.507,1.5998,1.5919,1.6059,1.6243,1.5908,1.5456,1.5218,1.6433,1.6463,1.6079,1.6209,1.6287,1.6161,1.5367,1.565,1.5714,1.3766,1.3279,1.2884,1.1408,1.1291,1.1725,1.2569,1.2234,0.0,0.0,0.0,1.1284,1.0805,0.0,1.0621,0.8566,0.8966,0.9807,1.0685,0.9085,0.8494,0.9995,0.8435,0.9401,1.4441,1.2992,1.2597,1.4191,1.5825,1.6781,1.6917,1.7937,1.872,1.9248,1.9248,1.9214,1.9134,1.9051,1.8983,1.8949,1.9341,1.9514,1.9589,2.0223,2.0807,2.1351,2.1424,2.0947,2.0136,1.9412,1.9633,2.0316,2.0032,2.0144,2.046,1.08,1.0412,0.0,0.0,1.0761,1.3151,1.5574,1.7137,1.8118,1.8313,1.7182,1.8029,2.2531,2.166,2.1957,2.502,2.3052,2.1311,2.0486,1.7344,1.5864,1.6675,1.4513,1.3216,1.3057,1.3183,1.2058,0.9605,0.9632,0.9184,0.8232,0.6804,0.6869,0.8124,0.7443,0.8478,1.0738,1.071,1.1628,1.311,1.2981,1.3315,1.3926,1.4257,1.4355,1.4481,1.6077,1.6182,1.5637,1.6319,1.6535,1.6529,1.6588,1.655,1.6538,1.6785,1.6922,1.6793,1.5984,1.5935,1.548,1.2899,1.2352,1.2196,1.1217,1.177,1.2674,1.3403,1.3578,1.361,1.3607,1.2911,0.0,0.0,1.1154,0.0,0.0,0.8899,0.9098,0.8312,0.9553,1.0879,1.1908,1.1176,1.1113,1.2225,1.1388,1.1608,1.3352,1.491,1.6134,1.6977,1.8587,1.9442,1.939,1.9398,1.9338,1.9202,1.9134,1.9067,1.9002,1.902,1.9002,1.8985,1.9645,1.9943,1.9974,2.0381,2.013,1.9447,1.8572,1.7922,1.7536,1.8427,1.917,1.985,0.0,0.0,0.0,0.0,1.1397,1.3123,1.5529,1.6688,1.7987,2.0019,1.9322,1.9993,2.3522,2.345,2.3795,2.5458,2.491,2.3732,2.193,2.0675,1.9434,1.8172,1.7182,1.6442,1.596,1.4768,1.3542,1.2318,1.0777,0.9911,0.9689,0.9215,0.9538,1.0438,0.969,1.0665,0.0,0.0,1.1604,1.2196,1.2109,1.2763,1.3821,1.4096,1.4431,1.4828,1.5526,1.5517,1.5307,1.612,1.5706,1.507,1.6133,1.5818,1.5198,1.595,1.6189,1.6188,1.6044,1.682,1.7227,1.5263,1.4776,1.4401,1.298,1.3368,1.3946,1.3658,1.4101,1.4554,1.4528,1.3406,0.0,0.0,0.0,1.0812,0.0,0.8718,0.8735,0.8411,0.9268,1.0195,1.1027,0.9552,0.9557,1.2022,0.9938,0.9968,1.3232,1.4407,1.5335,1.6115,1.773,1.8577,1.8595,1.9136,1.935,1.9261,1.9237,1.9162,1.907,1.9086,1.9051,1.9053,1.9324,1.9687,2.0099,2.0253,1.9459,1.8141,1.7802,1.7276,1.6852,1.8106,1.8722,1.9089,1.1804,0.0,0.0,1.1436,1.2022,1.3206,1.5288,1.6155,1.7453,1.9879,1.9635,2.0375,2.3375,2.3794,2.4302,2.5385,2.5878,2.5162,2.2839,2.2376,2.1395,1.9626,1.8886,1.8259,1.7766,1.6289,1.4916,1.3661,1.2137,1.1167,1.0742,1.0507,1.0648,1.1059,1.0348,1.1152,1.2979,1.1957,1.1882,1.2454,1.2345,1.2857,1.3669,1.3838,1.4167,1.4642,1.5394,1.5365,1.5116,1.5972,1.5616,1.5006,1.6078,1.5765,1.5166,1.5898,1.614,1.6122,1.5933,1.6959,1.7671,1.5929,1.5756,1.5627,1.4222,1.4588,1.5085,1.456,1.4934,1.5449,1.577,1.4206,1.2875,0.0,0.0,0.0,0.0,0.8566,0.853,0.844,0.911,0.9765,1.0241,0.8742,0.8753,1.1179,0.9161,0.935,1.2817,1.3764,1.4807,1.6115,1.7472,1.8315,1.8624,1.9212,1.9456,1.9335,1.9376,1.9338,1.9202,1.923,1.923,1.9168,1.9232,1.9476,1.9847,1.9812,1.8948,1.7626,1.7576,1.7128,1.6635,1.7418,1.8144,1.891,1.1971,1.2636,1.2959,1.2237,1.2561,1.3405,1.4935,1.5624,1.6549,1.8121,1.8211,1.9292,2.2324,2.2859,2.3545,2.4938,2.5925,2.5516,2.3177,2.2435,2.1749,2.1013,1.9613,1.8741,1.854,1.7635,1.6045,1.3741,1.3491,1.2699,1.1408,1.0613,1.0166,1.0034,0.9522,1.0059,1.136,1.1528,1.2437,1.3793,1.3636,1.3589,1.3573,1.3511,1.3559,1.3889,1.5603,1.5672,1.5028,1.5851,1.6149,1.6181,1.6265,1.6247,1.6228,1.6499,1.665,1.6575,1.5728,1.6368,1.6829,1.5001,1.5269,1.5756,1.4855,1.5375,1.6039,1.6007,1.6047,1.6351,1.7112,1.5311,1.3656,0.0,0.0,0.0,0.8752,0.8619,0.865,0.8519,0.9303,0.9784,0.9658,0.8968,0.8874,0.9679,0.9121,0.9782,1.2188,1.3027,1.4518,1.6879,1.7781,1.8591,1.928,1.9564,1.9596,1.9368,1.9532,1.9541,1.942,1.9475,1.9442,1.932,1.9372,1.9329,1.92,1.9137,1.8631,1.7902,1.7844,1.7436,1.6848,1.6534,1.7604,1.9359,1.3359,1.3955,1.423,1.3847,1.3211,1.3546,1.5937,1.5854,1.6693,1.9874,2.0084,2.0866,2.3304,2.3786,2.4028,2.4262,2.488,2.4758,2.3519,2.3413,2.3076,2.227,2.1194,2.0597,2.0482,1.794,1.6311,1.5677,1.2925,1.1652,1.1834,1.1278,1.0976,1.09,1.0809,1.1265,1.2084,1.1629,1.2327,1.3713,1.3573,1.3477,1.3362,1.3311,1.326,1.3412,1.4607,1.4503,1.3954,1.4847,1.4873,1.4523,1.4538,1.4598,1.4688,1.4814,1.5311,1.581,1.5678,1.635,1.6972,1.6522,1.6137,1.5796,1.5554,1.6151,1.6594,1.6042,1.6952,1.7584,1.6648,1.596,1.4919,0.0,0.0,0.0,1.1414,1.1484,1.1519,1.1434,1.1686,1.1042,0.8996,0.9869,1.0106,0.8989,0.9968,1.1123,1.2309,1.2576,1.3755,1.6116,1.6966,1.7516,1.7758,1.9101,1.9414,1.8727,1.942,1.9694,1.962,1.9597,1.9564,1.9513,1.9442,1.9383,1.9353,1.9326,1.8849,1.8125,1.8092,1.802,1.7937,1.8276,1.9099,2.013,1.3763,1.4744,1.553,1.555,1.5076,1.5229,1.6728,1.6825,1.7592,1.9974,2.04,2.0914,2.2115,2.2978,2.3405,2.3276,2.3959,2.409,2.3287,2.3562,2.335,2.2525,2.2114,2.1865,2.1732,1.9277,1.7495,1.6437,1.3685,1.2123,1.1677,1.0991,1.0706,1.0745,0.0,1.0651,1.1268,1.1571,1.2456,1.3652,1.3477,1.3362,0.0,1.3242,1.3154,1.3187,1.3819,1.3718,1.3464,1.4537,1.4665,1.439,1.4447,1.4538,1.457,1.428,1.4588,1.5041,1.5117,1.5809,1.6596,1.6935,1.6954,1.6892,1.6898,1.7206,1.7422,1.7028,1.7454,1.7873,1.7742,1.6554,1.4919,1.289,1.2148,1.1976,1.2433,1.2559,1.2435,1.2024,1.2358,1.1553,0.8889,0.9887,1.0274,0.929,0.9801,1.0673,1.1869,1.2261,1.3546,1.5968,1.6787,1.7562,1.8327,1.93,1.9544,1.9058,1.9544,1.9719,1.9665,1.9647,1.962,1.9564,1.9499,1.9452,1.9409,1.9499,1.9249,1.8822,1.8882,1.8895,1.8944,1.9272,1.9693,2.0144,1.3972,1.5576,1.698,1.7003,1.7313,1.7601,1.7675,1.8109,1.8706,1.9388,1.9975,2.031,2.019,2.1392,2.2118,2.1971,2.2818,2.3078,2.2353,2.2811,2.2779,2.209,2.2412,2.2525,2.2377,2.0874,1.8947,1.6631,1.5061,1.3295,1.1407,1.053,1.0187,0.0,0.0,0.0,0.0,1.1568,1.27,1.3573,1.3396,1.3329,1.3278,1.3243,1.3172,1.3137,1.3378,1.343,1.3548,1.4637,1.5081,1.5201,1.5356,1.5431,1.5317,1.4693,1.4511,1.4575,1.4652,1.5252,1.6021,1.6741,1.7517,1.812,1.812,1.8167,1.8222,1.8276,1.7838,1.7857,1.9275,1.7045,1.4564,1.3283,1.2947,1.2909,1.3144,1.3131,1.2785,1.191,1.2577,0.0,0.9391,0.9825,1.0143,0.9853,0.9353,0.9705,1.1215,1.2063,1.3541,1.5805,1.6809,1.7955,1.9322,1.9644,1.9695,1.9488,1.9632,1.9625,1.9471,1.9638,1.9649,1.9564,1.9614,1.9564,1.949,1.9669,1.9701,1.9682,1.9922,1.9915,1.9781,1.9945,1.9915,1.9863,1.5783,1.7759,1.8967,1.7363,1.8111,1.9104,1.9609,1.9158,1.8994,1.9713,2.0289,2.0636,2.0603,2.0907,2.0797,2.0146,2.0463,2.0423,1.9874,2.0595,2.1116,2.1275,2.1821,2.2186,2.231,2.0805,1.9159,1.7405,1.553,1.3718,1.2039,1.1529,1.1204,0.0,0.0,0.0,1.1963,1.2231,1.2826,1.3594,1.3512,1.3396,1.3295,1.3295,1.3244,1.3276,1.4091,1.4365,1.4418,1.4857,1.5478,1.6125,1.6297,1.6312,1.6266,1.6141,1.5728,1.5447,1.6038,1.5932,1.585,1.668,1.7018,1.7156,1.716,1.7693,1.8195,1.8209,1.8716,1.9069,1.8783,1.7204,1.5862,1.5611,1.5053,1.5136,1.6507,1.6155,1.5428,1.4603,1.5292,1.4525,1.1263,1.1652,1.1233,0.9087,1.0176,1.1033,1.1294,1.2118,1.3055,1.4106,1.6243,1.7206,1.6829,1.8866,1.9183,1.7842,1.915,1.9425,1.8795,1.9468,1.9858,1.9988,1.9821,1.9813,1.9893,1.9877,1.9922,2.0098,2.0824,2.0718,2.019,2.0862,2.0699,2.0115,1.9055,1.9737,2.0235,1.9976,1.9943,2.0241,2.1133,2.0972,2.0571,2.0124,2.0256,2.0401,2.0401,2.0686,2.0717,2.04,2.0416,2.0352,2.0108,2.0283,2.0488,2.0648,2.1189,2.1574,2.1636,2.1087,1.9779,1.7743,1.6109,1.4314,1.2373,1.1309,1.1006,1.1352,0.0,1.1479,1.1906,1.2224,1.2826,1.3578,1.3528,1.3446,1.3396,1.3396,1.3412,1.353,1.4435,1.4762,1.49,1.5904,1.65,1.6853,1.7055,1.7121,1.7035,1.6576,1.6276,1.6146,1.654,1.6417,1.6397,1.733,1.755,1.7646,1.8135,1.8559,1.8892,1.8965,1.938,1.9476,1.8746,1.7652,1.6882,1.6914,1.6284,1.6206,1.7476,1.7322,1.6606,1.535,1.5973,1.5146,1.1671,1.2113,1.1719,0.9595,0.984,1.0283,1.0712,1.1521,1.2555,1.3817,1.5381,1.6643,1.7546,1.8705,1.909,1.8751,1.9533,1.9684,1.9282,1.976,1.9971,2.0,1.9941,1.9943,2.0012,2.0041,2.0114,2.0284,2.1166,2.0989,2.0345,2.1186,2.127,2.0916,2.1272,2.1565,2.1842,2.2048,2.162,2.1542,2.2426,2.267,2.2232,2.0794,2.0618,2.0508,2.0333,2.0719,2.0959,2.0879,2.0799,2.0671,2.0528,2.039,2.0313,2.0313,2.0938,2.1288,2.1305,2.1574,2.0558,1.8172,1.7153,1.5332,1.2791,1.1502,1.1201,1.172,1.1699,1.1861,1.2137,1.2449,1.3067,1.3851,1.3629,1.3528,1.3528,1.3528,1.3662,1.3966,1.4812,1.5123,1.5417,1.7117,1.7523,1.7417,1.7806,1.7946,1.7822,1.7128,1.6904,1.6938,1.7146,1.7122,1.722,1.8203,1.8408,1.8559,1.9298,1.9495,1.9582,1.9673,1.9751,1.9593,1.8855,1.8346,1.7954,1.7646,1.725,1.7201,1.7888,1.7837,1.7234,1.5929,1.605,1.5094,1.2151,1.1848,1.1338,1.0206,0.9528,0.9388,0.9887,1.0856,1.1942,1.3129,1.4595,1.6211,1.8002,1.866,1.9219,1.9754,1.9934,1.9896,1.9707,2.0002,2.006,1.9991,2.0022,2.0155,2.0365,2.0664,2.0827,2.0933,2.1636,2.1488,2.0965,2.1643,2.1894,2.1914,2.0042,2.3127,2.4778,2.1065,2.225,2.3638,2.3503,2.3537,2.3192,2.2082,2.2085,2.1892,2.1071,2.1166,2.0956,2.0159,2.014,1.9927,1.9315,1.9903,2.0417,2.0659,2.1404,2.1943,2.2275,2.2358,2.1327,1.9076,1.9152,1.7228,1.3507,1.3534,1.313,1.2428,1.3029,1.3731,1.4434,1.3765,1.3953,1.4623,1.3948,1.3638,1.3589,1.3589,1.4053,1.4778,1.5538,1.5905,1.6343,1.8003,1.8074,1.7648,1.8642,1.8875,1.877,1.8698,1.8225,1.7939,1.8681,1.8419,1.817,1.8987,1.9234,1.9298,1.932,1.9509,1.9675,1.9628,1.9757,1.9673,1.8935,1.9373,1.9354,1.7849,1.826,1.8785,1.8859,1.8262,1.7746,1.7665,1.6324,1.4966,1.386,1.1014,0.951,1.0147,1.0052,0.9713,0.9054,1.0521,1.1113,1.0487,1.4188,1.5952,1.5459,1.8401,1.9555,1.8922,1.9716,1.9706,1.9016,1.9811,2.0219,2.0254,2.02,2.065,2.1529,2.2378,2.2745,2.2759,2.283,2.2809,2.276,2.284,2.2874,2.2971,2.4267,2.5848,2.6643,2.4943,2.4646,2.5025,2.6184,2.5678,2.4837,2.3858,2.2894,2.2231,2.1924,2.152,2.1195,2.0982,2.0902,2.0773,2.0497,2.0397,2.042,2.0521,2.0941,2.1233,2.1362,2.2508,2.2044,1.987,1.9976,1.8551,1.5694,1.528,1.4639,1.3849,1.4607,1.4865,1.471,1.4435,1.452,1.4744,1.3998,1.3733,1.3796,1.3748,1.3983,1.448,1.5713,1.5921,1.5933,1.8093,1.8289,1.7788,1.8783,1.9018,1.8895,1.8896,1.8681,1.8518,1.8875,1.8783,1.869,1.913,1.9282,1.9344,1.9368,1.9541,1.9694,1.9662,1.9811,1.9882,1.964,1.9477,1.9322,1.9175,1.91,1.9226,1.9708,1.9497,1.8943,1.8004,1.7243,1.6057,1.4178,1.2282,1.1308,1.1626,0.9301,0.8186,0.8871,1.0072,1.0797,1.0931,1.4037,1.5774,1.5937,1.8237,1.9503,1.9699,2.005,2.0072,1.9812,2.0147,2.0631,2.1146,2.1107,2.1617,2.2474,2.286,2.3023,2.3106,2.3584,2.3484,2.3115,2.3602,2.3777,2.384,2.7126,2.7921,2.839,2.807,2.6928,2.6512,2.7976,2.7344,2.6319,2.5242,2.3891,2.2749,2.2167,2.168,2.1433,2.1511,2.1495,2.1448,2.1417,2.1021,2.079,2.079,2.0961,2.1088,2.1161,2.2513,2.2385,2.0659,2.0763,1.9757,1.772,1.6734,1.5971,1.547,1.6003,1.5934,1.5453,1.5435,1.5453,1.5401,1.4673,1.4443,1.4522,1.4243,1.4528,1.5112,1.5738,1.5947,1.6203,1.7966,1.8213,1.7922,1.8783,1.8983,1.8895,1.8896,1.8896,1.8914,1.8948,1.9001,1.9053,1.9202,1.9298,1.9408,1.9413,1.9587,1.9738,1.9763,1.99,2.0028,2.0088,1.9639,1.9377,1.9783,1.9622,1.9555,1.9876,1.9703,1.9238,1.8362,1.7316,1.6173,1.4855,1.3496,1.2796,1.2988,0.9837,0.8527,0.9947,1.017,1.0863,1.218,1.4231,1.581,1.6874,1.8564,1.9722,2.0334,2.0334,2.0353,2.0402,2.0665,2.1122,2.1734,2.2233,2.2818,2.3397,2.3655,2.3786,2.3887,2.4461,2.4335,2.3902,2.4467,2.4681,2.4686,2.701,2.8951,3.0195,2.9251,2.8553,2.8184,2.8207,2.8043,2.7401,2.6061,2.5118,2.3777,2.163,2.1587,2.1603,2.1325,2.1526,2.1617,2.1417,2.1631,2.1751,2.1678,2.1794,2.2015,2.2265,2.2432,2.2183,2.1507,2.169,2.0923,1.9233,1.7837,1.7181,1.716,1.7043,1.7062,1.716,1.7043,1.7006,1.7013,1.627,1.601,1.5993,1.5274,1.6007,1.7259,1.5687,1.6209,1.7676,1.7696,1.7844,1.8094,1.8712,1.8913,1.8895,1.8895,1.8983,1.9104,1.9099,1.9182,1.9301,1.9301,1.9453,1.9587,1.9497,1.9652,1.9813,1.9881,1.9952,2.0026,2.0089,2.0089,1.984,1.9127,1.973,1.9983,1.9149,1.8324,1.8142,1.8993,1.6101,1.4681,1.6314,1.4183,1.3071,1.3927,1.2403,1.1793,1.2601,1.1084,1.136,1.3884,1.4833,1.6092,1.7763,1.9508,2.0398,2.0399,2.0398,2.0408,2.0434,2.1297,2.1696,2.1804,2.3529,2.4273,2.4355,2.5211,2.5571,2.5565,2.5579,2.5579,2.556,2.5587,2.5582,2.5582,2.8747,2.993,3.0427,3.0129,2.9476,2.9211,2.9707,2.8454,2.7168,2.6228,2.5041,2.3621,2.1842,2.1678,2.1678,2.1631,2.1708,2.1738,2.1678,2.1781,2.1869,2.184,2.1869,2.1986,2.2237,2.3126,2.3367,2.2852,2.2852,2.1901,2.0108,1.9148,1.8742,1.8825,1.8784,1.8467,1.7962,1.7944,1.7685,1.7163,1.6378,1.615,1.627,1.5987,1.6281,1.684,1.691,1.7331,1.7932,1.8473,1.8703,1.8788,1.8993,1.9084,1.9084,1.9049,1.9034,1.9053,1.9086,1.9104,1.912,1.915,1.928,1.9408,1.9438,1.9587,1.9738,1.9811,1.993,2.0015,2.0088,2.0146,2.0087,1.9854,2.0123,2.0257,1.9934,1.9194,1.8584,1.8309,1.7273,1.6576,1.657,1.5827,1.5478,1.5752,1.4225,1.3114,1.2798,1.2823,1.3237,1.4042,1.6549,1.7888,1.7864,1.9502,2.034,2.0394,2.0408,2.0715,2.1308,2.1575,2.2372,2.3575,2.4129,2.4705,2.5262,2.5496,2.5636,2.5664,2.5609,2.5634,2.5652,2.5615,2.563,2.5658,2.9223,3.0063,3.0526,3.0526,3.0104,2.9955,3.0444,2.9055,2.7552,2.6405,2.5177,2.3783,2.2052,2.184,2.1811,2.1797,2.184,2.1869,2.184,2.1945,2.2003,2.2015,2.23,2.2375,2.2304,2.3371,2.3802,2.3579,2.3533,2.2774,2.1361,2.0686,2.0428,2.0482,1.9864,1.9458,1.921,1.8693,1.8342,1.8058,1.7326,1.7117,1.7187,1.6886,1.7041,1.7407,1.7349,1.7774,1.8379,1.8592,1.8879,1.9182,1.918,1.9214,1.9248,1.9132,1.9084,1.9069,1.912,1.9119,1.9117,1.9164,1.9057,1.8959,1.9041,1.9412,1.9763,1.9823,1.993,2.0015,2.0097,2.0117,2.0126,2.0199,2.0273,2.021,1.9896,1.9117,1.8413,1.7941,1.7283,1.691,1.7062,1.679,1.6868,1.7532,1.6308,1.5431,1.5214,1.4508,1.4537,1.5495,1.7555,1.8702,1.8843,1.9865,2.0374,2.041,2.0764,2.139,2.2239,2.2567,2.3325,2.4411,2.4745,2.5203,2.5698,2.5658,2.5658,2.5707,2.5643,2.5663,2.5691,2.5656,2.5656,2.566,2.8489,2.9301,3.0203,3.0303,3.0261,3.0261,3.0427,2.9617,2.8375,2.6673,2.5708,2.4431,2.2467,2.2212,2.2103,2.1923,2.1974,2.1969,2.1911,2.2094,2.2197,2.222,2.2866,2.3004,2.2515,2.3232,2.3636,2.3721,2.3895,2.3569,2.2799,2.2275,2.2002,2.1949,2.0433,2.0174,2.0723,1.9359,1.9069,1.9493,1.8865,1.8604,1.8552,1.7933,1.8181,1.8717,1.7277,1.779,1.8995,1.8252,1.8583,1.9298,1.9308,1.9357,1.9375,1.918,1.9166,1.9235,1.9235,1.9261,1.9305,1.932,1.8855,1.8415,1.8552,1.9211,1.9823,1.9892,1.9907,1.9939,2.0078,2.0002,1.9974,2.0175,2.0195,1.995,1.9201,1.8352,1.7805,1.7805,1.6435,1.6106,1.7738,1.717,1.7387,1.9078,1.839,1.8264,1.9073,1.6142,1.5549,1.7922,1.8045,1.8813,2.0396,2.0458,2.0482,2.0521,2.1434,2.2357,2.3218,2.4022,2.442,2.4538,2.5351,2.5705,2.5693,2.5703,2.5696,2.5707,2.5697,2.5694,2.5694,2.5707,2.5664,2.5629,2.6508,2.6742,2.741,2.8688,2.8423,2.8461,2.9636,2.8666,2.7869,2.8106,2.749,2.6454,2.4841,2.4197,2.3684,2.3127,2.2421,2.2044,2.2118,2.2152,2.2254,2.2349,2.2519,2.2647,2.2632,2.3288,2.3636,2.3721,2.4384,2.4126,2.2952,2.2294,2.203,2.2071,2.1737,2.1352,2.0941,2.0628,2.0296,1.9874,1.9017,1.8752,1.8807,1.8664,1.8717,1.886,1.8603,1.8759,1.9081,1.9,1.912,1.9316,1.936,1.939,1.9405,1.9398,1.9383,1.9383,1.9479,1.9493,1.9456,1.9508,1.9416,1.9298,1.9401,1.9656,1.9877,1.9896,1.9465,1.9296,1.9964,1.9593,1.939,2.0079,2.0242,1.999,1.9207,1.8917,1.831,1.7055,1.7094,1.7389,1.7851,1.7718,1.8039,1.9112,1.8395,1.8005,1.8273,1.8097,1.8278,1.8862,1.9493,2.0022,2.0473,2.0434,2.0779,2.1472,2.238,2.3257,2.4102,2.4302,2.4756,2.5405,2.5615,2.5709,2.5707,2.5698,2.569,2.5707,2.5691,2.5697,2.5693,2.5693,2.5696,2.5679,2.5987,2.6059,2.6475,2.781,2.8158,2.8544,2.9459,2.891,2.8503,2.8699,2.7832,2.6792,2.5711,2.4963,2.4414,2.4113,2.2902,2.2192,2.2276,2.2254,2.231,2.2432,2.2784,2.2884,2.2685,2.3381,2.376,2.3888,2.5051,2.491,2.3519,2.3165,2.2845,2.2535,2.2223,2.2096,2.2007,2.1405,2.1128,2.1008,1.9882,1.9471,1.9471,1.9111,1.9002,1.9001,1.907,1.9102,1.9115,1.9182,1.9251,1.9316,1.9375,1.942,1.946,1.956,1.9513,1.9456,1.9541,1.9555,1.9458,1.9127,1.9348,1.9569,1.9269,1.9567,1.9908,1.9936,1.9617,1.9495,1.9973,1.9688,1.9564,2.0077,2.0214,1.9965,1.9179,1.9053,1.8589,1.7345,1.7583,1.8166,1.901,1.8732,1.9184,2.0859,2.0175,1.9707,1.9744,2.0154,2.0201,1.9811,2.0219,2.0642,2.1098,2.1068,2.1698,2.2996,2.3464,2.4153,2.4993,2.4996,2.5252,2.5702,2.57,2.5697,2.5694,2.5705,2.5701,2.5698,2.5693,2.5701,2.5694,2.5694,2.5697,2.57,2.6792,2.6684,2.6803,2.7495,2.8522,2.9324,2.9615,2.9632,2.9527,2.9215,2.8089,2.708,2.6452,2.5618,2.5135,2.5159,2.3612,2.2655,2.2603,2.2519,2.2496,2.2542,2.314,2.323,2.2755,2.3665,2.418,2.4295,2.5743,2.5638,2.4121,2.42,2.3806,2.3084,2.2471,2.2588,2.3248,2.1932,2.1742,2.2243,2.1005,2.0463,2.0373,1.972,1.95,1.9482,1.9338,1.93,1.9279,1.9168,1.9289,1.9494,1.9427,1.9553,1.9713,1.9697,1.9633,1.9532,1.9541,1.9602,1.9457,1.877,1.917,1.9551,1.8957,1.9386,1.9941,1.9998,2.0017,2.0074,2.0183,2.0107,2.0098,2.0289,2.0259,1.9928,1.9135,1.9134,1.8937,1.8184,1.8205,1.8923,2.0536,1.9908,2.0486,2.3105,2.2379,2.1853,2.1992,2.1874,2.1513,2.0903,2.0643,2.0915,2.1799,2.2062,2.2938,2.4409,2.4531,2.498,2.5702,2.5703,2.5703,2.5703,2.5703,2.5702,2.5701,2.5835,2.5891,2.5906,2.6047,2.6091,2.6093,2.6093,2.6016,2.5897,2.9806,2.9026,2.8206,2.7831,2.826,2.8915,2.9727,2.9805,3.0007,3.0746,3.0654,3.0289,2.9595,2.8356,2.7332,2.6779,2.5312,2.4137,2.3528,2.3437,2.3192,2.2693,2.2779,2.2859,2.2868,2.4374,2.5172,2.5199,2.6128,2.5778,2.4278,2.4278,2.3882,2.3193,2.3052,2.3141,2.333,2.2561,2.2363,2.2479,2.1716,2.1442,2.1442,2.1349,2.1295,2.1203,2.0476,2.0203,2.0094,1.947,1.9769,2.0286,1.9678,2.0043,2.056,1.9892,1.9686,1.9673,1.9744,1.9757,1.9732,1.9613,1.9676,1.9793,1.9779,1.988,1.9998,2.0079,2.0127,2.0384,2.1063,2.064,2.0397,2.1163,2.0723,2.0005,1.92,1.9718,1.9886,1.9083,1.9646,2.0492,2.1503,2.0815,2.1387,2.3997,2.2701,2.2121,2.2851,2.2207,2.2087,2.268,2.1266,2.0925,2.1789,2.3258,2.4121,2.4412,2.5156,2.5565,2.5703,2.5703,2.5702,2.5701,2.5703,2.5703,2.5761,2.6484,2.6797,2.6873,2.7617,2.7891,2.789,2.789,2.7421,2.6794,3.0704,3.0437,2.977,2.8867,2.8996,2.9425,2.993,3.0357,3.0784,3.1312,3.0615,3.0023,2.9809,2.8066,2.7142,2.7751,2.6805,2.6155,2.622,2.4543,2.3426,2.3196,2.3234,2.3413,2.3632,2.441,2.5051,2.5509,2.6302,2.6108,2.4997,2.5499,2.5057,2.3919,2.4392,2.4413,2.4123,2.3772,2.3516,2.3295,2.2555,2.2301,2.2353,2.193,2.1765,2.1745,2.131,2.1147,2.1092,2.0759,2.0903,2.1191,2.093,2.0867,2.0938,2.1057,2.0444,1.9699,1.9732,1.9776,1.9807,1.9801,1.9837,1.9866,1.9974,2.0007,2.0029,2.0135,2.0508,2.0823,2.0764,2.1229,2.1578,2.1509,2.1243,2.1094,2.1196,2.1138,2.0982,2.0648,2.1369,2.2055,2.2454,2.2558,2.3298,2.4969,2.4358,2.3878,2.3808,2.3418,2.3164,2.3095,2.2781,2.2789,2.3202,2.4,2.4877,2.5793,2.573,2.6199,2.7062,2.613,2.6207,2.7079,2.6595,2.6674,2.7122,2.7532,2.7672,2.7694,2.808,2.8254,2.8193,2.7764,2.7352,2.6921,3.0864,3.1151,3.0875,3.0061,3.0078,3.0234,3.0404,3.09,3.13,3.124,3.0336,2.9621,2.9437,2.8012,2.7495,2.8641,2.8053,2.7863,2.8384,2.5747,2.4196,2.4207,2.4195,2.4301,2.4541,2.4593,2.5015,2.5897,2.6526,2.6526,2.5923,2.6606,2.6187,2.4882,2.5333,2.5265,2.4789,2.4551,2.437,2.4156,2.3412,2.3327,2.351,2.2681,2.2438,2.2471,2.2202,2.2113,2.2076,2.1891,2.1964,2.2109,2.2033,2.1772,2.1545,2.1913,2.1091,2.0045,2.002,1.992,1.9907,2.0313,2.0342,2.0293,2.0541,2.0629,2.067,2.0765,2.1282,2.1598,2.1191,2.2048,2.2663,2.2191,2.2067,2.2241,2.2935,2.2446,2.211,2.2374,2.299,2.3472,2.3671,2.4315,2.4974,2.5652,2.5707,2.5322,2.4453,2.4392,2.4081,2.3415,2.4043,2.4409,2.4408,2.4583,2.5459,2.6994,2.6314,2.6808,2.824,2.6903,2.704,2.8262,2.7579,2.7678,2.8305,2.8494,2.8557,2.8524,2.8725,2.8795,2.8733,2.8112,2.7764,2.7491,3.0825,3.1032,3.0998,3.1227,3.1167,3.1184,3.1355,3.1334,3.1113,3.054,3.1045,3.0913,2.9627,3.0058,3.0265,2.9742,2.9027,2.8578,2.8481,2.7052,2.6115,2.6021,2.5544,2.5287,2.5331,2.5438,2.5932,2.6792,2.6863,2.6899,2.6907,2.696,2.6601,2.587,2.5099,2.4801,2.4741,2.4082,2.4219,2.4867,2.4312,2.4615,2.5319,2.445,2.419,2.4185,2.3322,2.2992,2.2881,2.2142,2.243,2.2978,2.2297,2.2619,2.2959,2.1585,2.1136,2.1084,2.101,2.0407,2.02,2.1876,2.1734,2.1418,2.2214,2.2458,2.2508,2.2508,2.2603,2.2928,2.3658,2.3315,2.314,2.3889,2.3378,2.2952,2.3069,2.3049,2.3298,2.411,2.4275,2.4629,2.543,2.5563,2.5637,2.5699,2.5705,2.5327,2.4442,2.4403,2.4364,2.4307,2.4364,2.4403,2.4399,2.5135,2.6002,2.6994,2.6936,2.739,2.8298,2.8179,2.8179,2.8281,2.8173,2.8173,2.8359,2.911,2.9402,2.9484,3.0291,3.0618,3.0611,3.054,3.0017,2.9318,3.138,3.1368,3.1291,3.15,3.1483,3.1483,3.1651,3.1634,3.1531,3.1349,3.1106,3.0743,3.03,2.9679,2.9435,2.976,2.9193,2.898,2.9356,2.8067,2.7011,2.6463,2.5877,2.5809,2.6313,2.6009,2.6229,2.704,2.7074,2.71,2.7107,2.7176,2.704,2.6734,2.6446,2.6327,2.6333,2.6103,2.5982,2.5972,2.5825,2.5706,2.5616,2.5245,2.4856,2.4445,2.4041,2.393,2.3909,2.3628,2.3735,2.3973,2.3771,2.3622,2.3333,2.2319,2.2405,2.2816,2.284,2.2201,2.1707,2.238,2.2329,2.2208,2.2574,2.2719,2.2766,2.2819,2.324,2.3565,2.3446,2.4025,2.4463,2.4297,2.4035,2.4063,2.4633,2.4246,2.423,2.5093,2.5214,2.5332,2.5664,2.5699,2.5693,2.5693,2.5696,2.5554,2.5223,2.5205,2.5455,2.5996,2.5498,2.5219,2.5213,2.5476,2.6057,2.6938,2.6389,2.7149,2.9004,2.792,2.8287,2.9756,2.9223,2.9297,2.981,3.0161,2.9981,2.9591,3.0463,3.0477,2.999,2.999,2.9437,2.8622,3.1614,3.1559,3.15,3.1576,3.1596,3.1654,3.1819,3.1819,3.1752,3.1601,3.127,3.0888,3.0543,2.9988,2.9758,2.9957,2.9562,2.9449,2.9667,2.8576,2.754,2.6669,2.6561,2.665,2.6934,2.6573,2.6505,2.6774,2.6849,2.6982,2.7259,2.7031,2.7193,2.7619,2.7188,2.7164,2.7381,2.7222,2.7086,2.6985,2.6512,2.6206,2.5987,2.5431,2.4911,2.4498,2.4446,2.4464,2.4532,2.453,2.4528,2.4545,2.4676,2.4199,2.3587,2.3422,2.3572,2.3912,2.4213,2.3892,2.3433,2.3414,2.3235,2.3121,2.3448,2.3563,2.355,2.3311,2.3732,2.3987,2.3483,2.4347,2.507,2.4764,2.4765,2.502,2.5621,2.5192,2.4938,2.5252,2.5293,2.5293,2.5293,2.5288,2.5418,2.5687,2.5707,2.5701,2.5701,2.5932,2.6359,2.6978,2.6396,2.6069,2.6085,2.6026,2.6318,2.6903,2.6573,2.7367,2.9065,2.8121,2.8647,3.0311,3.0015,3.0195,3.073,3.0764,3.0428,2.9975,3.0534,3.0417,2.9877,2.9601,2.9288,2.8856,3.1406,3.15,3.1614,3.1579,3.1617,3.1691,3.1858,3.1894,3.1653,3.0994,3.162,3.1603,3.0246,3.1475,3.1823,3.0429,3.0287,2.9981,2.9242,2.8582,2.7761,2.6753,2.7736,2.7897,2.7014,2.7151,2.6837,2.611,2.611,2.6531,2.7381,2.6584,2.7073,2.854,2.7086,2.6859,2.757,2.6881,2.7117,2.7767,2.6182,2.6037,2.6653,2.5023,2.4465,2.4513,2.4495,2.4547,2.4599,2.4599,2.4599,2.4596,2.4676,2.4257,2.3872,2.4746,2.4488,2.4098,2.4971,2.5253,2.5274,2.5203,2.46,2.4226,2.5091,2.5331,2.5155,2.4279,2.4161,2.4186,2.4205,2.4302,2.465,2.5465,2.5651,2.5691,2.5699,2.57,2.5389,2.4512,2.4414,2.4413,2.4411,2.4404,2.4768,2.5629,2.5701,2.5699,2.5699,2.647,2.6918,2.6997,2.6922,2.6889,2.6889,2.6894,2.6894,2.6889,2.7779,2.8182,2.8218,2.9018,2.9424,2.9537,3.0345,3.0735,3.0794,3.0728,3.0742,3.0774,3.0717,3.0743,3.0686,2.983,3.0048,3.0544,3.1849,3.2214,3.2366,3.1888,3.1875,3.1965,3.2037,3.2037,3.1986,3.1812,3.2039,3.2004,3.1619,3.214,3.1954,3.049,3.0481,3.0055,2.8811,2.8497,2.8237,2.7968,2.8228,2.8272,2.8072,2.759,2.7242,2.7013,2.7013,2.7164,2.7453,2.7217,2.7694,2.87,2.7692,2.7697,2.8445,2.8324,2.8474,2.8725,2.831,2.7987,2.7657,2.7175,2.6693,2.6171,2.5558,2.5424,2.5417,2.4821,2.4663,2.4757,2.487,2.4809,2.4745,2.5053,2.4977,2.4875,2.5135,2.484,2.4457,2.4418,2.4716,2.4906,2.4596,2.4543,2.4498,2.4283,2.3767,2.3534,2.4164,2.4296,2.4618,2.5519,2.569,2.5705,2.5701,2.5703,2.5605,2.533,2.531,2.5309,2.5305,2.5317,2.5427,2.5681,2.5704,2.5707,2.5699,2.5929,2.6338,2.6911,2.6314,2.6271,2.6883,2.6904,2.6588,2.6004,2.6865,2.7287,2.7301,2.7529,2.83,2.9441,2.973,3.0189,3.0742,3.0767,3.0422,2.9936,3.0483,3.0366,2.993,3.0277,3.0185,2.9815,3.2259,3.2572,3.2727,3.2357,3.2119,3.2018,3.2108,3.2144,3.2179,3.2353,3.2422,3.2456,3.2489,3.2639,3.2303,3.1148,3.0596,2.9791,2.8582,2.8484,2.851,2.8569,2.8536,2.868,2.9065,2.8286,2.7725,2.7447,2.7447,2.712,2.655,2.6927,2.7551,2.8341,2.794,2.8201,2.8975,2.9112,2.9178,2.9206,2.8994,2.8609,2.8126,2.781,2.7438,2.6972,2.6467,2.6369,2.6305,2.548,2.5039,2.4861,2.4972,2.5044,2.5111,2.5187,2.5241,2.5283,2.5283,2.4957,2.455,2.4212,2.4276,2.4273,2.3798,2.3686,2.3617,2.3334,2.3133,2.317,2.3679,2.3806,2.4116,2.5035,2.5186,2.5199,2.5194,2.5488,2.5566,2.5231,2.519,2.5188,2.5185,2.5195,2.5322,2.5668,2.5694,2.5703,2.5699,2.6007,2.6567,2.7385,2.6875,2.7006,2.7887,2.7885,2.7301,2.6111,2.6621,2.7031,2.7375,2.7369,2.812,2.9421,2.981,3.0269,3.0743,3.0742,3.0475,3.0067,3.0522,3.0399,2.9991,3.0178,3.0139,2.9874,3.273,3.2848,3.2947,3.2921,3.232,3.1946,3.2179,3.2214,3.2301,3.2573,3.2722,3.2838,3.2884,3.2925,3.2629,3.1959,3.0486,2.9286,2.8546,2.8587,2.8637,2.8712,2.8694,2.91,2.9908,2.8989,2.8166,2.7495,2.7495,2.6749,2.5332,2.6286,2.7116,2.7848,2.8025,2.8516,2.9222,2.933,2.9392,2.9338,2.867,2.8371,2.824,2.7568,2.7324,2.7324,2.7301,2.7351,2.7285,2.6487,2.574,2.5134,2.5132,2.5177,2.5233,2.5201,2.5293,2.5398,2.5398,2.5329,2.5092,2.4281,2.3485,2.2912,2.2905,2.2849,2.2585,2.1868,2.2286,2.2799,2.2887,2.2933,2.3267,2.4135,2.4352,2.4406,2.4394,2.5156,2.5409,2.4606,2.4521,2.4516,2.452,2.4586,2.4921,2.5644,2.5781,2.5777,2.5699,2.6466,2.7259,2.8058,2.8093,2.8469,2.9272,2.9276,2.8526,2.7015,2.7019,2.7401,2.8099,2.8105,2.8572,2.9447,3.0257,3.0665,3.0798,3.073,3.0736,3.0778,3.073,3.0698,3.0594,2.9726,2.9959,3.0477,3.3921,3.3878,3.3727,3.3217,3.2667,3.2284,3.2354,3.2456,3.2539,3.2606,3.2737,3.2884,3.2916,3.2534,3.1971,3.1207,2.9728,2.8768,2.8605,2.8637,2.8712,2.8785,2.8785,2.9174,3.0033,2.8524,2.7676,2.7495,2.7495,2.7336,2.7073,2.7967,2.8558,2.8876,2.8854,2.9034,2.9291,2.9307,2.9349,2.9394,2.9226,2.9191,2.9212,2.9044,2.9045,2.9062,2.837,2.825,2.8278,2.7471,2.7129,2.6904,2.6301,2.6171,2.6137,2.5474,2.5341,2.5406,2.5406,2.4904,2.4188,2.3381,2.3088,2.2979,2.2979,2.2449,2.1928,2.1804,2.1385,2.1247,2.1939,2.2075,2.2374,2.324,2.3952,2.4409,2.4394,2.5156,2.5621,2.5437,2.5416,2.5412,2.543,2.6049,2.6239,2.5743,2.6321,2.6412,2.5738,2.6456,2.6992,2.7191,2.7783,2.8197,2.8378,2.8383,2.8206,2.786,2.8519,2.857,2.809,2.8099,2.8592,2.9412,2.9661,3.014,3.0711,3.0761,3.0761,3.0724,3.071,3.0704,3.0601,2.9775,2.9997,3.0652,3.472,3.4419,3.4116,3.383,3.2947,3.2336,3.2473,3.2573,3.2687,3.2816,3.2979,3.3091,3.3091,3.2541,3.1671,3.0505,2.9689,2.908,2.8724,2.8397,2.8432,2.8881,2.8516,2.8704,2.9557,2.8638,2.8153,2.8106,2.8153,2.7793,2.7104,2.8384,2.8864,2.8645,2.9037,2.9249,2.9353,2.9411,2.947,2.9511,2.9531,2.9551,2.9589,2.9626,2.97,2.9732,2.9317,2.8985,2.8692,2.8299,2.7655,2.695,2.6574,2.6228,2.5967,2.5928,2.5966,2.6028,2.6056,2.5735,2.519,2.4353,2.3883,2.3403,2.2563,2.2372,2.2377,2.2414,2.2053,2.187,2.2344,2.2071,2.1959,2.2411,2.2866,2.3162,2.3203,2.4293,2.5089,2.5086,2.5451,2.5701,2.571,2.6103,2.6178,2.5687,2.6467,2.6751,2.6296,2.7059,2.771,2.8081,2.8495,2.8907,2.9297,2.9284,2.9279,2.9295,2.895,2.895,2.9284,2.89,2.9198,3.0025,3.0069,3.0309,3.0703,3.0737,3.0724,3.0704,3.0698,3.0685,3.0598,3.0173,3.0295,3.0645,3.5082,3.4506,3.4085,3.4216,3.3158,3.2335,3.2606,3.2719,3.2848,3.3086,3.3214,3.331,3.331,3.2531,3.1374,2.9839,2.9712,2.9446,2.884,2.8237,2.821,2.8957,2.8356,2.8319,2.8975,2.8929,2.8881,2.8791,2.8863,2.821,2.6929,2.8397,2.8762,2.8239,2.8971,2.9332,2.9433,2.9531,2.9607,2.9626,2.9683,2.9701,2.9717,2.9771,2.9842,2.991,2.9975,2.9582,2.9046,2.9112,2.8122,2.6852,2.6761,2.6184,2.564,2.6227,2.6445,2.6521,2.6556,2.6583,2.6357,2.5518,2.4904,2.4105,2.2518,2.2639,2.3108,2.3093,2.31,2.3095,2.3093,2.2515,2.1975,2.1832,2.1933,2.1992,2.1913,2.3333,2.4401,2.4404,2.518,2.5696,2.5694,2.5827,2.5899,2.5834,2.6626,2.7123,2.7126,2.7937,2.8716,2.938,2.9532,2.9923,3.0582,3.0597,3.0588,3.0567,2.9198,2.9264,3.0574,2.9904,2.999,3.0684,3.0684,3.0692,3.0673,3.0676,3.0683,3.0676,3.0703,3.0661,3.0602,3.0602,3.0507,3.0423,3.4623,3.3917,3.3471,3.3598,3.3037,3.2606,3.282,3.2916,3.3011,3.3086,3.3214,3.331,3.331,3.2071,3.0594,2.9003,2.8925,2.8913,2.8804,2.8748,2.8777,2.8929,2.886,2.8865,2.8929,2.8952,2.8947,2.881,2.8881,2.8795,2.8576,2.8883,2.9052,2.9135,2.9185,2.9349,2.9569,2.9531,2.9569,2.9701,2.97,2.9699,2.9717,2.9771,2.9876,2.9991,2.994,2.9954,3.0016,3.0021,2.9449,2.8599,2.7854,2.7122,2.6388,2.576,2.5615,2.5667,2.5667,2.5672,2.5471,2.4665,2.4946,2.5182,2.4241,2.3548,2.3104,2.3101,2.3107,2.3096,2.3107,2.2999,2.2691,2.1991,2.2461,2.2673,2.2008,2.3336,2.4409,2.4407,2.5166,2.5705,2.5694,2.6373,2.6799,2.6727,2.7526,2.8024,2.8012,2.8806,2.9292,2.9401,3.0067,3.0496,3.0602,3.0597,3.0569,3.0511,3.0346,3.0375,3.0588,3.0433,3.0452,3.0616,3.0615,3.0604,3.0613,3.0607,3.0607,3.0613,3.0673,3.0657,3.0604,3.0602,3.0164,2.9676,3.4661,3.3983,3.3705,3.4252,3.3472,3.2962,3.3555,3.3378,3.3183,3.3256,3.3304,3.3382,3.3411,3.2046,3.0534,2.8937,2.8834,2.8881,2.8923,2.8507,2.8498,2.898,2.8599,2.8603,2.9048,2.9089,2.9067,2.9021,2.8975,2.897,2.8952,2.9021,2.9152,2.9302,2.9307,2.9431,2.9607,2.9607,2.9645,2.9701,2.9701,2.97,2.9717,2.9825,2.9893,2.9956,3.0003,3.0094,3.0207,3.0234,2.9742,2.8948,2.8121,2.7316,2.6732,2.6862,2.6919,2.7051,2.7557,2.7673,2.7492,2.6675,2.6407,2.6233,2.5874,2.5148,2.4556,2.4544,2.4547,2.4393,2.3929,2.3823,2.3554,2.2715,2.2868,2.2984,2.2615,2.4057,2.5302,2.5785,2.6193,2.6222,2.5699,2.6435,2.6938,2.6899,2.812,2.8868,2.8864,2.968,3.0106,3.0071,3.0416,3.0593,3.0602,3.0597,3.0598,3.0559,3.052,3.051,3.053,3.0511,3.0511,3.0559,3.0588,3.0588,3.0559,3.0585,3.0604,3.0597,3.0634,3.0634,3.0597,3.0604,3.0372,3.012]}]]